[[{"header":{"parameterUnit":"m.s-1","parameterCategory":1,"la1":30.6,"la2":29.2853,"lo1":-89.7004,"lo2":-87.6739,"dy":0.0162,"dx":0.0183,"nx":112,"ny":82,"refTime":"2023-05-01T12:00:00:Z","depth":0,"parameterNumber":2,"parameterNumberName":"U-component_of_WINDS"},"data":[0.0,0.0,0.0,0.0,0.0,0.0,0.0,0.0,0.0,0.0,0.0,0.0,0.0,0.0,0.0,0.0,0.0,0.0,0.0,0.0,0.0,0.0,0.0,0.0,0.0,0.0,0.0,0.0,0.0,0.0,0.0,0.0,0.0,0.0,0.0,0.0,0.0,0.0,0.0,0.0,0.0,0.0,0.0,0.0,0.0,0.0,0.0,0.0,0.0,0.0,0.0,0.0,0.0,0.0,0.0,0.0,0.0,0.0,0.0,0.0,0.0,0.0,0.0,0.0,0.0,0.0,0.0,0.0,0.0,0.0,0.0,0.0,0.0,0.0,0.0,0.0,0.0,0.0,0.0,0.0,0.0,0.0,0.0,0.0,0.0,0.0,0.0,0.0,0.0,0.0,0.0,-3.2969,-3.1094,-2.9453,-2.8574,-2.7832,-2.8086,-2.9707,0.0,0.0,0.0,0.0,0.0,0.0,0.0,0.0,0.0,0.0,0.0,0.0,0.0,0.0,0.0,0.0,0.0,0.0,0.0,0.0,0.0,0.0,0.0,0.0,0.0,0.0,0.0,0.0,0.0,0.0,0.0,0.0,0.0,0.0,0.0,0.0,0.0,0.0,0.0,0.0,0.0,0.0,0.0,0.0,0.0,0.0,0.0,0.0,0.0,0.0,0.0,0.0,0.0,0.0,0.0,0.0,0.0,0.0,0.0,0.0,0.0,0.0,0.0,0.0,0.0,0.0,0.0,0.0,0.0,0.0,0.0,0.0,0.0,0.0,0.0,0.0,0.0,0.0,0.0,0.0,0.0,0.0,0.0,0.0,0.0,0.0,0.0,0.0,0.0,0.0,0.0,0.0,0.0,0.0,0.0,0.0,0.0,0.0,0.0,0.0,0.0,0.0,0.0,0.0,-3.2715,-3.1426,-3.0937,-3.0351,-2.9473,-2.9277,-2.9629,-3.0644,0.0,0.0,0.0,0.0,0.0,0.0,0.0,0.0,0.0,0.0,0.0,0.0,0.0,0.0,0.0,0.0,0.0,0.0,0.0,0.0,0.0,0.0,0.0,0.0,0.0,0.0,0.0,0.0,0.0,0.0,0.0,0.0,0.0,0.0,0.0,0.0,0.0,0.0,0.0,0.0,0.0,0.0,0.0,0.0,0.0,0.0,0.0,0.0,0.0,0.0,0.0,0.0,0.0,0.0,0.0,0.0,0.0,0.0,0.0,0.0,0.0,0.0,0.0,0.0,0.0,0.0,0.0,0.0,0.0,0.0,0.0,0.0,0.0,0.0,0.0,0.0,0.0,0.0,0.0,0.0,0.0,0.0,0.0,0.0,0.0,0.0,0.0,0.0,0.0,0.0,0.0,0.0,0.0,0.0,0.0,0.0,0.0,0.0,0.0,0.0,0.0,0.0,0.0,-3.3652,-3.2754,-3.1074,-3.0898,-3.0742,-3.0332,-2.9863,-3.0176,-3.1523,-2.9961,0.0,0.0,0.0,0.0,0.0,0.0,0.0,0.0,0.0,0.0,0.0,0.0,0.0,0.0,0.0,0.0,0.0,0.0,0.0,0.0,0.0,0.0,0.0,0.0,0.0,0.0,0.0,0.0,0.0,0.0,0.0,0.0,0.0,0.0,0.0,0.0,0.0,0.0,0.0,0.0,0.0,0.0,0.0,0.0,0.0,0.0,0.0,0.0,0.0,0.0,0.0,0.0,0.0,0.0,0.0,0.0,0.0,0.0,0.0,0.0,0.0,0.0,0.0,0.0,0.0,0.0,0.0,0.0,0.0,0.0,0.0,0.0,0.0,0.0,0.0,0.0,0.0,0.0,0.0,0.0,0.0,0.0,0.0,0.0,0.0,0.0,0.0,0.0,0.0,0.0,0.0,0.0,0.0,0.0,0.0,0.0,0.0,0.0,0.0,0.0,0.0,0.0,-3.3047,-3.2324,-3.1035,-3.0898,-3.0898,-3.0898,-3.0293,-3.0644,-3.2363,-3.1055,0.0,0.0,0.0,0.0,0.0,0.0,0.0,0.0,0.0,0.0,0.0,0.0,0.0,0.0,0.0,0.0,0.0,0.0,0.0,0.0,0.0,0.0,0.0,0.0,0.0,0.0,0.0,0.0,0.0,0.0,0.0,0.0,0.0,0.0,0.0,0.0,0.0,0.0,0.0,0.0,0.0,0.0,0.0,0.0,0.0,0.0,0.0,0.0,0.0,0.0,0.0,0.0,0.0,0.0,0.0,0.0,0.0,0.0,0.0,0.0,0.0,0.0,0.0,0.0,0.0,0.0,0.0,0.0,0.0,0.0,0.0,0.0,0.0,0.0,0.0,0.0,0.0,0.0,0.0,0.0,0.0,0.0,0.0,0.0,0.0,0.0,0.0,0.0,0.0,0.0,0.0,0.0,0.0,0.0,0.0,0.0,0.0,0.0,0.0,0.0,0.0,0.0,-3.2031,-3.1035,-3.0918,-3.0898,-3.0898,-3.0898,-3.084,-3.1523,-3.3203,-3.25,0.0,0.0,0.0,0.0,0.0,0.0,0.0,0.0,0.0,0.0,0.0,0.0,0.0,0.0,0.0,0.0,0.0,0.0,0.0,0.0,0.0,0.0,0.0,0.0,0.0,0.0,0.0,0.0,0.0,0.0,0.0,0.0,0.0,0.0,0.0,0.0,0.0,0.0,0.0,0.0,0.0,0.0,0.0,0.0,0.0,0.0,0.0,0.0,0.0,0.0,0.0,0.0,0.0,0.0,0.0,0.0,0.0,0.0,0.0,0.0,0.0,0.0,0.0,0.0,0.0,0.0,0.0,0.0,0.0,0.0,0.0,0.0,0.0,0.0,0.0,0.0,0.0,0.0,0.0,0.0,0.0,0.0,0.0,0.0,0.0,0.0,0.0,0.0,0.0,0.0,0.0,0.0,0.0,0.0,0.0,0.0,0.0,0.0,0.0,0.0,0.0,0.0,-3.2402,-3.1504,0.0,-3.0898,-3.0898,-3.0898,-3.0898,-3.1621,-3.3281,0.0,0.0,0.0,0.0,0.0,0.0,0.0,0.0,0.0,0.0,0.0,0.0,0.0,0.0,0.0,0.0,0.0,0.0,0.0,0.0,0.0,0.0,0.0,0.0,0.0,0.0,0.0,0.0,0.0,0.0,0.0,0.0,0.0,0.0,0.0,0.0,0.0,0.0,0.0,0.0,0.0,0.0,0.0,0.0,0.0,0.0,0.0,0.0,0.0,0.0,0.0,0.0,0.0,0.0,0.0,0.0,0.0,0.0,0.0,0.0,0.0,0.0,0.0,0.0,0.0,0.0,0.0,0.0,0.0,0.0,0.0,0.0,0.0,0.0,0.0,0.0,0.0,0.0,0.0,0.0,0.0,0.0,0.0,0.0,0.0,0.0,0.0,0.0,0.0,0.0,0.0,0.0,0.0,0.0,0.0,0.0,0.0,0.0,0.0,0.0,0.0,0.0,-3.3476,-3.2461,-3.168,0.0,-3.1074,-3.1016,-3.1289,-3.1055,-3.1621,-3.3281,0.0,0.0,0.0,0.0,0.0,0.0,0.0,0.0,0.0,0.0,0.0,0.0,0.0,0.0,0.0,0.0,0.0,0.0,0.0,0.0,0.0,0.0,0.0,0.0,0.0,0.0,0.0,0.0,0.0,0.0,0.0,0.0,0.0,0.0,0.0,0.0,0.0,0.0,0.0,0.0,0.0,0.0,0.0,0.0,0.0,0.0,0.0,0.0,0.0,0.0,0.0,0.0,0.0,0.0,0.0,0.0,0.0,0.0,0.0,0.0,0.0,0.0,0.0,0.0,0.0,0.0,0.0,0.0,0.0,0.0,0.0,0.0,0.0,0.0,0.0,0.0,0.0,0.0,0.0,0.0,0.0,0.0,0.0,0.0,0.0,0.0,0.0,0.0,0.0,0.0,0.0,0.0,0.0,0.0,0.0,0.0,0.0,0.0,0.0,0.0,0.0,0.0,-3.3398,-3.1953,-3.123,-3.2109,-3.1445,-3.1269,-3.2129,-3.1406,-3.1621,0.0,0.0,0.0,0.0,0.0,0.0,0.0,0.0,0.0,0.0,0.0,0.0,0.0,0.0,0.0,0.0,0.0,0.0,0.0,0.0,0.0,0.0,0.0,0.0,0.0,0.0,0.0,0.0,0.0,0.0,0.0,0.0,0.0,0.0,0.0,0.0,0.0,0.0,0.0,0.0,0.0,0.0,0.0,0.0,0.0,0.0,0.0,0.0,0.0,0.0,0.0,0.0,0.0,0.0,0.0,0.0,0.0,0.0,0.0,0.0,0.0,0.0,0.0,0.0,0.0,0.0,0.0,0.0,0.0,0.0,0.0,0.0,0.0,0.0,0.0,0.0,0.0,0.0,0.0,0.0,0.0,0.0,0.0,0.0,0.0,0.0,0.0,0.0,0.0,0.0,0.0,0.0,0.0,0.0,0.0,0.0,0.0,0.0,0.0,0.0,0.0,0.0,0.0,-3.3398,-3.2461,-3.1914,-3.2168,-3.248,-3.2539,-3.2226,-3.1953,-3.2266,-3.332,0.0,0.0,0.0,0.0,0.0,0.0,0.0,0.0,0.0,0.0,0.0,0.0,0.0,0.0,0.0,0.0,0.0,0.0,0.0,0.0,0.0,0.0,0.0,0.0,0.0,0.0,0.0,0.0,0.0,0.0,0.0,0.0,0.0,0.0,0.0,0.0,0.0,0.0,0.0,0.0,0.0,0.0,0.0,0.0,0.0,0.0,0.0,0.0,0.0,0.0,0.0,0.0,0.0,0.0,0.0,0.0,0.0,0.0,0.0,0.0,0.0,0.0,0.0,0.0,0.0,0.0,0.0,0.0,0.0,0.0,0.0,0.0,0.0,0.0,0.0,0.0,0.0,0.0,0.0,0.0,0.0,0.0,0.0,0.0,0.0,0.0,0.0,0.0,0.0,0.0,0.0,0.0,0.0,0.0,0.0,0.0,0.0,0.0,0.0,0.0,0.0,0.0,-3.4355,-3.3125,-3.2461,-3.3125,-3.332,-3.3203,-3.2715,-3.2383,-3.2402,-3.2891,0.0,0.0,0.0,0.0,0.0,0.0,0.0,0.0,0.0,0.0,0.0,0.0,0.0,0.0,0.0,0.0,0.0,0.0,0.0,0.0,0.0,0.0,0.0,0.0,0.0,0.0,0.0,0.0,0.0,0.0,0.0,0.0,0.0,0.0,0.0,0.0,0.0,0.0,0.0,0.0,0.0,0.0,0.0,0.0,0.0,0.0,0.0,0.0,0.0,0.0,0.0,0.0,0.0,0.0,0.0,0.0,0.0,0.0,0.0,0.0,0.0,0.0,0.0,0.0,0.0,0.0,0.0,0.0,0.0,0.0,0.0,0.0,0.0,0.0,0.0,0.0,0.0,0.0,0.0,0.0,0.0,0.0,0.0,0.0,0.0,0.0,0.0,0.0,0.0,0.0,0.0,0.0,0.0,0.0,0.0,0.0,0.0,0.0,0.0,0.0,0.0,0.0,-3.5801,-3.3906,-3.3008,-3.4531,-3.4062,-3.3613,-3.3535,-3.2773,-3.2305,-3.2305,0.0,0.0,0.0,0.0,0.0,0.0,0.0,0.0,0.0,0.0,0.0,0.0,0.0,0.0,0.0,0.0,0.0,0.0,0.0,0.0,0.0,0.0,0.0,0.0,0.0,0.0,0.0,0.0,0.0,0.0,0.0,0.0,0.0,0.0,0.0,0.0,0.0,0.0,0.0,0.0,0.0,0.0,0.0,0.0,0.0,0.0,0.0,0.0,0.0,0.0,0.0,0.0,0.0,0.0,0.0,0.0,0.0,0.0,0.0,0.0,-3.6346,0.0,0.0,0.0,0.0,0.0,0.0,0.0,0.0,0.0,0.0,0.0,0.0,0.0,0.0,0.0,0.0,0.0,0.0,0.0,0.0,0.0,0.0,0.0,0.0,0.0,0.0,0.0,0.0,0.0,0.0,0.0,0.0,0.0,0.0,0.0,0.0,0.0,0.0,0.0,0.0,0.0,-3.5957,-3.4922,-3.4297,-3.4668,-3.5156,-3.5176,-3.4473,-3.3633,-3.3144,-3.3144,0.0,0.0,0.0,0.0,0.0,0.0,0.0,0.0,0.0,0.0,0.0,0.0,0.0,0.0,0.0,0.0,0.0,0.0,0.0,0.0,0.0,0.0,0.0,0.0,0.0,0.0,0.0,0.0,0.0,0.0,0.0,0.0,0.0,0.0,0.0,0.0,0.0,0.0,0.0,0.0,0.0,0.0,0.0,0.0,0.0,0.0,0.0,0.0,0.0,0.0,0.0,0.0,0.0,0.0,0.0,0.0,0.0,0.0,0.0,0.0,0.0,-3.6481,0.0,0.0,0.0,0.0,0.0,0.0,0.0,0.0,0.0,0.0,0.0,0.0,0.0,0.0,0.0,0.0,0.0,0.0,0.0,0.0,0.0,0.0,0.0,0.0,0.0,0.0,0.0,0.0,0.0,0.0,0.0,0.0,0.0,0.0,0.0,0.0,0.0,0.0,0.0,0.0,-3.7148,-3.5762,-3.4863,-3.5273,-3.5723,-3.5644,-3.4766,-3.4277,-3.3672,-3.2871,-3.2793,0.0,0.0,0.0,0.0,0.0,0.0,0.0,0.0,0.0,0.0,0.0,0.0,0.0,0.0,0.0,0.0,0.0,0.0,0.0,0.0,0.0,0.0,0.0,0.0,0.0,0.0,0.0,0.0,0.0,0.0,0.0,0.0,0.0,0.0,0.0,0.0,0.0,0.0,0.0,0.0,0.0,0.0,0.0,0.0,0.0,0.0,0.0,0.0,0.0,0.0,0.0,0.0,0.0,-3.7623,-3.7642,-3.7777,-3.7623,-3.7257,-3.6692,-3.6538,-3.6192,-3.575,0.0,0.0,0.0,0.0,0.0,0.0,0.0,0.0,0.0,0.0,0.0,0.0,0.0,0.0,0.0,0.0,0.0,0.0,0.0,0.0,0.0,0.0,0.0,0.0,0.0,-3.4993,-3.4715,0.0,0.0,0.0,0.0,0.0,0.0,0.0,0.0,0.0,0.0,0.0,0.0,-3.8203,-3.6367,-3.5195,-3.5918,-3.5996,-3.5703,-3.498,-3.4785,-3.4101,-3.2715,-3.2988,-3.2969,0.0,0.0,0.0,0.0,0.0,0.0,0.0,0.0,0.0,0.0,0.0,0.0,0.0,0.0,0.0,0.0,0.0,0.0,0.0,0.0,0.0,0.0,0.0,0.0,0.0,0.0,0.0,0.0,0.0,0.0,0.0,0.0,-3.6482,-3.6323,0.0,0.0,0.0,0.0,0.0,0.0,0.0,0.0,0.0,0.0,0.0,0.0,0.0,-3.8219,-3.8007,-3.7257,-3.6865,-3.6865,-3.6154,-3.6192,-3.6846,-3.6154,-3.6154,-3.6654,-3.5962,0.0,-3.6538,-3.6654,0.0,0.0,0.0,0.0,0.0,0.0,0.0,0.0,0.0,0.0,0.0,0.0,0.0,0.0,0.0,0.0,0.0,0.0,0.0,0.0,0.0,0.0,-3.55,-3.55,-3.5424,-3.5386,0.0,-3.5626,-3.5749,-3.5876,-3.5898,0.0,0.0,0.0,0.0,0.0,0.0,0.0,-3.7539,-3.6504,-3.5879,-3.5996,-3.5996,-3.5957,-3.584,-3.5137,-3.4609,-3.4375,-3.3105,-3.2617,-3.3223,-3.2676,0.0,0.0,0.0,0.0,0.0,0.0,0.0,0.0,0.0,0.0,0.0,0.0,0.0,0.0,0.0,0.0,0.0,0.0,0.0,0.0,0.0,0.0,0.0,0.0,0.0,0.0,0.0,0.0,0.0,-3.7803,-3.7542,-3.7233,-3.7997,-3.884,0.0,0.0,0.0,0.0,0.0,0.0,0.0,0.0,0.0,-3.7825,-3.8839,-3.895,-3.8007,-3.7623,-3.743,-3.743,-3.7065,-3.7084,-3.743,-3.7065,-3.7103,-3.7411,-3.7065,-3.7103,-3.7392,-3.6904,-3.7353,-3.8411,0.0,0.0,0.0,0.0,-3.8873,-3.843,-3.7565,-3.7276,0.0,0.0,0.0,0.0,0.0,0.0,0.0,0.0,0.0,0.0,0.0,0.0,0.0,-3.5615,-3.55,-3.55,-3.55,-3.5546,-3.5746,0.0,-3.6806,-3.7475,-3.8436,0.0,0.0,0.0,0.0,0.0,-3.7344,-3.6543,-3.5996,-3.5996,-3.5996,-3.5996,-3.5996,-3.5644,-3.5215,-3.4726,-3.4004,-3.334,-3.2754,-3.2812,-3.3008,0.0,0.0,0.0,0.0,0.0,0.0,0.0,0.0,0.0,0.0,0.0,0.0,0.0,0.0,0.0,0.0,0.0,0.0,0.0,0.0,0.0,0.0,0.0,0.0,0.0,0.0,0.0,0.0,-3.7807,-3.7634,-3.7884,-3.7816,-3.8469,0.0,0.0,0.0,0.0,0.0,0.0,-3.7919,-3.9376,-3.9419,-3.7755,-3.9322,-3.9592,-3.8334,-3.8546,-3.8642,-3.8642,-3.8642,-3.8757,-3.8969,-3.8738,-3.8757,-3.895,-3.8527,-3.8334,-3.8277,-3.7392,-3.7161,-3.743,-3.8084,-3.8334,-3.8315,-3.8084,-3.7853,-3.7546,-3.6692,-3.6385,-3.6423,-3.6635,0.0,-3.7123,-3.7546,0.0,0.0,0.0,0.0,-3.7469,-3.6615,-3.6385,-3.6231,-3.5635,-3.55,-3.55,-3.55,-3.5694,-3.599,0.0,-3.7114,-3.7876,-3.882,0.0,0.0,0.0,0.0,-3.7185,-3.697,-3.6386,-3.5996,-3.5996,-3.5996,-3.5996,-3.5996,-3.5996,-3.5723,-3.5078,-3.4824,-3.4141,-3.2891,-3.3008,-3.291,-3.2519,0.0,0.0,0.0,0.0,0.0,0.0,0.0,0.0,0.0,0.0,0.0,0.0,0.0,0.0,0.0,0.0,0.0,0.0,0.0,0.0,0.0,0.0,0.0,0.0,0.0,0.0,0.0,0.0,0.0,-3.7778,-3.6329,0.0,0.0,0.0,0.0,-4.0142,-4.0547,-4.0454,-3.9888,-4.0253,-3.9712,-3.8031,-3.8873,-3.9323,-3.9246,-3.9996,-4.0362,-4.0362,-4.0362,-4.0816,-4.1577,-4.0739,-4.0835,-4.1519,-3.9931,-3.9227,-3.9169,-3.8296,-3.8411,-3.9169,-3.9227,-3.9227,-3.913,-3.8315,-3.7488,-3.6654,-3.5846,-3.5558,-3.5692,-3.6442,-3.7257,-3.7796,-3.7,-3.7334,0.0,0.0,-3.6769,-3.6577,-3.5769,-3.5558,-3.5558,-3.5519,-3.55,-3.55,-3.55,-3.6207,-3.6585,0.0,-3.5604,-3.5939,-3.6885,0.0,-3.7011,-3.7134,-3.7186,-3.6902,-3.6081,-3.5991,-3.5996,-3.5996,-3.5996,-3.5996,-3.5996,-3.5996,-3.5976,-3.5937,-3.5156,-3.4668,-3.457,-3.3086,-3.2598,-3.332,-3.2637,0.0,0.0,0.0,0.0,0.0,0.0,0.0,0.0,0.0,0.0,0.0,0.0,0.0,0.0,0.0,0.0,0.0,0.0,0.0,0.0,0.0,0.0,0.0,0.0,0.0,0.0,0.0,0.0,-3.7802,-3.7613,0.0,-3.9801,-3.8939,-3.8851,-4.0258,-3.9328,-3.8831,-3.9154,-3.9933,-4.0101,-3.9493,-4.0689,-4.137,-4.137,-4.1895,-4.2162,-4.2162,-4.2162,-4.2335,-4.2624,-4.2316,-4.2335,-4.2604,-4.2008,-4.1739,-4.172,-4.1412,-4.0162,-3.845,-3.845,-3.845,-3.843,-3.8104,-3.7796,-3.7507,-3.7219,-3.7103,-3.7161,-3.745,-3.7757,-3.795,-3.7623,-3.7757,-3.793,-3.7623,-3.7546,-3.7469,-3.718,-3.7103,-3.7103,-3.7103,-3.7103,-3.6969,-3.6385,-3.6543,-3.6511,-3.5668,-3.599,-3.6516,-3.6841,-3.6434,-3.6285,-3.6906,-3.6553,-3.612,-3.5805,-3.5878,-3.5942,-3.5942,-3.5974,-3.5996,-3.5996,-3.5996,-3.5996,-3.5996,-3.5703,-3.5293,-3.4726,-3.4121,-3.3672,-3.3418,-3.2617,-3.3144,0.0,0.0,0.0,0.0,0.0,0.0,0.0,0.0,0.0,0.0,0.0,0.0,0.0,0.0,0.0,0.0,0.0,0.0,0.0,0.0,0.0,0.0,0.0,0.0,0.0,0.0,-3.7509,-3.8968,-3.8629,-3.9054,-4.1017,-3.9922,-3.963,-4.0878,-3.9667,-3.9201,-3.9937,-4.0669,-4.1048,-4.1048,-4.2398,-4.3111,-4.3111,-4.3661,-4.3932,-4.3932,-4.3932,-4.3932,-4.3932,-4.3932,-4.3932,-4.3932,-4.3624,-4.3508,-4.347,-4.3201,-4.1758,-3.9662,-3.9065,-3.8681,-3.8392,-3.8104,-3.8007,-3.8007,-3.8007,-3.8007,-3.8007,-3.8007,-3.8007,-3.8007,-3.8007,-3.8007,-3.8007,-3.8007,-3.8007,-3.8007,-3.8007,-3.8007,-3.8007,-3.8007,-3.8007,-3.7834,-3.7257,-3.7142,-3.6988,-3.6442,-3.6395,-3.6422,-3.6422,-3.5946,-3.5982,-3.7229,-3.6402,-3.5885,-3.6505,-3.6142,-3.5845,-3.59,-3.5944,-3.5974,-3.5996,-3.6269,-3.6309,-3.6016,-3.6289,-3.6055,-3.5176,-3.5137,-3.4863,-3.4297,-3.3184,-3.3437,-3.5117,0.0,0.0,0.0,0.0,0.0,0.0,0.0,0.0,0.0,0.0,0.0,0.0,0.0,0.0,0.0,0.0,0.0,0.0,0.0,0.0,0.0,0.0,0.0,-3.7566,-3.7547,-3.8538,-4.1231,-3.9217,-3.8962,-4.2404,-4.1049,-4.0533,-4.2002,-4.18,-4.189,-4.2495,-4.2517,-4.2517,-4.2517,-4.3675,-4.4282,-4.4282,-4.5145,-4.5586,-4.5586,-4.5586,-4.5594,-4.5594,-4.5594,-4.5594,-4.5556,-4.4701,-4.4335,-4.4278,-4.3508,-4.3181,-4.3008,-4.1266,-4.0092,-3.9323,-3.8469,-3.8161,-3.8161,-3.8123,-3.8123,-3.8104,-3.8084,-3.8084,-3.8084,-3.8084,-3.8084,-3.8084,-3.8084,-3.8084,-3.8084,-3.8084,-3.8084,-3.8084,-3.8084,-3.8084,-3.8065,-3.8046,-3.8046,-3.8027,-3.8007,-3.6699,-3.5577,-3.5577,-3.5577,-3.6151,-3.7887,-3.6725,0.0,-3.7999,-3.6738,-3.5771,-3.5953,-3.598,-3.6016,-3.6074,-3.6855,-3.6953,-3.6055,-3.6797,-3.6875,-3.6035,-3.5996,-3.5996,-3.5957,-3.4355,-3.3496,-3.3437,0.0,0.0,0.0,0.0,0.0,0.0,0.0,0.0,0.0,0.0,0.0,0.0,0.0,0.0,0.0,0.0,0.0,0.0,0.0,0.0,0.0,0.0,-3.9237,-3.9237,-3.8744,-3.8863,-4.0201,-4.0218,-4.0499,-4.1456,-4.1084,-4.119,-4.2168,-4.2147,-4.2435,-4.3191,-4.3243,-4.3243,-4.3243,-4.3774,-4.4078,-4.4078,-4.4855,-4.5232,-4.5232,-4.5485,-4.5594,-4.5594,-4.5594,-4.5594,-4.5594,-4.5344,-4.5248,-4.5229,-4.4998,-4.4921,-4.4748,-4.3047,-4.2239,-4.2027,-4.1797,-4.17,-4.1604,-4.0969,-4.0758,-4.0662,-4.0008,-3.9804,-3.9804,-3.9804,-3.9804,-3.9804,-3.9804,-3.9804,-3.9804,-3.9804,-3.9804,-3.9804,-3.9804,-3.9804,-3.965,-3.9073,-3.8931,-3.8757,-3.8123,-3.7623,-3.7315,-3.7315,-3.7315,-3.7278,-3.7128,-3.6697,0.0,-3.629,-3.5901,-3.6144,-3.7494,-3.768,-3.7756,-3.7871,-3.8105,-3.7598,-3.6094,-3.6211,-3.625,-3.6016,-3.5996,-3.5703,-3.5078,-3.582,-3.5605,0.0,0.0,0.0,0.0,0.0,0.0,0.0,0.0,0.0,0.0,0.0,0.0,0.0,0.0,0.0,0.0,0.0,0.0,0.0,0.0,0.0,0.0,-4.0396,-4.0524,-4.0855,-4.0212,-4.001,-4.0818,-4.1332,-4.1866,-4.2526,-4.2599,-4.2996,-4.3954,-4.3894,-4.408,-4.469,-4.4709,-4.4709,-4.4709,-4.5072,-4.5248,-4.5248,-4.5817,-4.6115,-4.6115,-4.6465,-4.6644,-4.6644,-4.6297,-4.6144,0.0,-4.5768,-4.5594,-4.5594,-4.5594,-4.5594,0.0,0.0,0.0,0.0,0.0,-4.3104,-4.3028,-4.2527,-4.2335,-4.2258,-4.1739,-4.1593,-4.1593,-4.1593,-4.1593,-4.1508,-4.1143,-4.1046,-4.095,-4.0593,-4.0496,-4.0496,-4.0496,-4.0496,-4.0362,-3.99,-3.9804,-3.965,-3.9142,-3.9046,0.0,-3.9046,-3.845,-3.8101,-3.8344,-3.7718,-3.7215,-3.7147,-3.651,-3.6353,-3.7081,-3.7202,-3.7294,-3.7452,-3.7807,0.0,0.0,0.0,-3.6543,-3.6543,-3.6543,0.0,0.0,0.0,-3.6074,-3.4707,0.0,0.0,0.0,-3.3176,-3.287,0.0,0.0,0.0,0.0,0.0,0.0,0.0,0.0,0.0,0.0,0.0,0.0,0.0,0.0,0.0,0.0,-4.1279,-4.1535,-4.2451,-4.1957,-4.1756,-4.2488,-4.258,-4.3167,-4.469,-4.4838,-4.5253,-4.6273,-4.6079,-4.6044,-4.6327,0.0,0.0,0.0,0.0,-4.6896,-4.6953,-4.7283,-4.7467,-4.7514,-4.7913,-4.8105,-4.8086,-4.7355,-4.7038,-4.6981,-4.622,-4.5825,-4.5748,-4.5748,-4.5691,-4.5518,-4.4739,-4.4451,-4.4355,-4.3643,-4.3374,-4.3374,-4.3278,0.0,0.0,-4.3124,-4.3104,-4.3104,-4.3104,-4.3104,-4.2931,-4.2162,-4.1942,-4.1777,-4.0997,-4.0727,-4.065,-4.065,-4.0573,-4.0496,-4.0496,-4.0496,-4.0496,-4.0496,-4.0496,-4.0496,-4.0496,-3.9258,-3.881,-4.0318,-3.9174,-3.8406,-3.9143,-3.7739,-3.6537,-3.6084,0.0,0.0,-3.6159,-3.6871,-3.6949,-3.6054,-3.6719,-3.7148,-3.7148,-3.7148,-3.7148,-3.7148,-3.6387,-3.5625,-3.4844,-3.3965,-3.3555,-3.3555,-3.4182,-3.3565,0.0,0.0,0.0,0.0,0.0,0.0,0.0,0.0,0.0,0.0,0.0,0.0,0.0,0.0,0.0,-4.2928,-4.2488,-4.258,-4.403,-4.4086,-4.4049,-4.4232,-4.4232,-4.4617,-4.5571,-4.5663,-4.5754,-4.5991,-4.5938,-4.592,-4.5991,-4.5991,0.0,-4.5991,-4.6061,-4.6264,-4.6579,-4.693,-4.7264,-4.7579,0.0,0.0,-4.8086,-4.7952,-4.7875,-4.7855,-4.7682,-4.7259,-4.6644,-4.6644,-4.622,-4.5575,-4.5421,-4.5344,-4.5325,-4.5171,-4.5114,-4.5017,-4.4316,-4.4066,-4.3951,-4.3316,-4.3104,-4.3104,-4.3104,-4.3104,0.0,-4.2893,-4.2854,-4.2816,-4.2643,-4.2085,-4.1546,-4.1546,-4.1008,-4.0496,-4.0496,-4.0496,-4.0496,-4.0496,-4.0496,-4.0496,-4.0496,-4.0227,-3.9915,-3.9613,-3.9268,-3.8857,-3.8334,-3.7355,-3.7205,-3.8526,-3.8082,-3.7738,-3.7835,-3.7981,-3.7464,-3.601,-3.613,-3.625,-3.625,-3.625,-3.625,-3.625,-3.6094,-3.5918,-3.5742,-3.4863,-3.4453,-3.4434,-3.3886,-3.3406,0.0,0.0,0.0,0.0,0.0,0.0,0.0,0.0,0.0,0.0,0.0,-4.2304,0.0,0.0,-4.2892,-4.2892,-4.324,-4.3791,-4.4581,-4.5057,-4.5296,-4.5296,-4.5296,-4.5626,-4.6434,-4.6507,-4.6673,-4.7076,-4.7095,-4.7095,-4.7095,-4.7095,-4.7095,-4.7095,-4.7095,-4.7206,-4.7401,-4.778,-4.8139,-4.8561,-4.8915,-4.9208,-4.9394,-4.8952,-4.8759,-4.8721,-4.8298,-4.7875,-4.7471,-4.7058,-4.6394,-4.5594,-4.5594,-4.5594,-4.5594,-4.5594,-4.5594,-4.5537,-4.5094,-4.496,-4.4874,-4.447,-4.4355,-4.4355,-4.4355,-4.4355,-4.4259,-4.3816,-4.3701,-4.3605,-4.3201,-4.2777,-4.245,-4.245,-4.1777,-4.1143,-4.1143,-4.0804,-4.0496,-4.0496,-4.0496,-4.0496,-4.0496,-4.0496,-4.0362,-3.9958,-3.99,-3.9611,-3.8757,-3.8277,-3.8012,-3.8041,-3.7687,-3.7307,-3.6971,-3.6973,-3.6679,-3.5958,-3.5921,-3.5972,-3.5996,-3.5996,-3.5996,-3.5996,-3.5996,-3.5996,-3.5996,-3.5566,-3.5351,-3.5332,-3.4902,-3.4196,0.0,0.0,0.0,0.0,0.0,0.0,0.0,0.0,-4.2268,-4.2103,-4.2708,-4.3057,-4.2415,-4.3094,-4.3516,-4.2873,-4.3993,-4.5002,-4.5131,-4.5718,-4.6195,-4.6342,-4.6232,-4.6452,-4.7259,-4.7333,-4.759,-4.8251,-4.8306,-4.8306,-4.8306,-4.8306,-4.8306,-4.8306,-4.8306,-4.8344,-4.842,-4.8727,-4.9092,-4.9504,-4.9827,-5.0159,-5.0453,-4.9815,-4.9528,-4.9499,-4.8702,-4.8355,-4.8269,-4.7223,-4.6425,-4.5836,-4.5599,-4.5531,-4.5594,-4.5594,-4.5594,-4.5594,-4.5594,-4.5594,-4.5594,-4.5594,-4.5594,-4.5594,-4.5594,-4.5594,-4.546,-4.4739,-4.4547,-4.4393,-4.3739,-4.3451,-4.3335,-4.3335,-4.2681,-4.2,-4.1846,-4.1258,-4.0708,-4.0535,-4.0496,-4.0496,-4.0496,-4.0496,-4.0496,-4.0496,-4.0496,-4.0265,-3.9631,-3.94,-3.8757,-3.7353,-3.6904,-3.6408,-3.5635,-3.5633,-3.573,-3.5827,-3.5871,-3.5917,-3.5975,-3.5996,-3.5996,-3.5996,-3.5996,-3.5996,-3.5996,-3.5996,-3.5996,-3.5996,-3.5996,-3.5213,-4.3332,-4.3222,-4.2947,-4.2323,-4.269,-4.2855,0.0,0.0,-4.2103,-4.137,-4.1882,-4.2415,-4.2323,-4.3552,-4.4544,-4.4452,-4.5186,-4.603,-4.6727,-4.6911,-4.7223,-4.7957,-4.7388,-4.7278,-4.8104,-4.8177,-4.8214,-4.8306,-4.8306,-4.8306,-4.8306,-4.8306,-4.8306,-4.8306,-4.8306,-4.8458,-4.883,-4.888,-4.9092,-4.9489,-4.9566,-4.9575,-4.9631,-4.9892,-5.0018,-4.9992,-4.9488,-4.924,-4.9087,-4.7167,-4.652,-4.6655,-4.5569,-4.5332,-4.5594,-4.5594,-4.5594,-4.5594,-4.5594,-4.5594,-4.5594,-4.5594,-4.5594,-4.5594,-4.5594,-4.5594,-4.5575,-4.5479,-4.546,-4.5441,-4.5344,-4.4739,-4.4162,-4.4162,-4.3547,-4.2739,-4.1962,-4.1712,-4.1431,-4.065,-4.0496,-4.0496,-4.0496,-4.0496,-4.0496,-4.0496,-4.0496,-4.0477,-4.0381,-3.9746,-3.9227,-3.9034,-3.7623,-3.6372,-3.5585,-3.5566,-3.5616,-3.5631,-3.5803,-3.5905,-3.591,-3.5973,-3.5996,-3.5996,-3.5996,-3.5996,-3.5996,-3.5996,-3.5996,-3.5996,-3.5996,-3.5898,-4.2231,-4.2451,0.0,0.0,-4.2543,-4.2745,-4.2543,-4.2763,-4.3039,-4.3168,-4.3462,-4.3846,-4.4305,-4.4947,-4.5406,0.0,-4.6085,-4.6709,-4.7058,-4.7498,-4.7921,-4.8269,-4.8012,-4.792,-4.8269,-4.8306,-4.8306,-4.8306,-4.8306,-4.8306,-4.8306,-4.8306,-4.8306,-4.8306,-4.8306,-4.8383,-4.855,-4.855,-4.8744,-4.9155,-4.9155,-4.928,-4.9522,-4.9659,-4.9746,-4.9754,-4.9789,-4.9513,-4.8996,-4.837,-4.7489,-4.6489,-4.599,-4.5475,-4.5074,-4.5448,-4.5594,-4.5594,-4.5594,-4.5594,-4.5594,-4.5594,-4.5594,-4.5594,-4.5594,-4.5594,-4.5594,-4.5594,-4.5594,-4.5594,-4.5594,-4.5325,-4.5056,-4.5056,-4.4412,-4.3701,-4.3335,-4.2893,-4.2297,-4.1431,-4.1258,-4.1104,-4.0593,-4.0496,-4.0496,-4.0496,-4.0496,-4.0496,-4.0496,-4.0208,-3.9823,-3.9361,-3.7738,-3.6558,-3.6231,-3.5779,-3.5556,-3.5605,-3.5689,-3.5785,-3.59,-3.5938,-3.5951,-3.5996,-3.5996,-3.5996,-3.5996,-3.5996,-3.5996,-3.5996,-3.5996,-3.5996,-4.1919,0.0,0.0,-4.291,-4.2965,-4.3167,-4.3975,-4.4158,-4.4323,-4.4911,-4.5039,-4.5223,-4.5792,-4.6085,-4.6232,-4.6232,-4.6911,-4.7424,-4.7424,-4.792,-4.8306,-4.8306,-4.8306,-4.8306,-4.8306,-4.8306,-4.8306,-4.8306,-4.8306,-4.8306,-4.8306,-4.8306,-4.8306,-4.8306,-4.8306,-4.8306,-4.8306,-4.8306,-4.8458,-4.8727,-4.8727,-4.888,-4.9171,-4.928,-4.9401,-4.9504,-4.98,-4.9581,-4.8986,-4.8953,-4.8022,-4.6591,-4.6149,-4.5483,-4.48,-4.5171,-4.5371,-4.5485,-4.5568,-4.5594,-4.5594,-4.5594,-4.5594,-4.5594,-4.5594,-4.5594,-4.5594,-4.5594,-4.5594,-4.5594,-4.5594,-4.5594,-4.5594,-4.5594,-4.5133,-4.4586,-4.4355,-4.3835,-4.3181,-4.2316,-4.1962,-4.1604,-4.0969,-4.0669,-4.0496,-4.0496,-4.0496,-4.0496,-4.0496,-4.0496,-4.0189,-3.94,-3.8161,-3.7219,-3.6731,-3.6173,-3.5765,-3.5579,-3.5585,-3.5672,-3.5811,-3.5867,-3.5916,-3.5973,-3.5996,-3.5996,-3.5996,-3.5996,-3.5996,-3.5996,-3.5996,-3.5996,0.0,0.0,-4.3644,-4.4433,-4.4635,-4.4837,-4.5645,-4.5828,-4.5828,-4.5865,-4.5865,-4.5865,-4.5902,-4.6526,-4.7058,-4.7058,-4.7736,-4.8269,-4.8269,-4.8288,-4.8306,-4.8306,-4.8306,-4.8306,0.0,-4.8306,-4.8306,-4.8306,-4.8306,-4.8306,-4.8306,-4.8306,-4.8306,-4.8306,-4.8306,-4.8306,-4.8306,-4.8306,-4.8306,-4.8325,-4.8325,-4.8307,-4.8345,-4.8727,-4.9123,-4.9489,-4.9504,-4.9499,-4.9395,-4.8244,-4.765,-4.731,-4.5819,-4.5165,-4.5052,-4.4732,-4.4837,-4.515,-4.5495,-4.5594,-4.5594,-4.5594,-4.5594,-4.5594,-4.5594,-4.5594,-4.5594,-4.5594,-4.5594,-4.5594,-4.5594,-4.5594,-4.5594,-4.5594,-4.5575,-4.5325,-4.447,-4.4278,-4.4028,-4.322,-4.2374,-4.1788,-4.1769,-4.1066,-4.0496,-4.0496,-4.0496,-4.0496,-4.0496,-4.0496,-4.0189,-3.94,-3.9246,-3.8546,-3.6846,-3.6673,-3.6334,-3.5545,-3.5568,-3.5591,-3.5601,-3.58,-3.5903,-3.5903,-3.5972,-3.5996,-3.5996,-3.5996,-3.5996,-3.5996,-3.5996,-3.5996,0.0,0.0,-4.4488,-4.5296,-4.5498,-4.5571,-4.5847,-4.5902,-4.6049,-4.6581,-4.6269,-4.6067,-4.6599,-4.6911,-4.7094,-4.7094,-4.7773,-4.8306,-4.8306,-4.8306,-4.8306,-4.8306,-4.8306,0.0,0.0,0.0,0.0,-4.8306,-4.8306,-4.8306,-4.8306,-4.8306,-4.8306,-4.8306,-4.8306,-4.8306,-4.8306,-4.8306,-4.8306,-4.8306,-4.8306,-4.8306,-4.8306,-4.8439,-4.8568,-4.871,-4.8996,-4.9092,-4.9089,-4.8949,-4.8394,-4.7548,-4.6722,-4.5754,-4.4826,-4.4667,-4.4495,-4.4468,-4.5055,-4.5282,-4.5312,-4.5522,-4.5594,-4.5594,-4.5594,-4.5594,-4.5594,-4.5594,-4.5594,-4.5594,-4.5594,-4.5594,-4.5594,-4.5594,-4.5594,-4.5518,-4.5229,-4.5171,-4.4921,-4.4066,-4.3662,-4.3104,-4.1981,-4.1566,-4.1162,-4.0593,-4.0496,-4.0496,-4.0496,-4.0496,-4.04,-4.0131,-3.9631,-3.8834,-3.7661,-3.7019,-3.6365,-3.5558,-3.5522,-3.5544,-3.5605,-3.5702,-3.5807,-3.5901,-3.5972,-3.5996,-3.5996,-3.5996,-3.5996,-3.5996,-3.5996,-3.5996,-4.4562,-4.4911,-4.5333,-4.614,-4.6342,-4.6397,-4.6691,-4.6764,-4.6911,-4.7406,-4.6874,-4.6489,-4.7003,-4.7094,-4.7003,-4.6709,-4.7351,-4.7865,-4.7865,-4.7865,-4.7994,-4.8269,-4.8306,0.0,0.0,0.0,0.0,-4.8306,-4.8306,-4.8306,-4.8306,-4.8306,-4.8306,-4.8306,-4.8306,-4.8306,-4.8306,-4.8306,-4.8306,-4.8306,-4.8306,-4.8306,-4.8306,-4.8306,-4.8306,-4.8325,-4.8568,-4.8692,-4.871,-4.8963,-4.853,-4.763,-4.6881,-4.5908,-4.4818,-4.4363,-4.405,-4.3927,-4.467,-4.4919,-4.4954,-4.5171,-4.5332,-4.5419,-4.5419,-4.5504,-4.5594,-4.5594,-4.5594,-4.5594,-4.5594,-4.5594,-4.5594,-4.5594,-4.5594,-4.5594,-4.5594,-4.5594,-4.5441,-4.4874,-4.4509,-4.3951,-4.2874,-4.22,-4.1508,-4.0631,-4.0496,-4.0496,-4.0496,-4.0496,-4.0496,-4.0496,-4.0035,-3.94,-3.8546,-3.768,-3.6808,-3.5981,-3.5654,-3.5515,-3.5562,-3.5626,-3.5716,-3.5834,-3.5921,-3.5974,-3.5996,-3.5996,-3.5996,-3.5996,-3.5996,-3.5996,-4.4801,-4.5388,-4.6159,-4.6947,-4.7168,-4.7351,-4.8141,-4.8306,-4.8306,-4.8251,-4.759,-4.7021,0.0,0.0,-4.6782,-4.6012,-4.6617,-4.7168,-4.7168,-4.7168,-4.7443,0.0,0.0,0.0,0.0,0.0,0.0,-4.8306,0.0,-4.8306,-4.8306,-4.8306,-4.8306,-4.8306,-4.8306,-4.8306,-4.8306,-4.8306,-4.8306,-4.8306,-4.8306,-4.8306,-4.8306,-4.8306,-4.8306,-4.8306,-4.8306,-4.8306,-4.8306,-4.8306,-4.8089,-4.7607,-4.6394,-4.5632,-4.5095,-4.3942,-4.3513,-4.3597,-4.4294,-4.4553,-4.4567,-4.4593,-4.4825,-4.5074,-4.5074,-4.5312,-4.5577,-4.5577,-4.5586,-4.5594,-4.5594,-4.5594,-4.5594,-4.5594,-4.5594,-4.5594,-4.5594,-4.5594,-4.5594,-4.5594,-4.4893,-4.4297,-4.4297,-4.2912,-4.1527,-4.0689,-4.0535,-4.0496,-4.0496,-4.0496,-4.0496,-4.0496,-4.0496,-4.0169,-3.9381,-3.8546,-3.768,-3.675,-3.5981,-3.5538,-3.55,-3.5568,-3.563,-3.5696,-3.5834,-3.5921,-3.5996,-3.5996,-3.5996,-3.5996,-3.5996,-3.5996,-4.6159,-4.6636,-4.6984,-4.7791,-4.7975,-4.8048,-4.8251,-4.8306,-4.8141,-4.7516,-4.6783,-4.603,-4.5406,0.0,0.0,-4.592,-4.7076,0.0,-4.7975,-4.7975,0.0,-4.8288,0.0,-4.8306,-4.8306,-4.8306,0.0,0.0,-4.8306,-4.8306,-4.8306,-4.8306,-4.8306,-4.8306,-4.8306,-4.8306,-4.8306,-4.8306,-4.8306,-4.8306,-4.8306,-4.8306,-4.8306,-4.8306,-4.8306,-4.8306,-4.8306,-4.8306,-4.8306,-4.8306,-4.8235,-4.8016,-4.6769,-4.6052,-4.5564,-4.4323,-4.371,-4.3531,-4.3712,-4.3943,-4.419,-4.4501,-4.4644,-4.4739,-4.4739,-4.4954,-4.5222,-4.5222,-4.541,-4.5594,-4.5594,-4.5594,-4.5594,-4.5594,-4.5594,-4.5594,-4.5594,-4.5594,-4.5594,-4.5594,-4.4893,-4.4297,-4.4297,-4.2912,-4.1712,-4.1508,-4.0912,-4.0496,-4.0496,-4.0496,-4.0496,-4.0496,-4.0496,-4.0169,-3.9381,-3.9111,-3.8315,-3.6788,-3.65,-3.6135,-3.5519,-3.5568,-3.5606,-3.5621,-3.5811,-3.5908,-3.5938,-3.5974,-3.5996,-3.5996,-3.5996,-3.5996,-4.6764,-4.7351,-4.7736,-4.8196,-4.8306,-4.8214,-4.7846,-4.7755,-4.7535,-4.6746,-4.5938,0.0,-4.4764,0.0,0.0,0.0,0.0,0.0,-4.7755,-4.7755,-4.7901,0.0,-4.8306,0.0,-4.8306,-4.8306,-4.8306,0.0,-4.8306,-4.8306,-4.8306,-4.8306,-4.8306,-4.8306,-4.8306,-4.8306,-4.8306,-4.8306,-4.8306,-4.8306,-4.8306,-4.8306,-4.8306,-4.8306,-4.8306,-4.8306,0.0,-4.8306,-4.8306,-4.8306,-4.8306,-4.8197,-4.7129,-4.6375,-4.5773,-4.469,-4.3957,-4.3515,-4.3515,-4.3612,-4.382,-4.4035,-4.4209,-4.435,-4.435,-4.4593,-4.4884,-4.4884,-4.5011,-4.5201,-4.5342,-4.539,-4.5419,-4.5568,-4.5594,-4.5594,-4.5594,-4.5594,-4.5594,-4.5594,-4.521,-4.4739,-4.4374,-4.3528,-4.2662,-4.1904,-4.1373,-4.0931,-4.0554,-4.0496,-4.0496,-4.0496,-4.0496,-4.0323,-3.9881,-3.9496,-3.8719,-3.7353,-3.6904,-3.6346,-3.5538,-3.554,-3.556,-3.5605,-3.5702,-3.5811,-3.5901,-3.5944,-3.5973,-3.5996,-3.5996,-3.5996,-4.7039,-4.7755,-4.8306,-4.8306,-4.8306,-4.8104,-4.7278,-4.7094,-4.6837,-4.5938,0.0,-4.4654,-4.4562,-4.5204,-4.5553,-4.4966,0.0,-4.7131,-4.7241,-4.7259,-4.7516,-4.8233,-4.8306,-4.8306,-4.8306,-4.8306,-4.8306,-4.8306,-4.8306,-4.8306,-4.8306,-4.8306,-4.8306,-4.8306,-4.8306,-4.8306,-4.8306,-4.8306,-4.8306,-4.8306,-4.8306,-4.8306,-4.8306,-4.8306,-4.8306,-4.8306,0.0,0.0,-4.8306,-4.8306,-4.8306,-4.8233,-4.7406,-4.6654,-4.5957,-4.5057,-4.4268,-4.3626,-4.3551,-4.3515,-4.3515,-4.3515,-4.3693,-4.3924,-4.3924,-4.4223,-4.4514,-4.4514,-4.4553,-4.4676,-4.4954,-4.5063,-4.518,-4.5457,-4.5568,-4.5594,-4.5594,-4.5594,-4.5594,-4.5594,-4.5594,-4.5364,-4.4605,-4.4374,-4.3778,-4.222,-4.1865,-4.1489,-4.0612,-4.0496,-4.0496,-4.0496,-4.0496,-4.0496,-4.0496,-3.9861,-3.9092,-3.8238,-3.7353,-3.65,-3.5692,-3.5558,-3.5534,-3.5599,-3.56,-3.5693,-3.5862,-3.5896,-3.5939,-3.5995,-3.5996,-3.5996,-4.7884,-4.8196,-4.8306,-4.8306,-4.8306,-4.8104,-4.7278,-4.7094,0.0,0.0,0.0,-4.4507,-4.3828,-4.4378,0.0,-4.5608,0.0,0.0,0.0,0.0,-4.8141,0.0,0.0,0.0,0.0,0.0,0.0,0.0,0.0,-4.8306,-4.8306,-4.8306,-4.8306,-4.8306,-4.8306,-4.8306,-4.8306,-4.8306,-4.8306,-4.8306,-4.8306,-4.8306,-4.8306,-4.8306,-4.8306,-4.8306,-4.8306,0.0,-4.8306,-4.8306,-4.8306,-4.8233,-4.7406,-4.7003,-4.6709,-4.5241,-4.4617,-4.4397,-4.3718,-4.3515,-4.3515,-4.3515,-4.3548,-4.358,-4.358,-4.3836,-4.4102,-4.4102,-4.4332,-4.4606,-4.467,-4.4896,-4.5107,-4.518,-4.54,-4.5594,-4.5594,-4.5594,-4.5594,-4.5594,-4.5594,-4.5556,-4.5402,-4.4778,-4.397,-4.3028,-4.2258,-4.1489,-4.0612,-4.0496,-4.0496,-4.0496,-4.0496,-4.0496,-4.0496,-4.0362,-3.9938,-3.913,-3.8257,-3.7392,-3.6519,-3.5846,-3.5514,-3.5528,-3.5566,-3.5611,-3.5659,-3.5816,-3.5907,-3.5914,-3.5974,-3.5996,-4.7976,-4.8306,-4.8306,-4.8306,-4.8306,-4.7994,-4.6764,0.0,0.0,0.0,0.0,-4.3956,-4.357,0.0,0.0,0.0,0.0,0.0,0.0,0.0,0.0,0.0,0.0,0.0,0.0,0.0,0.0,0.0,0.0,-4.8306,-4.8306,-4.8306,-4.8306,-4.8306,-4.8306,-4.8306,-4.8306,-4.8306,-4.8306,-4.8306,-4.8306,-4.8306,-4.8306,-4.8306,-4.8306,-4.8306,-4.8306,0.0,-4.8306,-4.8306,-4.8306,-4.8269,-4.7865,-4.7461,-4.6947,-4.5773,-4.5057,-4.458,-4.3773,-4.3515,-4.3515,-4.3515,-4.3515,-4.3515,-4.3515,-4.3595,-4.3742,-4.3742,-4.3884,-4.4065,-4.4233,-4.4414,-4.4587,-4.4781,-4.5096,-4.539,-4.5568,-4.5457,-4.54,-4.5568,-4.5448,-4.54,-4.5568,-4.5248,-4.4547,-4.3297,-4.2739,-4.2008,-4.0669,-4.0496,-4.0496,-4.0496,-4.0496,-4.0496,-4.0496,-4.0496,-4.0169,-3.9361,-3.8911,-3.8084,-3.675,-3.6327,-3.5923,-3.5519,-3.5528,-3.5568,-3.5611,-3.5706,-3.58,-3.5901,-3.5922,-3.5972,-4.7921,-4.8306,-4.8306,-4.8306,-4.8177,-4.7682,-4.6232,-4.5773,0.0,0.0,-4.3515,-4.3515,-4.3515,0.0,0.0,0.0,0.0,0.0,0.0,0.0,0.0,0.0,0.0,0.0,0.0,0.0,0.0,0.0,0.0,0.0,-4.8306,-4.8306,-4.8306,-4.8306,-4.8306,-4.8306,-4.8306,-4.8306,-4.8306,-4.8306,-4.8306,-4.8306,-4.8306,-4.8306,-4.8306,-4.8306,-4.8306,0.0,0.0,-4.8306,-4.8306,-4.8306,-4.8306,-4.7901,-4.7241,-4.6269,-4.5498,-4.4819,-4.3828,-4.3515,-4.3515,-4.3515,-4.3515,-4.3515,-4.3515,-4.3515,-4.3515,-4.3515,-4.3515,-4.3546,-4.3818,-4.394,-4.4102,-4.4501,-4.4812,-4.5074,-4.5332,-4.5191,-4.5074,-4.5342,-4.5232,-4.5191,-4.5438,-4.5559,-4.5037,-4.3355,-4.3104,-4.247,-4.0727,-4.0496,-4.0496,-4.0496,-4.0496,-4.0496,-4.0496,-4.0496,-4.0227,-3.9611,-3.94,-3.8604,-3.7038,-3.6788,-3.6327,-3.5519,-3.55,-3.5534,-3.5582,-3.5595,-3.567,-3.5846,-3.5873,-3.5939,-4.8067,-4.8306,-4.8306,-4.8306,-4.7736,-4.6966,-4.6104,0.0,0.0,-4.368,-4.3515,-4.3515,-4.3515,-4.3552,-4.3846,0.0,0.0,0.0,0.0,0.0,0.0,0.0,0.0,0.0,0.0,0.0,0.0,0.0,0.0,0.0,-4.8306,-4.8306,-4.8306,-4.8306,-4.8306,-4.8306,-4.8306,-4.8306,-4.8306,-4.8306,-4.8306,-4.8306,-4.8306,-4.8306,-4.8306,-4.8306,-4.8306,0.0,0.0,-4.8306,-4.8306,-4.8306,-4.8306,-4.8251,-4.8012,-4.6471,-4.5847,-4.5571,-4.403,-4.3515,-4.3515,-4.3515,-4.3515,-4.3515,-4.3515,-4.3515,-4.3515,-4.3515,-4.3515,-4.3515,-4.3531,-4.3772,-4.4102,-4.4501,-4.4618,-4.4644,-4.4701,-4.4657,-4.4663,-4.4701,-4.4908,-4.5107,-4.5129,-4.54,-4.5037,-4.3355,-4.3104,-4.247,-4.0727,-4.0496,-4.0496,-4.0496,-4.0496,-4.0496,-4.0496,-4.0496,-4.0477,-4.04,-3.9708,-3.8873,-3.7911,-3.7123,-3.6327,-3.5519,-3.55,-3.5507,-3.5508,-3.5566,-3.5601,-3.5631,-3.5814,-3.5905,-4.7223,-4.7571,-4.7571,-4.7571,-4.7333,-4.6764,-4.548,0.0,-4.447,-4.3663,-4.3515,-4.3515,-4.3515,-4.3515,-4.3606,0.0,0.0,0.0,0.0,0.0,0.0,0.0,0.0,0.0,0.0,0.0,0.0,0.0,0.0,0.0,-4.8306,-4.8306,-4.8306,-4.8306,-4.8306,-4.8306,-4.8306,-4.8306,-4.8306,-4.8306,-4.8306,-4.8306,-4.8306,-4.8306,-4.8306,-4.8306,-4.8306,0.0,0.0,-4.8306,-4.8306,-4.8306,-4.8306,-4.8012,-4.7443,-4.6305,-4.559,-4.5021,-4.3883,-4.3515,-4.3515,-4.3515,-4.3515,-4.3515,-4.3515,-4.3515,-4.3515,-4.3515,-4.3515,-4.3515,-4.3515,-4.3597,-4.3788,-4.4146,-4.4233,-4.4323,-4.454,-4.4419,-4.4304,-4.4553,-4.4508,-4.4503,-4.4757,-4.5085,-4.4728,-4.2996,-4.2933,-4.247,-4.0727,-4.0496,-4.0496,-4.0496,-4.0496,-4.0496,-4.0496,-4.0496,-4.0496,-4.0496,-4.0208,-3.9419,-3.8065,-3.768,-3.6873,-3.5538,-3.55,-3.55,-3.55,-3.5534,-3.5562,-3.5591,-3.567,-3.5791,-4.636,-4.6746,-4.6746,-4.6746,-4.6562,-4.6085,0.0,0.0,-4.4176,-4.3608,-4.3515,-4.3515,-4.3515,-4.3515,-4.3515,0.0,0.0,-4.4433,0.0,0.0,0.0,0.0,0.0,0.0,0.0,0.0,0.0,0.0,0.0,0.0,0.0,-4.8306,-4.8306,-4.8306,-4.8306,-4.8306,-4.8306,-4.8306,-4.8306,-4.8306,-4.8306,-4.8306,-4.8306,-4.8306,-4.8306,-4.8306,0.0,0.0,0.0,-4.8306,-4.8306,-4.8306,-4.8306,-4.781,-4.7003,-4.6195,-4.5388,-4.458,-4.3773,-4.3515,-4.3515,-4.3515,-4.3515,-4.3515,-4.3515,-4.3515,-4.3515,-4.3515,-4.3515,-4.3515,-4.3515,-4.3515,-4.3546,-4.3804,-4.3849,-4.3927,-4.4209,-4.4046,-4.3943,-4.4209,-4.4136,-4.4087,-4.4359,-4.472,-4.4482,-4.3082,-4.29,-4.2387,-4.0937,-4.0592,-4.0473,-4.0389,-4.0457,-4.0496,-4.0496,-4.0496,-4.0496,-4.0496,-4.0496,-3.9746,-3.8065,-3.8007,-3.7219,-3.5538,-3.55,-3.55,-3.55,-3.55,-3.5528,-3.5566,-3.559,-3.5718,-4.5681,-4.5902,-4.5902,-4.5902,-4.5314,-4.4709,0.0,0.0,-4.3515,-4.3515,-4.3515,-4.3515,-4.3515,-4.3515,-4.3515,-4.3515,-4.3515,0.0,0.0,0.0,0.0,0.0,0.0,0.0,0.0,0.0,0.0,0.0,0.0,0.0,0.0,-4.8306,-4.8306,-4.8306,-4.8306,-4.8306,-4.8306,-4.8306,-4.8306,-4.8306,-4.8306,-4.8306,-4.8306,-4.8306,-4.8306,0.0,0.0,0.0,0.0,-4.8306,-4.8306,-4.8306,-4.8306,-4.781,-4.7003,-4.6195,-4.5388,-4.458,-4.3773,-4.3515,-4.3515,-4.3515,-4.3515,-4.3515,-4.3515,-4.3515,-4.3515,-4.3515,-4.3515,-4.3515,-4.3515,-4.3515,-4.3515,-4.3496,-4.3515,-4.3515,-4.3496,-4.3515,-4.3515,-4.3496,-4.3772,-4.4001,-4.4016,-4.4332,-4.4423,-4.3869,-4.3065,-4.2207,-4.1388,-4.0818,-4.0389,-4.0129,-4.0347,-4.0496,-4.0496,-4.0496,-4.0496,-4.0496,-4.0496,-3.9746,-3.8065,-3.8007,-3.7219,-3.5538,-3.55,-3.55,-3.55,-3.55,-3.55,-3.5507,-3.5579,-3.5718,-4.4856,-4.5094,-4.5094,-4.5094,-4.4892,-4.4562,-4.4011,0.0,-4.3515,-4.3515,-4.3515,-4.3515,-4.3515,-4.3515,-4.3515,-4.3515,-4.3515,0.0,0.0,0.0,0.0,0.0,0.0,0.0,0.0,0.0,0.0,0.0,0.0,0.0,0.0,-4.8306,-4.8306,-4.8306,-4.8306,-4.8306,-4.8306,-4.8306,-4.8306,-4.8306,-4.8306,-4.8306,-4.8306,-4.8306,0.0,0.0,0.0,0.0,0.0,-4.8306,-4.8306,-4.8251,-4.7681,-4.7003,-4.6177,-4.5388,-4.458,-4.3828,-4.3589,-4.3515,-4.3515,-4.3515,-4.3515,-4.3515,-4.3515,-4.3515,-4.3515,-4.3515,-4.3515,-4.3515,-4.3515,-4.3515,-4.3515,-4.3515,-4.3515,-4.3515,-4.3515,-4.3515,-4.3515,-4.3515,-4.358,-4.3662,-4.3662,-4.3958,-4.3957,-4.3216,-4.2605,-4.193,-4.1067,-4.0323,-3.9934,-4.0091,-4.0177,-4.0304,-4.0481,-4.0496,-4.0496,-4.0496,-4.0496,-3.9746,-3.8065,-3.8007,-3.7219,-3.5538,-3.55,-3.55,-3.55,-3.55,-3.55,-3.5507,-3.5579,-3.5661,0.0,-4.425,-4.425,-4.425,-4.425,0.0,0.0,0.0,-4.3515,-4.3515,-4.3515,-4.3515,-4.3515,-4.3515,-4.3515,-4.3515,-4.3515,0.0,0.0,0.0,0.0,0.0,0.0,0.0,0.0,0.0,0.0,0.0,0.0,0.0,0.0,-4.8306,-4.8306,-4.8306,-4.8306,-4.8306,-4.8306,-4.8306,-4.8306,-4.8306,-4.8306,-4.8306,-4.8306,-4.8306,0.0,0.0,0.0,0.0,0.0,-4.8306,-4.8306,-4.8233,-4.7406,-4.6599,-4.5792,-4.5002,-4.4195,-4.3515,-4.3515,-4.3515,-4.3515,-4.3515,-4.3515,-4.3515,-4.3515,-4.3515,-4.3515,-4.3515,-4.3515,-4.3515,-4.3515,-4.3515,-4.3515,-4.3515,-4.3515,-4.3515,-4.3515,-4.3515,-4.3515,-4.3515,-4.3515,-4.3515,-4.3515,-4.366,-4.359,-4.291,-4.23,-4.1605,-4.076,-4.0044,-3.9634,-3.9701,-3.9943,-4.0167,-4.0339,-4.0449,-4.0496,-4.0496,-4.0496,-3.9746,-3.8065,-3.8007,-3.7219,-3.5538,-3.55,-3.55,-3.55,-3.55,-3.55,-3.5507,-3.5579,-3.5616,0.0,-4.3515,0.0,0.0,0.0,0.0,0.0,0.0,0.0,-4.3515,-4.3515,-4.3515,-4.3515,-4.3515,-4.3515,-4.3515,-4.3515,0.0,0.0,0.0,0.0,0.0,0.0,0.0,0.0,0.0,0.0,0.0,0.0,0.0,0.0,-4.8306,-4.8306,-4.8306,-4.8306,-4.8306,-4.8306,-4.8306,-4.8306,-4.8306,-4.8306,-4.8306,-4.8306,-4.8306,0.0,0.0,0.0,0.0,0.0,-4.8306,-4.8269,-4.8141,-4.7333,-4.6526,-4.5718,-4.4911,-4.414,-4.3515,-4.3515,-4.3515,-4.3515,-4.3515,-4.3515,-4.3515,-4.3515,-4.3515,-4.3515,-4.3515,-4.3515,-4.3515,-4.3515,-4.3515,-4.3515,-4.3515,-4.3515,-4.3515,-4.3515,-4.3515,-4.3515,-4.3515,-4.3515,-4.3515,-4.3515,-4.3515,-4.3338,-4.2843,-4.2073,-4.1272,-4.0463,-3.9883,-3.9414,-3.9139,-3.9656,-4.0032,-4.0071,-4.0339,-4.0496,-4.0496,-4.0496,-3.9746,-3.8065,-3.8007,-3.7219,-3.5538,-3.55,-3.55,-3.55,-3.55,-3.55,-3.5507,-3.5568,-3.56,-4.3515,0.0,-4.3515,-4.3515,-4.3515,-4.3515,0.0,0.0,0.0,0.0,0.0,0.0,0.0,-4.3515,-4.3515,-4.3515,-4.3515,0.0,0.0,0.0,0.0,0.0,0.0,0.0,0.0,0.0,0.0,0.0,0.0,0.0,0.0,-4.8306,-4.8306,-4.8306,-4.8306,-4.8306,-4.8306,-4.8306,-4.8306,-4.8306,-4.8306,-4.8306,-4.8306,-4.8306,0.0,0.0,0.0,0.0,-4.8306,-4.8306,-4.7938,-4.7296,-4.6507,-4.57,-4.4892,-4.4085,-4.3644,-4.3515,-4.3515,-4.3515,-4.3515,-4.3515,-4.3515,-4.3515,-4.3515,-4.3515,-4.3515,-4.3515,-4.3515,-4.3515,-4.3515,-4.3515,-4.3515,-4.3515,-4.3515,-4.3515,-4.3515,-4.3515,-4.3515,-4.3515,-4.3515,-4.3515,-4.3515,-4.3515,-4.3255,-4.2527,-4.1735,-4.0925,-4.0111,-3.9376,-3.8952,-3.9085,-3.9238,-3.9426,-3.9709,-4.0203,-4.0496,-4.0496,-4.0496,-3.9746,-3.8065,-3.8007,-3.7219,-3.5538,-3.55,-3.55,-3.55,-3.55,-3.55,-3.55,-3.5528,-3.5558,-4.3515,-4.3515,-4.3515,-4.3515,-4.3515,-4.3515,-4.3515,0.0,0.0,0.0,0.0,0.0,0.0,0.0,0.0,0.0,0.0,0.0,0.0,0.0,0.0,0.0,0.0,0.0,0.0,0.0,0.0,0.0,0.0,0.0,0.0,-4.8306,-4.8306,-4.8306,-4.8306,-4.8306,-4.8306,-4.8306,-4.8306,-4.8306,-4.8306,-4.8306,-4.8306,-4.8306,-4.8306,0.0,0.0,0.0,-4.8306,-4.8306,-4.7828,-4.7021,-4.6214,-4.5406,-4.4617,-4.3791,-4.3515,-4.3515,-4.3515,-4.3515,-4.3515,-4.3515,-4.3515,-4.3515,-4.3515,-4.3515,-4.3515,-4.3515,-4.3515,-4.3515,-4.3515,-4.3515,-4.3515,-4.3515,-4.3515,-4.3515,-4.3515,-4.3515,-4.3515,-4.3515,-4.3515,-4.3515,-4.3515,-4.3515,-4.3094,-4.1937,-4.137,-4.0689,-3.9496,-3.8964,-3.8747,-3.8894,-3.9022,-3.916,-3.9352,-3.9802,-4.0148,-4.0313,-4.0422,-3.9746,-3.8065,-3.8007,-3.7219,-3.5538,-3.55,-3.55,-3.55,-3.55,-3.55,-3.55,-3.55,-3.5515,-4.3515,-4.3515,-4.3515,-4.3515,-4.3515,-4.3515,-4.3515,0.0,0.0,0.0,0.0,0.0,0.0,0.0,0.0,0.0,0.0,0.0,0.0,0.0,0.0,0.0,0.0,0.0,0.0,0.0,0.0,0.0,0.0,0.0,0.0,-4.8306,-4.8306,-4.8306,-4.8306,-4.8306,-4.8306,-4.8306,-4.8306,-4.8306,-4.8306,-4.8306,-4.8306,-4.8306,-4.8306,0.0,0.0,0.0,-4.8306,-4.8306,-4.7736,-4.6856,-4.6177,-4.5333,-4.4433,-4.3736,-4.3515,-4.3515,-4.3515,-4.3515,-4.3515,-4.3515,-4.3515,-4.3515,-4.3515,-4.3515,-4.3515,-4.3515,-4.3515,-4.3515,-4.3515,-4.3515,-4.3515,-4.3515,-4.3515,-4.3515,-4.3515,-4.3515,-4.3515,-4.3515,-4.3515,-4.3515,-4.3515,-4.3515,-4.2947,-4.1334,-4.1095,-4.0508,-3.8909,-3.8707,-3.8707,-3.8707,-3.8894,-3.9036,-3.9036,-3.9346,-3.9645,-3.9922,-4.0258,-3.9707,-3.8065,-3.7757,-3.6949,-3.5538,-3.55,-3.55,-3.55,-3.55,-3.55,-3.55,-3.55,-3.55,-4.3515,-4.3515,-4.3515,-4.3515,-4.3515,-4.3515,-4.3515,0.0,0.0,0.0,0.0,0.0,0.0,0.0,0.0,0.0,0.0,0.0,0.0,0.0,0.0,0.0,0.0,0.0,0.0,0.0,0.0,0.0,0.0,0.0,0.0,0.0,-4.8306,-4.8306,-4.8306,-4.8306,-4.8306,-4.8306,-4.8306,-4.8306,-4.8306,-4.8306,-4.8306,-4.8306,-4.8306,0.0,0.0,-4.8306,-4.8306,-4.8306,-4.7425,-4.6067,-4.5957,-4.4984,-4.3663,-4.3551,-4.3515,-4.3515,-4.3515,-4.3515,-4.3515,-4.3515,-4.3515,-4.3515,-4.3515,-4.3515,-4.3515,-4.3515,-4.3515,-4.3515,-4.3515,-4.3515,-4.3515,-4.3515,-4.3515,-4.3515,-4.3515,-4.3515,-4.3515,-4.3515,-4.3515,-4.3515,-4.3515,-4.3515,-4.2947,-4.1334,-4.1095,-4.0508,-3.8909,-3.8707,-3.8707,-3.8707,-3.875,-3.8762,-3.8762,-3.9013,-3.9199,-3.9238,-3.9829,-3.9503,-3.8058,-3.6635,-3.575,-3.5519,-3.55,-3.55,-3.55,-3.55,-3.55,-3.55,-3.55,-3.55,-4.3515,-4.3515,-4.3515,-4.3515,-4.3515,-4.3515,0.0,0.0,0.0,0.0,0.0,0.0,0.0,0.0,0.0,0.0,0.0,0.0,0.0,0.0,0.0,0.0,0.0,0.0,0.0,0.0,0.0,0.0,0.0,0.0,0.0,0.0,-4.8306,-4.8306,-4.8306,-4.8306,-4.8306,-4.8306,-4.8306,-4.8306,-4.8306,-4.8306,-4.8306,-4.8306,-4.8306,-4.8306,0.0,-4.8306,-4.8269,-4.7828,-4.6966,-4.5865,-4.5424,-4.4525,-4.3515,-4.3515,-4.3515,-4.3515,-4.3515,-4.3515,-4.3515,-4.3515,-4.3515,-4.3515,-4.3515,-4.3515,-4.3515,-4.3515,-4.3515,-4.3515,-4.3515,-4.3515,-4.3515,-4.3515,-4.3515,-4.3515,-4.3515,-4.3515,-4.3515,-4.3515,-4.3515,-4.3515,-4.3515,-4.3515,-4.2947,-4.1334,-4.1095,-4.0508,-3.8909,-3.8707,-3.8707,-3.8707,-3.8707,-3.8707,-3.8707,-3.88,-3.9095,-3.9611,-3.9038,-3.8484,-3.8019,-3.6385,-3.55,-3.55,-3.55,-3.55,-3.55,-3.55,-3.55,-3.55,-3.55,-3.55,-4.3515,-4.3515,-4.3515,-4.3515,0.0,0.0,0.0,0.0,0.0,0.0,0.0,0.0,0.0,0.0,0.0,0.0,0.0,0.0,0.0,0.0,0.0,0.0,0.0,0.0,0.0,0.0,0.0,0.0,0.0,0.0,0.0,0.0,-4.8306,-4.8306,-4.8306,-4.8306,-4.8306,-4.8306,-4.8306,-4.8306,-4.8306,-4.8306,-4.8306,-4.8306,-4.8306,-4.8306,-4.8306,-4.8306,-4.8251,-4.7424,-4.6636,-4.581,-4.5021,-4.4213,-4.3515,-4.3515,-4.3515,-4.3515,-4.3515,-4.3515,-4.3515,-4.3515,-4.3515,-4.3515,-4.3515,-4.3515,-4.3515,-4.3515,-4.3515,-4.3515,-4.3515,-4.3515,-4.3515,-4.3515,-4.3515,-4.3515,-4.3515,-4.3515,-4.3515,-4.3515,-4.3515,-4.3515,-4.3515,-4.3515,-4.2947,-4.1334,-4.1095,-4.0508,-3.8909,-3.8707,-3.8707,-3.8707,-3.8707,-3.8707,-3.8707,-3.8707,-3.9041,-3.9827,-3.8326,-3.7517,-3.7784,-3.6193,-3.5327,-3.5417,-3.5417,-3.5439,-3.55,-3.55,-3.55,-3.55,-3.55,-3.55,-4.3515,-4.3515,-4.3515,-4.3515,-4.3515,0.0,-4.3515,-4.3515,0.0,-4.3515,0.0,0.0,0.0,0.0,0.0,0.0,0.0,0.0,0.0,0.0,0.0,0.0,0.0,0.0,0.0,0.0,0.0,0.0,0.0,0.0,0.0,0.0,0.0,-4.8306,-4.8306,-4.8306,-4.8306,-4.8306,-4.8306,-4.8306,-4.8306,-4.8306,-4.8306,-4.8306,-4.8306,-4.8306,-4.8306,-4.8306,-4.8251,-4.7424,-4.6636,-4.581,-4.5021,-4.4213,-4.3515,-4.3515,-4.3515,-4.3515,-4.3515,-4.3515,-4.3515,-4.3515,-4.3515,-4.3515,-4.3515,-4.3515,-4.3515,-4.3515,-4.3515,-4.3515,-4.3515,-4.3515,-4.3515,-4.3515,-4.3515,-4.3515,-4.3515,-4.3515,-4.3515,-4.3515,-4.3515,-4.3515,-4.3515,-4.3515,-4.2947,-4.1334,-4.1095,-4.0508,-3.8909,-3.8707,-3.8707,-3.8707,-3.8707,-3.8707,-3.8707,-3.8707,-3.8848,-3.9152,-3.7889,-3.7144,-3.7165,-3.5623,-3.486,-3.5122,-3.5122,-3.5239,-3.55,-3.55,-3.55,-3.55,-3.55,-3.55,-4.3515,-4.3515,-4.3515,-4.3515,-4.3515,0.0,0.0,-4.3515,-4.3515,-4.3515,-4.3515,0.0,0.0,0.0,0.0,0.0,0.0,0.0,0.0,0.0,0.0,0.0,0.0,0.0,0.0,0.0,0.0,0.0,0.0,0.0,0.0,0.0,0.0,-4.8306,-4.8306,-4.8306,-4.8306,-4.8306,-4.8306,-4.8306,-4.8306,-4.8306,-4.8306,-4.8306,-4.8306,-4.8306,-4.8306,-4.8012,-4.748,-4.6691,-4.5883,-4.5076,-4.4268,-4.3754,-4.3515,-4.3515,-4.3515,-4.3515,-4.3515,-4.3515,-4.3515,-4.3515,-4.3515,-4.3515,-4.3515,-4.3515,-4.3515,-4.3515,-4.3515,-4.3515,-4.3515,-4.3515,-4.3515,-4.3515,-4.3515,-4.3515,-4.3515,-4.3515,-4.3515,-4.3515,-4.3515,-4.3515,-4.3515,-4.3515,-4.2947,-4.1334,-4.1095,-4.0508,-3.8909,-3.8707,-3.8707,-3.8707,-3.8707,-3.8707,-3.8707,-3.8707,-3.8732,-3.8826,-3.7595,-3.6925,-3.709,-3.5543,-3.4744,-3.486,-3.5027,-3.5138,-3.5246,-3.5424,-3.55,-3.55,-3.55,-3.55,-4.3515,-4.3515,-4.3515,-4.3515,0.0,0.0,-4.3515,-4.3515,-4.3515,-4.3515,-4.3699,0.0,0.0,0.0,0.0,0.0,0.0,0.0,0.0,0.0,0.0,0.0,0.0,0.0,0.0,0.0,0.0,0.0,0.0,0.0,0.0,0.0,0.0,0.0,-4.8306,-4.8306,-4.8306,-4.8306,-4.8306,-4.8306,-4.8306,-4.8306,-4.8306,-4.8306,-4.8306,-4.8306,-4.8306,-4.7828,-4.7039,-4.6232,-4.5278,-4.4251,-4.3523,-4.325,-4.3232,-4.3032,-4.3069,-4.325,-4.325,-4.3357,-4.3515,-4.3515,-4.3515,-4.3515,-4.3515,-4.3515,-4.3515,-4.3515,-4.3515,-4.3515,-4.3515,-4.3515,-4.3515,-4.3515,-4.3515,-4.3515,-4.3515,-4.3515,-4.3515,-4.3515,-4.3515,-4.3515,-4.3515,-4.3277,-4.2653,-4.1297,-4.0875,-4.023,-3.8872,-3.8707,-3.8707,-3.8707,-3.8707,-3.8707,-3.8707,-3.8707,-3.8707,-3.8707,-3.7345,-3.6669,-3.6831,-3.527,-3.4472,-3.454,-3.4725,-3.4916,-3.5105,-3.5289,-3.5424,-3.55,-3.55,-3.55,-4.3515,-4.3515,-4.3515,0.0,0.0,0.0,-4.3515,-4.3515,-4.3515,-4.3515,0.0,0.0,0.0,0.0,0.0,0.0,0.0,0.0,0.0,0.0,0.0,0.0,0.0,0.0,0.0,0.0,0.0,0.0,0.0,0.0,0.0,0.0,0.0,0.0,-4.8306,-4.8306,-4.8306,-4.8306,-4.8287,-4.8287,-4.8287,-4.8287,-4.8306,-4.8306,-4.8306,-4.8306,-4.8306,-4.7828,-4.7021,-4.6214,-4.4929,-4.3444,-4.2902,-4.2711,-4.2616,-4.2021,-4.2183,-4.2692,-4.2692,-4.3032,-4.3479,-4.3479,-4.3497,-4.3515,-4.3515,-4.3515,-4.3515,-4.3515,-4.3497,-4.3479,-4.3515,-4.3497,-4.3479,-4.3515,-4.3515,-4.3515,-4.3515,-4.3515,-4.3515,-4.3515,-4.3515,-4.3515,-4.3515,-4.2818,-4.2029,-4.1224,-4.0414,-3.9606,-3.8799,-3.8707,-3.8707,-3.8707,-3.8707,-3.8707,-3.8707,-3.8707,-3.8707,-3.8707,-3.7184,-3.6303,-3.6303,-3.4688,-3.391,-3.4188,-3.42,-3.4492,-3.5096,-3.5096,-3.5231,-3.55,-3.55,-3.55,-4.3515,-4.3515,0.0,-4.3515,0.0,0.0,0.0,-4.3515,0.0,0.0,0.0,0.0,0.0,0.0,0.0,0.0,0.0,0.0,0.0,0.0,0.0,0.0,0.0,0.0,0.0,0.0,0.0,0.0,0.0,0.0,0.0,0.0,0.0,0.0,-4.8306,-4.8306,-4.8306,-4.8306,-4.8075,-4.7674,-4.7674,-4.7897,-4.8306,-4.8306,-4.8306,-4.8306,-4.8306,-4.7517,-4.6159,-4.4782,-4.3706,-4.292,-4.2769,-4.244,-4.2059,-4.1874,-4.1916,-4.208,-4.208,-4.2442,-4.2939,-4.2939,-4.3196,-4.3515,-4.3515,-4.3515,-4.3515,-4.3515,-4.3232,-4.3014,-4.341,-4.3214,-4.3032,-4.341,-4.3515,-4.3515,-4.3515,-4.3515,-4.3515,-4.3515,-4.3515,-4.3515,-4.3515,-4.2818,-4.2029,-4.1224,-4.0414,-3.9606,-3.8799,-3.8707,-3.8707,-3.8707,-3.8707,-3.8707,-3.8707,-3.8707,-3.8707,-3.8707,-3.7184,-3.6303,-3.6303,-3.4688,-3.3842,-3.3928,-3.4099,-3.4281,-3.4459,-3.4879,-3.5138,-3.5223,-3.5398,-3.55,-4.3515,-4.3515,0.0,-4.3515,-4.3515,-4.3515,-4.3515,0.0,0.0,0.0,0.0,0.0,0.0,0.0,0.0,0.0,0.0,0.0,0.0,0.0,0.0,0.0,0.0,0.0,0.0,0.0,0.0,0.0,0.0,0.0,0.0,0.0,0.0,0.0,-4.8172,-4.8306,-4.8306,-4.8055,-4.7756,-4.7385,-4.7128,-4.7176,-4.7554,-4.7554,-4.7554,-4.7518,-4.6884,-4.6047,-4.4983,-4.3448,-4.2638,-4.2322,-4.208,-4.175,-4.1424,-4.1196,-4.1263,-4.1446,-4.1446,-4.1853,-4.2342,-4.2342,-4.2714,-4.3178,-4.3178,-4.3321,-4.3463,-4.3232,-4.2939,-4.2713,-4.2791,-4.258,-4.2541,-4.3321,-4.3515,-4.3515,-4.3515,-4.3515,-4.3515,-4.3515,-4.3515,-4.3387,-4.3075,-4.2359,-4.1552,-4.0744,-3.9937,-3.9239,-3.8762,-3.8707,-3.8707,-3.8707,-3.8707,-3.8707,-3.8707,-3.8707,-3.8707,-3.8707,-3.7184,-3.6303,-3.6303,-3.4688,-3.3807,-3.3807,-3.3961,-3.4086,-3.42,-3.4574,-3.4879,-3.5105,-3.5273,-3.5391,-4.3515,0.0,0.0,-4.3515,-4.3515,0.0,-4.3427,0.0,0.0,0.0,0.0,0.0,0.0,0.0,0.0,0.0,0.0,0.0,0.0,0.0,0.0,0.0,0.0,0.0,0.0,0.0,0.0,0.0,0.0,0.0,0.0,0.0,0.0,0.0,-4.7838,-4.8114,-4.8114,-4.7593,-4.7281,0.0,-4.6618,-4.6288,-4.624,-4.6359,-4.6354,-4.6212,-4.4726,-4.3993,-4.3714,-4.2362,-4.1771,-4.1664,-4.111,-4.0856,-4.0756,-4.0286,-4.0417,-4.0827,-4.0827,-4.1223,-4.1707,-4.1707,-4.2121,-4.2616,-4.2616,-4.2958,-4.3232,-4.2751,-4.2577,-4.242,-4.1937,-4.175,-4.1982,-4.3087,-4.3392,-4.3444,-4.3497,-4.3515,-4.3515,-4.3515,-4.3515,-4.3239,-4.2433,-4.1627,-4.0802,-3.9918,-3.9166,-3.8707,-3.8707,-3.8707,-3.8707,-3.8707,-3.8707,-3.8707,-3.8707,-3.8707,-3.8707,-3.8707,-3.7184,-3.6303,-3.6303,-3.4688,-3.3807,-3.3807,-3.3807,-3.3928,-3.4152,-3.4188,-3.4481,-3.5016,-3.506,-3.5215,-4.3515,-4.3515,0.0,0.0,-4.3515,-4.3392,0.0,0.0,0.0,0.0,0.0,0.0,0.0,0.0,0.0,0.0,0.0,0.0,0.0,0.0,0.0,0.0,0.0,0.0,0.0,0.0,0.0,0.0,0.0,0.0,0.0,0.0,0.0,-4.6618,-4.6733,-4.6801,-4.6801,-4.6687,-4.6383,0.0,-4.5757,-4.5433,-4.5025,-4.5965,-4.6076,-4.548,-4.4519,-4.3757,-4.3106,-4.2193,-4.1512,-4.1087,-4.0949,-4.0631,-4.0262,-4.0146,-4.0154,-4.0262,-4.0262,-4.0625,-4.1087,-4.1087,-4.1512,-4.1979,-4.1979,-4.2083,-4.2144,-4.2021,-4.1643,-4.138,-4.1707,-4.1446,-4.1273,-4.1982,-4.2521,-4.2976,-4.341,-4.3515,-4.3515,-4.3515,-4.3515,-4.3239,-4.2433,-4.1627,-4.06,-3.9166,-3.8817,-3.8707,-3.8707,-3.8707,-3.8707,-3.8707,-3.8707,-3.8707,-3.8707,-3.8707,-3.8707,-3.8707,-3.7184,-3.6303,-3.6303,-3.4688,-3.3807,-3.3807,-3.3807,-3.3829,-3.3889,-3.4099,-3.4258,-3.4405,-3.4889,-3.5008,-4.3515,0.0,0.0,-4.3515,0.0,0.0,0.0,0.0,0.0,0.0,0.0,0.0,0.0,0.0,0.0,0.0,0.0,0.0,0.0,0.0,0.0,0.0,0.0,0.0,0.0,0.0,0.0,0.0,0.0,0.0,0.0,-4.5808,-4.5965,-4.5965,-4.624,-4.6407,-4.6407,-4.6094,-4.5808,-4.5511,-4.5205,-4.4906,-4.4626,-4.5258,-4.5072,-4.4272,-4.3534,-4.2764,-4.1923,-4.1261,-4.0797,-4.0521,-4.0521,-4.036,-4.0096,-4.0096,-4.0096,-4.0096,-4.0096,-4.0286,-4.0521,-4.0521,-4.0897,-4.138,-4.138,-4.1578,-4.1729,-4.1446,-4.1155,-4.0903,-4.0984,-4.0767,-4.0672,-4.1223,-4.2059,-4.2788,-4.305,-4.3124,-4.3196,-4.3444,-4.2957,-4.2339,-4.1796,-4.0744,-3.968,-3.8836,-3.8707,-3.8707,-3.8707,-3.8707,-3.8707,-3.8707,-3.8707,-3.8707,-3.8707,-3.8707,-3.8707,-3.8707,-3.7184,-3.6303,-3.6303,-3.4688,-3.3807,-3.3807,-3.3807,-3.3807,-3.3807,-3.3935,-3.4062,-3.42,-3.4513,-3.4685,-4.3321,0.0,-4.3303,-4.3105,-4.3123,0.0,0.0,0.0,0.0,0.0,0.0,0.0,0.0,0.0,0.0,0.0,0.0,0.0,0.0,0.0,0.0,0.0,0.0,0.0,0.0,0.0,0.0,0.0,0.0,0.0,-4.4615,-4.5062,-4.5346,-4.5346,-4.5833,-4.6088,-4.6088,-4.5597,-4.5346,-4.5346,-4.4841,-4.4615,-4.4615,-4.4479,-4.3914,-4.2994,-4.2371,-4.1597,-4.0726,-4.0286,-4.0096,-4.0096,-4.0096,-4.0096,-4.0096,-4.0096,-4.0096,-4.0096,-4.0096,-4.0096,-4.0096,-4.0096,-4.0417,-4.0756,-4.0756,-4.111,-4.1402,-4.0897,-4.0756,-4.0655,-4.0229,-4.0096,-4.0204,-4.0655,-4.1595,-4.242,-4.2519,-4.2539,-4.2639,-4.2959,-4.1942,-4.0926,-4.0681,-3.9483,-3.853,-3.8449,-3.8515,-3.8562,-3.8562,-3.8643,-3.8707,-3.8707,-3.8707,-3.8707,-3.8707,-3.8707,-3.8707,-3.8707,-3.7184,-3.6303,-3.6303,-3.4688,-3.3807,-3.3807,-3.3807,-3.3807,-3.3807,-3.3807,-3.3897,-3.4135,-3.4183,-3.4323,0.0,0.0,-4.2559,0.0,-4.1625,0.0,0.0,0.0,0.0,0.0,0.0,0.0,0.0,0.0,0.0,0.0,0.0,0.0,0.0,0.0,0.0,0.0,0.0,0.0,0.0,0.0,0.0,0.0,0.0,0.0,-4.4615,-4.4682,-4.472,-4.472,-4.4786,-4.4841,-4.4841,-4.4759,-4.472,-4.472,-4.4654,-4.4615,-4.4581,-4.3876,-4.3152,-4.2368,-4.1679,-4.09,-4.0204,-4.0121,-4.0096,-4.0096,-4.0096,-4.0096,-4.0096,-4.0096,-4.0096,-4.0096,-4.0096,-4.0096,-4.0096,-4.0096,-4.0146,-4.0204,-4.0204,-4.0254,-4.0311,-4.0229,-4.0204,-4.0179,-4.0121,-4.0096,-4.0121,-4.0179,-4.0679,-4.1273,-4.181,-4.1916,-4.1745,-4.1192,-4.018,-3.9266,-3.8843,-3.8331,-3.7877,-3.7469,-3.7755,-3.8015,-3.8015,-3.8415,-3.8707,-3.8707,-3.8707,-3.8707,-3.8707,-3.8707,-3.8707,-3.8707,-3.7184,-3.6303,-3.6303,-3.4688,-3.3807,-3.3807,-3.3807,-3.3807,-3.3807,-3.3807,-3.3815,-3.3868,-3.4086,-3.4105,-4.2121,-4.2183,-4.208,0.0,0.0,0.0,0.0,0.0,0.0,0.0,0.0,0.0,0.0,0.0,0.0,0.0,0.0,0.0,0.0,0.0,0.0,0.0,0.0,0.0,0.0,0.0,0.0,0.0,0.0,-4.4615,-4.4615,-4.4615,-4.4615,-4.4615,-4.4615,-4.4615,-4.4615,-4.4615,-4.4615,-4.4615,-4.4615,-4.435,-4.391,-4.3132,-4.2608,-4.2252,-4.1525,-4.0781,-4.0096,-4.0096,-4.0096,-4.0096,-4.0096,-4.0096,-4.0096,-4.0096,-4.0096,-4.0096,-4.0096,-4.0096,-4.0096,-4.0096,-4.0096,-4.0096,-4.0096,-4.0096,-4.0096,-4.0096,-4.0096,-4.0096,-4.0096,-4.0096,-4.0096,-4.0096,-4.0286,-4.0521,-4.0791,-4.1082,-4.0923,-3.9738,-3.9067,-3.8504,-3.7832,-3.7609,-3.7433,-3.7229,-3.7596,-3.7893,-3.7893,-3.8366,-3.8707,-3.8707,-3.8707,-3.8707,-3.8707,-3.8707,-3.8505,-3.8046,-3.6927,-3.6083,-3.5591,-3.4431,-3.3807,-3.3807,-3.3807,-3.3807,-3.3807,-3.3807,-3.3807,-3.3788,-3.3928,-3.3915,0.0,0.0,-4.1534,-4.1397,0.0,0.0,0.0,0.0,0.0,0.0,0.0,0.0,0.0,0.0,0.0,0.0,0.0,0.0,0.0,0.0,0.0,0.0,0.0,0.0,0.0,0.0,0.0,0.0,0.0,-4.4615,-4.4615,-4.4615,-4.4615,-4.4615,-4.4615,-4.4615,-4.4615,-4.4615,-4.4615,-4.4615,-4.4615,-4.4181,-4.3358,-4.2642,-4.2185,-4.1965,-4.1238,-4.0595,-4.0096,-4.0096,-4.0096,-4.0096,-4.0096,-4.0096,-4.0096,-4.0096,-4.0096,-4.0096,-4.0096,-4.0096,-4.0096,-4.0096,-4.0096,-4.0096,-4.0096,-4.0096,-4.0096,-4.0096,-4.0096,-4.0096,-4.0096,-4.0096,-4.0096,-4.0096,-4.0096,-4.0045,-3.9859,-3.999,-3.9738,-3.8407,-3.8021,-3.7666,-3.693,-3.6921,-3.6943,-3.6805,-3.7193,-3.756,-3.7702,-3.8167,-3.8515,-3.8515,-3.8627,-3.8643,-3.8496,-3.8627,-3.8358,-3.7547,-3.6725,-3.5917,-3.5041,-3.4215,-3.3807,-3.3807,-3.3807,-3.3807,-3.3807,-3.3807,-3.3807,-3.3807,-3.3807,-3.3807,0.0,-4.0552,0.0,0.0,0.0,0.0,0.0,0.0,0.0,0.0,0.0,0.0,0.0,0.0,0.0,0.0,0.0,0.0,0.0,0.0,0.0,0.0,0.0,0.0,0.0,0.0,0.0,0.0,0.0,-4.4615,-4.4615,-4.4615,-4.4615,-4.4615,-4.4615,-4.4615,-4.4615,-4.4615,-4.4615,-4.4615,-4.4615,-4.4181,-4.3358,-4.2642,-4.1914,-4.1221,-4.0485,-4.0146,-4.0096,-4.0096,-4.0096,-4.0096,-4.0096,-4.0096,-4.0096,-4.0096,-4.0096,-4.0096,-4.0096,-4.0096,-4.0096,-4.0096,-4.0096,-4.0096,-4.0096,-4.0096,-4.0096,-4.0096,-4.0096,-4.0096,-4.0096,-4.0096,-4.0096,-4.0096,-4.0096,-3.991,-3.9191,-3.8522,-3.7835,-3.7045,-3.6676,-3.6322,-3.5783,-3.6097,-3.6266,-3.5761,-3.6139,-3.6664,-3.7154,-3.7649,-3.7946,-3.7946,-3.8399,-3.8496,-3.798,-3.8399,-3.8358,-3.7547,-3.6725,-3.5917,-3.5041,-3.4215,-3.3807,-3.3807,-3.3807,-3.3807,-3.3807,-3.3807,-3.3807,-3.3807,-3.3807,-3.3807,0.0,0.0,0.0,0.0,0.0,0.0,0.0,0.0,0.0,0.0,0.0,0.0,0.0,0.0,0.0,0.0,0.0,0.0,0.0,0.0,0.0,0.0,0.0,0.0,0.0,0.0,0.0,0.0,0.0,0.0,-4.4615,-4.4615,-4.4615,-4.4615,-4.4615,-4.4615,-4.4615,-4.4615,-4.4615,-4.4598,-4.4079,-4.3436,-4.2675,-4.1931,-4.1187,-4.0485,-4.0214,-4.0096,-4.0096,-4.0096,-4.0096,-4.0096,-4.0096,-4.0096,-4.0096,-4.0096,-4.0096,-4.0096,-4.0096,-4.0096,-4.0096,-4.0096,-4.0096,-4.0096,-4.0096,-4.0096,-4.0096,-4.0096,-4.0096,-4.0096,-4.0096,-4.0096,-4.0096,-4.0096,-4.0096,-3.9774,-3.8565,-3.8091,-3.7686,-3.6948,-3.631,-3.5827,-3.5627,-3.5761,-3.581,-3.5644,-3.6071,-3.6478,-3.6664,-3.7135,-3.7451,-3.7451,-3.7632,-3.7773,-3.7894,-3.8082,-3.777,-3.6784,-3.645,-3.5679,-3.4302,-3.3954,-3.3807,-3.3807,-3.3807,-3.3807,-3.3807,-3.3807,-3.3807,-3.3807,-3.3807,-3.3807,-4.0096,0.0,0.0,0.0,0.0,0.0,0.0,0.0,0.0,0.0,0.0,0.0,0.0,0.0,0.0,0.0,0.0,0.0,0.0,0.0,0.0,0.0,0.0,0.0,0.0,0.0,0.0,0.0,0.0,0.0,-4.4598,-4.4615,-4.4615,-4.4615,-4.4615,-4.4615,-4.4615,-4.4615,-4.4615,-4.4598,-4.3792,-4.3014,-4.2269,-4.1542,-4.0798,-4.0096,-4.0096,-4.0096,-4.0096,-4.0096,-4.0096,-4.0096,-4.0096,-4.0096,-4.0096,-4.0096,-4.0096,-4.0096,-4.0096,-4.0096,-4.0096,-4.0096,-4.0096,-4.0096,-4.0096,-4.0096,-4.0096,-4.0096,-4.0096,-4.0096,-4.0096,-4.0096,-4.0096,-4.0096,-4.0096,-3.9706,-3.8227,-3.7905,-3.7601,-3.6586,-3.5977,-3.56,-3.56,-3.56,-3.56,-3.56,-3.5898,-3.6203,-3.6392,-3.6704,-3.6941,-3.6941,-3.7078,-3.7248,-3.7396,-3.756,-3.721,-3.6085,-3.5884,-3.5202,-3.3848,-3.368,-3.3666,-3.3807,-3.3807,-3.3807,-3.3807,-3.3807,-3.3807,-3.3807,-3.3807,-3.3807,0.0,0.0,0.0,0.0,0.0,0.0,0.0,0.0,0.0,0.0,0.0,0.0,0.0,0.0,0.0,0.0,0.0,0.0,0.0,0.0,0.0,0.0,0.0,0.0,0.0,0.0,0.0,0.0,0.0,-4.3724,-4.4496,-4.4564,-4.4564,-4.4564,-4.4598,-4.4615,-4.4615,-4.4615,-4.4598,-4.4564,-4.3758,-4.298,-4.2236,-4.1508,-4.0781,-4.0096,-4.0096,-4.0096,-4.0096,-4.0096,-4.0096,-4.0096,-4.0096,-4.0096,-4.0096,-4.0096,-4.0096,-4.0096,-4.0096,-4.0096,-4.0096,-4.0096,-4.0096,-4.0096,-4.0096,-4.0096,-4.0096,-4.0096,-4.0096,-4.0096,-4.0096,-4.0096,-4.0096,-4.0096,-4.0079,-3.9673,-3.821,-3.7889,-3.7432,-3.5904,-3.56,-3.56,-3.56,-3.56,-3.56,-3.56,-3.56,-3.5805,-3.6291,-3.6392,-3.6392,-3.6392,-3.6843,-3.696,-3.6437,-3.6882,-3.6684,-3.5557,-3.5044,-3.4499,-3.3776,-3.339,-3.3375,-3.3762,-3.3788,-3.3807,-3.3807,-3.3807,-3.3807,-3.3807,-3.3807,-3.3807,-4.0096,0.0,0.0,0.0,0.0,0.0,0.0,0.0,0.0,0.0,0.0,0.0,0.0,0.0,0.0,0.0,0.0,0.0,0.0,0.0,0.0,0.0,0.0,0.0,0.0,0.0,0.0,0.0,-4.2591,-4.2692,-4.2912,-4.3436,-4.3741,-4.3741,-4.4282,-4.4615,-4.4615,-4.4615,-4.4327,-4.3724,-4.2963,-4.2219,-4.1474,-4.073,-4.0299,-4.0096,-4.0096,-4.0096,-4.0096,-4.0096,-4.0096,-4.0096,-4.0096,-4.0096,-4.0096,-4.0096,-4.0096,-4.0096,-4.0096,-4.0096,-4.0096,-4.0096,-4.0096,-4.0096,-4.0096,-4.0096,-4.0096,-4.0096,-4.0096,-4.0096,-4.0096,-4.0096,-4.0096,-4.0096,-3.9706,-3.9039,-3.8108,-3.7483,-3.6806,-3.5785,-3.56,-3.56,-3.56,-3.56,-3.56,-3.56,-3.56,-3.565,-3.5805,-3.581,-3.581,-3.581,-3.5946,-3.6139,-3.6374,-3.6539,-3.6159,-3.5065,-3.4871,-3.4231,-3.291,-3.3075,-3.3258,-3.3361,-3.3652,-3.3807,-3.3807,-3.3807,-3.3807,-3.3807,-3.3807,-3.3807,0.0,0.0,0.0,0.0,0.0,0.0,0.0,-4.0096,0.0,0.0,0.0,0.0,0.0,0.0,0.0,0.0,0.0,0.0,0.0,0.0,0.0,0.0,0.0,0.0,0.0,0.0,0.0,-4.1813,-4.183,-4.1965,-4.2269,-4.2709,-4.2946,-4.2946,-4.3386,-4.365,-4.365,-4.365,-4.3403,-4.2929,-4.2185,-4.1627,-4.117,-4.0451,-4.0096,-4.0096,-4.0096,-4.0096,-4.0096,-4.0096,-4.0096,-4.0096,-4.0096,-4.0096,-4.0096,-4.0096,-4.0096,-4.0096,-4.0096,-4.0096,-4.0096,-4.0096,-4.0096,-4.0096,-4.0096,-4.0096,-4.0096,-4.0096,-4.0096,-4.0096,-4.0096,-4.0096,-4.0096,-4.0096,-3.9554,-3.8802,-3.8075,-3.7313,-3.6575,-3.5752,-3.56,-3.56,-3.56,-3.56,-3.56,-3.56,-3.56,-3.56,-3.56,-3.56,-3.56,-3.56,-3.56,-3.5717,-3.6032,-3.5784,-3.529,-3.4562,-3.4029,-3.3386,-3.2537,-3.2565,-3.2809,-3.3199,-3.324,-3.3343,-3.355,-3.3721,-3.3807,-3.3807,-3.3807,-3.3807,0.0,0.0,0.0,0.0,0.0,0.0,-4.0096,-4.0096,-4.0096,0.0,0.0,0.0,0.0,0.0,0.0,0.0,0.0,0.0,0.0,0.0,0.0,0.0,0.0,0.0,0.0,-4.0096,-4.0383,-4.1035,-4.1085,-4.1356,-4.2016,-4.2117,-4.2168,-4.2168,-4.2252,-4.2286,-4.2286,-4.2286,-4.2252,-4.2168,-4.1508,-4.117,-4.1068,-4.0417,-4.0096,-4.0096,-4.0096,-4.0096,-4.0096,-4.0096,-4.0096,-4.0096,-4.0096,-4.0096,-4.0096,-4.0096,-4.0096,-4.0096,-4.0096,-4.0096,-4.0096,-4.0096,-4.0096,-4.0096,-4.0096,-4.0096,-4.0096,-4.0096,-4.0096,-4.0096,-4.0096,-4.0096,-4.0079,-3.9994,-3.9394,-3.8667,-3.7939,-3.7178,-3.6451,-3.5735,-3.56,-3.56,-3.56,-3.56,-3.56,-3.56,-3.56,-3.56,-3.56,-3.56,-3.56,-3.56,-3.56,-3.56,-3.56,-3.4928,-3.4359,-3.4039,-3.2943,-3.2314,-3.2351,-3.2004,-3.2196,-3.3029,-3.2681,-3.2697,-3.3121,-3.3578,-3.3807,-3.3807,-3.3807,-3.3807,0.0,0.0,0.0,0.0,0.0,0.0,-4.0096,-4.0096,-4.0096,0.0,0.0,0.0,0.0,0.0,0.0,0.0,0.0,0.0,0.0,0.0,0.0,0.0,0.0,0.0,0.0,-4.0096,-4.0163,-4.0316,-4.0316,-4.0383,-4.0519,-4.1085,-4.1407,-4.1407,-4.1982,-4.2286,-4.2286,-4.2286,-4.1999,-4.1407,-4.1271,-4.0882,-4.0316,-4.018,-4.0096,-4.0096,-4.0096,-4.0096,-4.0096,-4.0096,-4.0096,-4.0096,-4.0096,-4.0096,-4.0096,-4.0096,-4.0096,-4.0096,-4.0096,-4.0096,-4.0096,-4.0096,-4.0096,-4.0096,-4.0096,-4.0096,-4.0096,-4.0096,-4.0096,-4.0096,-4.0096,-4.0096,-3.996,-3.9368,-3.865,-3.7905,-3.7161,-3.6383,-3.5785,-3.5633,-3.56,-3.56,-3.56,-3.56,-3.56,-3.56,-3.56,-3.56,-3.56,-3.56,-3.56,-3.56,-3.56,-3.56,-3.56,-3.4928,-3.421,-3.3586,-3.2757,-3.2052,-3.1481,-3.1678,-3.188,-3.2074,-3.2349,-3.255,-3.2632,-3.3419,-3.3807,-3.3807,-3.3807,-3.3807,0.0,0.0,0.0,-4.0096,0.0,0.0,0.0,-4.0096,-4.0096,0.0,0.0,0.0,0.0,0.0,0.0,0.0,0.0,0.0,0.0,0.0,0.0,0.0,0.0,0.0,0.0,-4.0096,-4.0096,-4.0096,-4.0096,-4.0096,-4.0096,-4.0468,-4.0646,-4.0646,-4.1001,-4.1213,-4.1213,-4.1213,-4.1027,-4.0646,-4.0646,-4.0468,-4.0096,-4.0096,-4.0096,-4.0096,-4.0096,-4.0096,-4.0096,-4.0096,-4.0096,-4.0096,-4.0096,-4.0096,-4.0096,-4.0096,-4.0096,-4.0096,-4.0096,-4.0096,-4.0096,-4.0096,-4.0096,-4.0096,-4.0096,-4.0096,-4.0096,-4.0096,-4.0096,-4.0096,-4.0096,-4.0096,-3.991,-3.9174,-3.8447,-3.7702,-3.6965,-3.6163,-3.56,-3.56,-3.56,-3.56,-3.56,-3.56,-3.56,-3.56,-3.56,-3.56,-3.56,-3.56,-3.56,-3.56,-3.56,-3.56,-3.56,-3.459,-3.3795,-3.3423,-3.2357,-3.1599,-3.1207,-3.1391,-3.1507,-3.1507,-3.2161,-3.2366,-3.2144,-3.2822,-3.327,-3.3508,-3.3707,-3.3807,0.0,0.0,0.0,0.0,0.0,-4.0096,0.0,0.0,0.0,-4.0096,0.0,0.0,0.0,0.0,0.0,0.0,0.0,0.0,0.0,0.0,0.0,0.0,0.0,0.0,0.0,-4.0096,-4.0096,-4.0096,-4.0096,-4.0096,-4.0096,-4.0096,-4.0096,-4.0096,-4.0096,-4.0096,-4.0096,-4.0096,-4.0096,-4.0096,-4.0096,-4.0096,-4.0096,-4.0096,-4.0096,-4.0096,-4.0096,-4.0096,-4.0096,-4.0096,-4.0096,-4.0096,-4.0096,-4.0096,-4.0096,-4.0096,-4.0096,-4.0096,-4.0096,-4.0096,-4.0096,-4.0096,-4.0096,-4.0096,-4.0096,-4.0096,-4.0096,-4.0096,-4.0096,-4.0096,-4.0096,-4.0096,-3.9893,-3.8988,-3.8328,-3.7669,-3.6755,-3.6062,-3.56,-3.56,-3.56,-3.56,-3.56,-3.56,-3.56,-3.56,-3.56,-3.56,-3.56,-3.56,-3.56,-3.56,-3.56,-3.56,-3.56,-3.4247,-3.3406,-3.3406,-3.2019,-3.119,-3.119,-3.119,-3.119,-3.119,-3.1896,-3.2057,-3.1696,-3.2144,-3.2648,-3.3214,-3.3433,-3.3634,0.0,0.0,0.0,0.0,-4.0096,0.0,0.0,0.0,-4.0096,-4.0096,0.0,0.0,0.0,0.0,0.0,0.0,0.0,0.0,0.0,0.0,0.0,0.0,0.0,0.0,0.0,0.0,-4.0096,-4.0096,-4.0096,-4.0096,-4.0096,-4.0096,-4.0096,-4.0096,-4.0096,-4.0096,-4.0096,-4.0096,-4.0096,-4.0096,-4.0096,-4.0096,-4.0096,-4.0096,-4.0096,-4.0096,-4.0096,-4.0096,-4.0096,-4.0096,-4.0096,-4.0096,-4.0096,-4.0096,-4.0096,-4.0096,-4.0096,-4.0096,-4.0096,-4.0096,-4.0096,-4.0096,-4.0096,-4.0096,-4.0096,-4.0096,-4.0096,-4.0096,-4.0096,-4.0096,-4.0096,-4.0096,-3.9757,-3.8362,-3.7973,-3.7516,-3.6039,-3.565,-3.56,-3.56,-3.56,-3.56,-3.56,-3.56,-3.56,-3.56,-3.56,-3.56,-3.56,-3.56,-3.56,-3.56,-3.56,-3.56,-3.56,-3.4247,-3.3406,-3.3406,-3.2019,-3.119,-3.119,-3.119,-3.119,-3.119,-3.1291,-3.1329,-3.1271,-3.1678,-3.2332,-3.3199,-3.2809,-3.3057,0.0,0.0,0.0,0.0,0.0,0.0,0.0,0.0,-4.0096,0.0,0.0,0.0,0.0,0.0,0.0,0.0,0.0,0.0,0.0,0.0,0.0,0.0,0.0,0.0,0.0,0.0,0.0,0.0,0.0,-4.0096,-4.0096,-4.0096,-4.0096,-4.0096,-4.0096,-4.0096,-4.0096,-4.0096,-4.0096,-4.0096,-4.0096,-4.0096,-4.0096,-4.0096,-4.0096,-4.0096,-4.0096,-4.0096,-4.0096,-4.0096,-4.0096,-4.0096,-4.0096,-4.0096,-4.0096,-4.0096,-4.0096,-4.0096,-4.0096,-4.0096,-4.0096,-4.0096,-4.0096,-4.0096,-4.0096,-4.0096,-4.0096,-4.0096,-4.0096,-4.0096,-4.0096,-3.9791,-3.9191,-3.8159,-3.7567,-3.6958,-3.5836,-3.56,-3.56,-3.56,-3.56,-3.56,-3.56,-3.56,-3.56,-3.56,-3.56,-3.56,-3.56,-3.56,-3.56,-3.56,-3.56,-3.56,-3.56,-3.4247,-3.3406,-3.3406,-3.2019,-3.119,-3.119,-3.119,-3.119,-3.119,-3.119,-3.119,-3.119,-3.137,-3.177,-3.24,-3.245,-3.2697,-4.0646,0.0,0.0,0.0,0.0,0.0,0.0,0.0,0.0,0.0,0.0,0.0,0.0,0.0,0.0,0.0,0.0,0.0,0.0,0.0,0.0,0.0,0.0,0.0,0.0,0.0,0.0,0.0,-4.0096,-4.0096,-4.0096,-4.0096,-4.0096,-4.0096,-4.0096,-4.0096,-4.0096,-4.0096,-4.0096,-4.0096,-4.0096,-4.0096,-4.0096,-4.0096,-4.0096,-4.0096,-4.0096,-4.0096,-4.0096,-4.0096,-4.0096,-4.0096,-4.0096,-4.0096,-4.0096,-4.0096,-4.0096,-4.0096,-4.0096,-4.0096,-4.0096,-4.0096,-4.0096,-4.0096,-4.0096,-4.0096,-4.0096,-4.0096,-4.0096,-4.0096,-4.0096,-3.9554,-3.8802,-3.8091,-3.733,-3.6592,-3.5769,-3.56,-3.56,-3.56,-3.56,-3.56,-3.56,-3.56,-3.56,-3.56,-3.56,-3.56,-3.56,-3.56,-3.56,-3.56,-3.56,-3.56,-3.56,-3.4247,-3.3237,-3.2831,-3.1782,-3.119,-3.119,-3.119,-3.119,-3.119,-3.119,-3.119,-3.119,-3.119,-3.1351,-3.1641,-3.1968,-3.2265,0.0,0.0,0.0,-4.0282,0.0,0.0,0.0,0.0,-4.0096,0.0,0.0,0.0,0.0,0.0,0.0,0.0,0.0,0.0,0.0,0.0,0.0,0.0,0.0,0.0,0.0,0.0,0.0,-4.0096,-4.0096,-4.0096,-4.0096,-4.0096,-4.0096,-4.0096,-4.0096,-4.0096,-4.0096,-4.0096,-4.0096,-4.0096,-4.0096,-4.0096,-4.0096,-4.0096,-4.0096,-4.0096,-4.0096,-4.0096,-4.0096,-4.0096,-4.0096,-4.0096,-4.0096,-4.0096,-4.0096,-4.0096,-4.0096,-4.0096,-4.0096,-4.0096,-4.0096,-4.0096,-4.0096,-4.0096,-4.0096,-4.0096,-4.0096,-4.0096,-4.0096,-4.0096,-4.0096,-3.9554,-3.8802,-3.8091,-3.733,-3.6592,-3.5769,-3.56,-3.56,-3.56,-3.56,-3.56,-3.56,-3.56,-3.56,-3.56,-3.56,-3.56,-3.56,-3.56,-3.56,-3.56,-3.56,-3.56,-3.56,-3.4247,-3.2797,-3.136,-3.1224,-3.119,-3.119,-3.119,-3.119,-3.119,-3.119,-3.119,-3.119,-3.119,-3.121,-3.123,-3.123,-3.1694,0.0,0.0,-4.1745,-4.1001,0.0,0.0,0.0,0.0,0.0,0.0,0.0,0.0,0.0,0.0,0.0,0.0,0.0,0.0,0.0,0.0,0.0,0.0,0.0,0.0,0.0,0.0,0.0,-4.0096,-4.0096,-4.0096,0.0,-4.0096,-4.0096,-4.0096,-4.0096,-4.0096,-4.0096,-4.0096,-4.0096,-4.0096,-4.0096,-4.0096,-4.0096,-4.0096,-4.0096,-4.0096,-4.0096,-4.0096,-4.0096,-4.0096,-4.0096,-4.0096,-4.0096,-4.0096,-4.0096,-4.0096,-4.0096,-4.0096,-4.0096,-4.0096,-4.0096,-4.0096,-4.0096,-4.0096,-4.0096,-4.0096,-4.0096,-4.0096,-4.0096,-4.0096,-4.0096,-3.9174,-3.821,-3.7973,-3.6941,-3.5943,-3.565,-3.56,-3.56,-3.56,-3.56,-3.56,-3.56,-3.56,-3.56,-3.56,-3.56,-3.56,-3.56,-3.56,-3.56,-3.56,-3.56,-3.5397,-3.4912,-3.3508,-3.2239,-3.1258,-3.119,-3.119,-3.119,-3.119,-3.119,-3.119,-3.119,-3.119,-3.119,-3.119,-3.119,-3.119,-3.119,-3.1368,-4.2777,-4.2692,0.0,-4.1779,-4.1593,0.0,-4.0646,0.0,0.0,0.0,0.0,0.0,0.0,0.0,0.0,0.0,0.0,0.0,0.0,-4.0096,0.0,0.0,0.0,0.0,0.0,0.0,-4.0096,-4.0096,-4.0096,-4.0096,0.0,0.0,-4.0096,-4.0096,-4.0096,-4.0096,-4.0096,-4.0096,-4.0096,-4.0096,-4.0096,-4.0096,-4.0096,-4.0096,-4.0096,-4.0096,-4.0096,-4.0096,-4.0096,-4.0096,-4.0096,-4.0096,-4.0096,-4.0096,-4.0096,-4.0096,-4.0096,-4.0096,-4.0096,-4.0096,-4.0096,-4.0096,-4.0096,-4.0096,-4.0096,-4.0096,-4.0096,-4.0096,-4.0096,-4.0096,-4.0096,-3.9005,-3.7905,-3.7905,-3.6715,-3.56,-3.56,-3.56,-3.56,-3.56,-3.56,-3.56,-3.56,-3.56,-3.56,-3.56,-3.56,-3.56,-3.56,-3.56,-3.56,-3.56,-3.56,-3.5194,-3.4184,-3.3004,-3.1989,-3.1241,-3.119,-3.119,-3.119,-3.119,-3.119,-3.119,-3.119,-3.119,-3.119,-3.119,-3.119,-3.119,-3.119,-3.119]},{"header":{"parameterUnit":"m.s-1","parameterCategory":1,"la1":30.6,"la2":29.2853,"lo1":-89.7004,"lo2":-87.6739,"dy":0.0162,"dx":0.0183,"nx":112,"ny":82,"refTime":"2023-05-01T12:00:00:Z","depth":0,"parameterNumber":3,"parameterNumberName":"V-component_of_WINDS"},"data":[0.0,0.0,0.0,0.0,0.0,0.0,0.0,0.0,0.0,0.0,0.0,0.0,0.0,0.0,0.0,0.0,0.0,0.0,0.0,0.0,0.0,0.0,0.0,0.0,0.0,0.0,0.0,0.0,0.0,0.0,0.0,0.0,0.0,0.0,0.0,0.0,0.0,0.0,0.0,0.0,0.0,0.0,0.0,0.0,0.0,0.0,0.0,0.0,0.0,0.0,0.0,0.0,0.0,0.0,0.0,0.0,0.0,0.0,0.0,0.0,0.0,0.0,0.0,0.0,0.0,0.0,0.0,0.0,0.0,0.0,0.0,0.0,0.0,0.0,0.0,0.0,0.0,0.0,0.0,0.0,0.0,0.0,0.0,0.0,0.0,0.0,0.0,0.0,0.0,0.0,0.0,0.0,0.0,0.0,0.0,0.0,0.0,0.0,0.0,0.0,0.0,0.0,0.0,0.0,0.0,0.0,0.0,0.0,0.0,0.0,0.0,0.0,0.0,0.0,0.0,0.0,0.0,0.0,0.0,0.0,0.0,0.0,0.0,0.0,0.0,0.0,0.0,0.0,0.0,0.0,0.0,0.0,0.0,0.0,0.0,0.0,0.0,0.0,0.0,0.0,0.0,0.0,0.0,0.0,0.0,0.0,0.0,0.0,0.0,0.0,0.0,0.0,0.0,0.0,0.0,0.0,0.0,0.0,0.0,0.0,0.0,0.0,0.0,0.0,0.0,0.0,0.0,0.0,0.0,0.0,0.0,0.0,0.0,0.0,0.0,0.0,0.0,0.0,0.0,0.0,0.0,0.0,0.0,0.0,0.0,0.0,0.0,0.0,0.0,0.0,0.0,0.0,0.0,0.0,0.0,0.0,0.0,0.0,0.0,0.0,0.0,0.0,0.0,0.0,0.0,0.0,0.0,0.0,0.0,0.0,0.0,0.0,0.0,0.0,0.0,0.0,0.0,0.0,0.0,0.0,0.0,0.0,0.0,0.0,0.0,0.0,0.0,0.0,0.0,0.0,0.0,0.0,0.0,0.0,0.0,0.0,0.0,0.0,0.0,0.0,0.0,0.0,0.0,0.0,0.0,0.0,0.0,0.0,0.0,0.0,0.0,0.0,0.0,0.0,0.0,0.0,0.0,0.0,0.0,0.0,0.0,0.0,0.0,0.0,0.0,0.0,0.0,0.0,0.0,0.0,0.0,0.0,0.0,0.0,0.0,0.0,0.0,0.0,0.0,0.0,0.0,0.0,0.0,0.0,0.0,0.0,0.0,0.0,0.0,0.0,0.0,0.0,0.0,0.0,0.0,0.0,0.0,0.0,0.0,0.0,0.0,0.0,0.0,0.0,0.0,0.0,0.0,0.0,0.0,0.0,0.0,0.0,0.0,0.0,0.0,0.0,0.0,0.0,0.0,0.0,0.0,0.0,0.0,0.0,0.0,0.0,0.0,0.0,0.0,0.0,0.0,0.0,0.0,0.0,0.0,0.0,0.0,0.0,0.0,0.0,0.0,0.0,0.0,0.0,0.0,0.0,0.0,0.0,0.0,0.0,0.0,0.0,0.0,0.0,0.0,0.0,0.0,0.0,0.0,0.0,0.0,0.0,0.0,0.0,0.0,0.0,0.0,0.0,0.0,0.0,0.0,0.0,0.0,0.0,0.0,0.0,0.0,0.0,0.0,0.0,0.0,0.0,0.0,0.0,0.0,0.0,0.0,0.0,0.0,0.0,0.0,0.0,0.0,0.0,0.0,0.0,0.0,0.0,0.0,0.0,0.0,0.0,0.0,0.0,0.0,0.0,0.0,0.0,0.0,0.0,0.0,0.0,0.0,0.0,0.0,0.0,0.0,0.0,0.0,0.0,0.0,0.0,0.0,0.0,0.0,0.0,0.0,0.0,0.0,0.0,0.0,0.0,0.0,0.0,0.0,0.0,0.0,0.0,0.0,0.0,0.0,0.0,0.0,0.0,0.0,0.0,0.0,0.0,0.0,0.0,0.0,0.0,0.0,0.0,0.0,0.0,0.0,0.0,0.0,0.0,0.0,0.0,0.0,0.0,0.0,0.0,0.0,0.0,0.0,0.0,0.0,0.0,0.0,0.0,0.0,0.0,0.0,0.0,0.0,0.0,0.0,0.0,0.0,0.0,0.0,0.0,0.0,0.0,0.0,0.0,0.0,0.0,0.0,0.0,0.0,0.0,0.0,0.0,0.0,0.0,0.0,0.0,0.0,0.0,0.0,0.0,0.0,0.0,0.0,0.0,0.0,0.0,0.0,0.0,0.0,0.0,0.0,0.0,0.0,0.0,0.0,0.0,0.0,0.0,0.0,0.0,0.0,0.0,0.0,0.0,0.0,0.0,0.0,0.0,0.0,0.0,0.0,0.0,0.0,0.0,0.0,0.0,0.0,0.0,0.0,0.0,0.0,0.0,0.0,0.0,0.0,0.0,0.0,0.0,0.0,0.0,0.0,0.0,0.0,0.0,0.0,0.0,0.0,0.0,0.0,0.0,0.0,0.0,0.0,0.0,0.0,0.0,0.0,0.0,0.0,0.0,0.0,0.0,0.0,0.0,0.0,0.0,0.0,0.0,0.0,0.0,0.0,0.0,0.0,0.0,0.0,0.0,0.0,0.0,0.0,0.0,0.0,0.0,0.0,0.0,0.0,0.0,0.0,0.0,0.0,0.0,0.0,0.0,0.0,0.0,0.0,0.0,0.0,0.0,0.0,0.0,0.0,0.0,0.0,0.0,0.0,0.0,0.0,0.0,0.0,0.0,0.0,0.0,0.0,0.0,0.0,0.0,0.0,0.0,0.0,0.0,0.0,0.0,0.0,0.0,0.0,0.0,0.0,0.0,0.0,0.0,0.0,0.0,0.0,0.0,0.0,0.0,0.0,0.0,0.0,0.0,0.0,0.0,0.0,0.0,0.0,0.0,0.0,0.0,0.0,0.0,0.0,0.0,0.0,0.0,0.0,0.0,0.0,0.0,0.0,0.0,0.0,0.0,0.0,0.0,0.0,0.0,0.0,0.0,0.0,0.0,0.0,0.0,0.0,0.0,0.0,0.0,0.0,0.0,0.0,0.0,0.0,0.0,0.0,0.0,0.0,0.0,0.0,0.0,0.0,0.0,0.0,0.0,0.0,0.0,0.0,0.0,0.0,0.0,0.0,0.0,0.0,0.0,0.0,0.0,0.0,0.0,0.0,0.0,0.0,0.0,0.0,0.0,0.0,0.0,0.0,0.0,0.0,0.0,0.0,0.0,0.0,0.0,0.0,0.0,0.0,0.0,0.0,0.0,0.0,0.0,0.0,0.0,0.0,0.0,0.0,0.0,0.0,0.0,0.0,0.0,0.0,0.0,0.0,0.0,0.0,0.0,0.0,0.0,0.0,0.0,0.0,0.0,0.0,0.0,0.0,0.0,0.0,0.0,0.0,0.0,0.0,0.0,0.0,0.0,0.0,0.0,0.0,0.0,0.0,0.0,0.0,0.0,0.0,0.0,0.0,0.0,0.0,0.0,0.0,0.0,0.0,0.0,0.0,0.0,0.0,0.0,0.0,0.0,0.0,0.0,0.0,0.0,0.0,0.0,0.0,0.0,0.0,0.0,0.0,0.0,0.0,0.0,0.0,0.0,0.0,0.0,0.0,0.0,0.0,0.0,0.0,0.0,0.0,0.0,0.0,0.0,0.0,0.0,0.0,0.0,0.0,0.0,0.0,0.0,0.0,0.0,0.0,0.0,0.0,0.0,0.0,0.0,0.0,0.0,0.0,0.0,0.0,0.0,0.0,0.0,0.0,0.0,0.0,0.0,0.0,0.0,0.0,0.0,0.0,0.0,0.0,0.0,0.0,0.0,0.0,0.0,0.0,0.0,0.0,0.0,0.0,0.0,0.0,0.0,0.0,0.0,0.0,0.0,0.0,0.0,0.0,0.0,0.0,0.0,0.0,0.0,0.0,0.0,0.0,0.0,0.0,0.0,0.0,0.0,0.0,0.0,0.0,0.0,0.0,0.0,0.0,0.0,0.0,0.0,0.0,0.0,0.0,0.0,0.0,0.0,0.0,0.0,0.0,0.0,0.0,0.0,0.0,0.0,0.0,0.0,0.0,0.0,0.0,0.0,0.0,0.0,0.0,0.0,0.0,0.0,0.0,0.0,0.0,0.0,0.0,0.0,0.0,0.0,0.0,0.0,0.0,0.0,0.0,0.0,0.0,0.0,0.0,0.0,0.0,0.0,0.0,0.0,0.0,0.0,0.0,0.0,0.0,0.0,0.0,0.0,0.0,0.0,0.0,0.0,0.0,0.0,0.0,0.0,0.0,0.0,0.0,0.0,0.0,0.0,0.0,0.0,0.0,0.0,0.0,0.0,0.0,0.0,0.0,0.0,0.0,0.0,0.0,0.0,0.0,0.0,0.0,0.0,0.0,0.0,0.0,0.0,0.0,0.0,0.0,0.0,0.0,0.0,0.0,0.0,0.0,0.0,0.0,0.0,0.0,0.0,0.0,0.0,0.0,0.0,0.0,0.0,0.0,0.0,0.0,0.0,0.0,0.0,0.0,0.0,0.0,0.0,0.0,0.0,0.0,0.0,0.0,0.0,0.0,0.0,0.0,0.0,0.0,0.0,0.0,0.0,0.0,0.0,0.0,0.0,0.0,0.0,0.0,0.0,0.0,0.0,0.0,0.0,0.0,0.0,0.0,0.0,0.0,0.0,0.0,0.0,0.0,0.0,0.0,0.0,0.0,0.0,0.0,0.0,0.0,0.0,0.0,0.0,0.0,0.0,0.0,0.0,0.0,0.0,0.0,0.0,0.0,0.0,0.0,0.0,0.0,0.0,0.0,0.0,0.0,0.0,0.0,0.0,0.0,0.0,0.0,0.0,0.0,0.0,0.0,0.0,0.0,0.0,0.0,0.0,0.0,0.0,0.0,0.0,0.0,0.0,0.0,0.0,0.0,0.0,0.0,0.0,0.0,0.0,0.0,0.0,0.0,0.0,0.0,0.0,0.0,0.0,0.0,0.0,0.0,0.0,0.0,0.0,0.0,0.0,0.0,0.0,0.0,0.0,0.0,0.0,0.0,0.0,0.0,0.0,0.0,0.0,0.0,0.0,0.0,0.0,0.0,0.0,0.0,0.0,0.0,0.0,0.0,0.0,0.0,0.0,0.0,0.0,0.0,0.0,0.0,0.0,0.0,0.0,0.0,0.0,0.0,0.0,0.0,0.0,0.0,0.0,0.0,0.0,0.0,0.0,0.0,0.0,0.0,0.0,0.0,0.0,0.0,0.0,0.0,0.0,0.0,0.0,0.0,0.0,0.0,0.0,0.0,0.0,0.0,0.0,0.0,0.0,0.0,0.0,0.0,0.0,0.0,0.0,0.0,0.0,0.0,0.0,0.0,0.0,0.0,0.0,0.0,0.0,0.0,0.0,0.0,0.0,0.0,0.0,0.0,0.0,0.0,0.0,0.0,0.0,0.0,0.0,0.0,0.0,0.0,0.0,0.0,0.0,0.0,0.0,0.0,0.0,0.0,0.0,0.0,0.0,0.0,0.0,0.0,0.0,0.0,0.0,0.0,0.0,0.0,0.0,0.0,0.0,0.0,0.0,0.0,0.0,0.0,0.0,0.0,0.0,0.0,0.0,0.0,0.0,0.0,0.0,0.645,0.0,0.0,0.0,0.0,0.0,0.0,0.0,0.0,0.0,0.0,0.0,0.0,0.0,0.0,0.0,0.0,0.0,0.0,0.0,0.0,0.0,0.0,0.0,0.0,0.0,0.0,0.0,0.0,0.0,0.0,0.0,0.0,0.0,0.0,0.0,0.0,0.0,0.0,0.0,0.0,0.0,0.0,0.0,0.0,0.0,0.0,0.0,0.0,0.0,0.0,0.0,0.0,0.0,0.0,0.0,0.0,0.0,0.0,0.0,0.0,0.0,0.0,0.0,0.0,0.0,0.0,0.0,0.0,0.0,0.0,0.0,0.0,0.0,0.0,0.0,0.0,0.0,0.0,0.0,0.0,0.0,0.0,0.0,0.0,0.0,0.0,0.0,0.0,0.0,0.0,0.0,0.0,0.0,0.0,0.0,0.0,0.0,0.0,0.0,0.0,0.0,0.0,0.0,0.0,0.0,0.0,0.0,0.0,0.0,0.0,0.0,0.0,0.6474,0.0,0.0,0.0,0.0,0.0,0.0,0.0,0.0,0.0,0.0,0.0,0.0,0.0,0.0,0.0,0.0,0.0,0.0,0.0,0.0,0.0,0.0,0.0,0.0,0.0,0.0,0.0,0.0,0.0,0.0,0.0,0.0,0.0,0.0,0.0,0.0,0.0,0.0,0.0,0.0,0.0,0.0,0.0,0.0,0.0,0.0,0.0,0.0,0.0,0.0,0.0,0.0,0.0,0.0,0.0,0.0,0.0,0.0,0.0,0.0,0.0,0.0,0.0,0.0,0.0,0.0,0.0,0.0,0.0,0.0,0.0,0.0,0.0,0.0,0.0,0.0,0.0,0.0,0.0,0.0,0.0,0.0,0.0,0.0,0.0,0.0,0.0,0.0,0.0,0.0,0.0,0.0,0.0,0.0,0.0,0.0,0.0,0.0,0.0,0.0,0.0,0.0,0.0,0.0,0.6634,0.6637,0.6661,0.6634,0.6569,0.6511,0.6484,0.6422,0.6344,0.0,0.0,0.0,0.0,0.0,0.0,0.0,0.0,0.0,0.0,0.0,0.0,0.0,0.0,0.0,0.0,0.0,0.0,0.0,0.0,0.0,0.0,0.0,0.0,0.0,0.5542,0.4609,0.0,0.0,0.0,0.0,0.0,0.0,0.0,0.0,0.0,0.0,0.0,0.0,0.0,0.0,0.0,0.0,0.0,0.0,0.0,0.0,0.0,0.0,0.0,0.0,0.0,0.0,0.0,0.0,0.0,0.0,0.0,0.0,0.0,0.0,0.0,0.0,0.0,0.0,0.0,0.0,0.0,0.0,0.0,0.0,0.0,0.0,0.0,0.0,0.0,0.0,0.0,0.0,0.0,0.0,0.0,0.0,1.1854,1.3041,0.0,0.0,0.0,0.0,0.0,0.0,0.0,0.0,0.0,0.0,0.0,0.0,0.0,0.6739,0.6702,0.6569,0.6542,0.6542,0.6416,0.6422,0.6538,0.6416,0.6416,0.6504,0.6381,0.0,0.6484,0.6504,0.0,0.0,0.0,0.0,0.0,0.0,0.0,0.0,0.0,0.0,0.0,0.0,0.0,0.0,0.0,0.0,0.0,0.0,0.0,0.0,0.0,0.0,0.63,0.63,0.6167,0.6041,0.0,0.4414,0.3049,0.2942,0.2904,0.0,0.0,0.0,0.0,0.0,0.0,0.0,0.0,0.0,0.0,0.0,0.0,0.0,0.0,0.0,0.0,0.0,0.0,0.0,0.0,0.0,0.0,0.0,0.0,0.0,0.0,0.0,0.0,0.0,0.0,0.0,0.0,0.0,0.0,0.0,0.0,0.0,0.0,0.0,0.0,0.0,0.0,0.0,0.0,0.0,0.0,0.0,0.0,0.0,0.0,1.1153,1.121,1.2322,1.2438,1.2107,0.0,0.0,0.0,0.0,0.0,0.0,0.0,0.0,0.0,0.7567,0.7155,0.6868,0.6702,0.6634,0.66,0.66,0.6536,0.6539,0.66,0.6536,0.6542,0.6597,0.6536,0.6542,0.6593,0.6549,0.6586,0.6773,0.0,0.0,0.0,0.0,0.6854,0.6776,0.6624,0.6573,0.0,0.0,0.0,0.0,0.0,0.0,0.0,0.0,0.0,0.0,0.0,0.0,0.0,0.632,0.63,0.63,0.63,0.555,0.4706,0.0,0.3504,0.2785,0.1762,0.0,0.0,0.0,0.0,0.0,0.0,0.0,0.0,0.0,0.0,0.0,0.0,0.0,0.0,0.0,0.0,0.0,0.0,0.0,0.0,0.0,0.0,0.0,0.0,0.0,0.0,0.0,0.0,0.0,0.0,0.0,0.0,0.0,0.0,0.0,0.0,0.0,0.0,0.0,0.0,0.0,0.0,0.0,0.0,0.0,0.0,0.0,0.0,1.093,1.1103,1.1763,1.2975,1.3058,0.0,0.0,0.0,0.0,0.0,0.0,0.9542,0.8729,0.8154,0.781,0.7332,0.6937,0.6759,0.6797,0.6814,0.6814,0.6814,0.6834,0.6871,0.6831,0.6834,0.6868,0.6793,0.6759,0.6749,0.6593,0.6552,0.66,0.6715,0.6759,0.6756,0.6715,0.6675,0.662,0.6511,0.6457,0.6463,0.6501,0.0,0.6546,0.662,0.0,0.0,0.0,0.0,0.6607,0.6497,0.6457,0.6429,0.6323,0.63,0.63,0.63,0.6093,0.5741,0.0,0.4475,0.3605,0.2587,0.0,0.0,0.0,0.0,0.0406,0.0403,0.0159,0.0,0.0,0.0,0.0,0.0,0.0,0.0,0.0,0.0,0.0,0.0,0.0,0.0,0.0,0.0,0.0,0.0,0.0,0.0,0.0,0.0,0.0,0.0,0.0,0.0,0.0,0.0,0.0,0.0,0.0,0.0,0.0,0.0,0.0,0.0,0.0,0.0,0.0,0.0,0.0,0.0,0.0,0.0,1.1775,1.2376,0.0,0.0,0.0,0.0,1.2657,1.1435,1.0274,0.9209,0.787,0.7047,0.6791,0.6854,0.6889,0.6876,0.7007,0.7071,0.7071,0.7071,0.7197,0.7378,0.7183,0.72,0.7368,0.7041,0.6873,0.6862,0.6753,0.6773,0.6862,0.6873,0.6873,0.6856,0.6756,0.661,0.6504,0.6361,0.631,0.6334,0.6467,0.6569,0.6664,0.6566,0.6583,0.0,0.0,0.6525,0.6491,0.6347,0.631,0.631,0.6303,0.63,0.63,0.63,0.5492,0.506,0.0,0.6158,0.5813,0.4733,0.0,0.4176,0.3126,0.2112,0.1531,0.1536,0.0628,0.0,0.0,0.0,0.0,0.0,0.0,0.0,0.0,0.0,0.0,0.0,0.0,0.0,0.0,0.0,0.0,0.0,0.0,0.0,0.0,0.0,0.0,0.0,0.0,0.0,0.0,0.0,0.0,0.0,0.0,0.0,0.0,0.0,0.0,0.0,0.0,0.0,0.0,0.0,0.0,0.0,0.0,0.0,1.1828,1.2905,0.0,1.2502,1.3313,1.3568,1.2742,1.2636,1.2523,1.2345,1.1309,1.0698,1.0628,0.93,0.8558,0.8558,0.7812,0.7434,0.7434,0.7434,0.7465,0.7516,0.7461,0.7465,0.7512,0.7407,0.736,0.7356,0.7302,0.7082,0.678,0.678,0.678,0.6776,0.6719,0.6664,0.6614,0.6563,0.6542,0.6552,0.6603,0.6658,0.6692,0.6634,0.6658,0.6688,0.6634,0.662,0.6607,0.6556,0.6542,0.6542,0.6542,0.6542,0.6519,0.6457,0.6115,0.5946,0.6249,0.5741,0.5132,0.4768,0.4716,0.4335,0.3269,0.2797,0.2565,0.2582,0.1684,0.102,0.102,0.0392,0.0,0.0,0.0,0.0,0.0,0.0,0.0,0.0,0.0,0.0,0.0,0.0,0.0,0.0,0.0,0.0,0.0,0.0,0.0,0.0,0.0,0.0,0.0,0.0,0.0,0.0,0.0,0.0,0.0,0.0,0.0,0.0,0.0,0.0,0.0,0.0,0.0,0.0,0.0,1.2233,1.2287,1.3254,1.3638,1.2933,1.3698,1.3646,1.2254,1.2984,1.3212,1.2592,1.1999,1.1673,1.1673,0.9886,0.8918,0.8918,0.8141,0.7746,0.7746,0.7746,0.7746,0.7746,0.7746,0.7746,0.7746,0.7692,0.7672,0.7665,0.7617,0.7363,0.6993,0.6888,0.682,0.677,0.6719,0.6702,0.6702,0.6702,0.6702,0.6702,0.6702,0.6702,0.6702,0.6702,0.6702,0.6702,0.6702,0.6702,0.6702,0.6702,0.6702,0.6702,0.6702,0.6702,0.6671,0.6569,0.6549,0.6522,0.6467,0.5805,0.524,0.524,0.5252,0.4857,0.379,0.3625,0.3495,0.3154,0.2527,0.1957,0.1646,0.098,0.0392,0.0039,0.0,0.0,0.0,0.0,0.0,0.0,0.0,0.0,0.0,0.0,0.0,0.0,0.0,0.0,0.0,0.0,0.0,0.0,0.0,0.0,0.0,0.0,0.0,0.0,0.0,0.0,0.0,0.0,0.0,0.0,0.0,0.0,0.0,0.0,0.0,1.3626,1.362,1.3458,1.3099,1.3408,1.3606,1.3472,1.4084,1.3661,1.1599,1.258,1.221,0.9811,0.9718,0.9718,0.9718,0.8589,0.8007,0.8007,0.8062,0.8038,0.8038,0.8038,0.7988,0.7988,0.7988,0.7988,0.7982,0.7882,0.7818,0.7807,0.7672,0.7614,0.7584,0.723,0.7024,0.6889,0.6783,0.6729,0.6729,0.6722,0.6722,0.6719,0.6715,0.6715,0.6715,0.6715,0.6715,0.6715,0.6715,0.6715,0.6715,0.6715,0.6715,0.6715,0.6715,0.6715,0.6712,0.6709,0.6709,0.6705,0.6702,0.6471,0.6313,0.6313,0.6313,0.5969,0.4904,0.4753,0.0,0.3325,0.3174,0.2776,0.1766,0.161,0.1179,0.0079,0.0,0.0,0.0,0.0,0.0,0.0,0.0,0.0,0.0,0.0,0.0,0.0,0.0,0.0,0.0,0.0,0.0,0.0,0.0,0.0,0.0,0.0,0.0,0.0,0.0,0.0,0.0,0.0,0.0,0.0,0.0,0.0,0.0,0.0,1.4233,1.4233,1.4102,1.4001,1.4088,1.439,1.459,1.4579,1.4751,1.4687,1.4314,1.4615,1.456,1.4086,1.4051,1.4051,1.4051,1.2863,1.2224,1.2224,1.0356,0.946,0.946,0.8482,0.7988,0.7988,0.7988,0.7988,0.7988,0.7944,0.7928,0.7924,0.7884,0.787,0.784,0.759,0.7448,0.7411,0.737,0.7353,0.7336,0.7224,0.7187,0.717,0.7054,0.6974,0.6974,0.6974,0.6974,0.6974,0.6974,0.6974,0.6974,0.6974,0.6974,0.6974,0.6974,0.6974,0.6947,0.6846,0.6865,0.6834,0.6722,0.6634,0.658,0.658,0.658,0.6447,0.6047,0.6018,0.0,0.5464,0.4726,0.3839,0.2786,0.2016,0.1154,0.0083,0.0,0.0,0.0,0.0,0.0,0.0,0.0,0.0,0.0,0.0,0.0,0.0,0.0,0.0,0.0,0.0,0.0,0.0,0.0,0.0,0.0,0.0,0.0,0.0,0.0,0.0,0.0,0.0,0.0,0.0,0.0,0.0,0.0,1.4703,1.475,1.487,1.4636,1.4563,1.4856,1.5044,1.529,1.5531,1.5558,1.5437,1.5188,1.5652,1.5772,1.5388,1.5395,1.5395,1.5395,1.4103,1.3457,1.3457,1.137,1.0276,1.0276,0.8874,0.8225,0.8225,0.8163,0.8136,0.0,0.8019,0.7988,0.7988,0.7988,0.7988,0.0,0.0,0.0,0.0,0.0,0.76,0.7587,0.7499,0.7465,0.7451,0.736,0.7287,0.7287,0.7287,0.7287,0.7319,0.7255,0.7238,0.7221,0.7112,0.7095,0.7095,0.7095,0.7095,0.7071,0.6991,0.6974,0.6947,0.6902,0.6885,0.0,0.6885,0.678,0.6504,0.5987,0.6312,0.6353,0.5801,0.5579,0.5028,0.3897,0.3255,0.2281,0.0817,0.066,0.0,0.0,0.0,0.0,0.0,0.0,0.0,0.0,0.0,0.0,0.0,0.0,0.0,0.0,-0.134,-0.2551,0.0,0.0,0.0,0.0,0.0,0.0,0.0,0.0,0.0,0.0,0.0,0.0,0.0,0.0,0.0,0.0,1.5075,1.5169,1.5451,1.5323,1.5249,1.5464,1.5498,1.5712,1.6266,1.6375,1.5969,1.5091,1.6035,1.6192,1.5052,0.0,0.0,0.0,0.0,1.3171,1.2966,1.1625,1.085,1.0642,0.9205,0.8482,0.8479,0.835,0.8347,0.8337,0.815,0.8029,0.8015,0.8015,0.8005,0.7975,0.7889,0.7838,0.7821,0.7695,0.7648,0.7648,0.7631,0.0,0.0,0.7604,0.76,0.76,0.76,0.76,0.757,0.7434,0.7443,0.7366,0.7183,0.7136,0.7122,0.7122,0.7109,0.7095,0.7095,0.7095,0.7095,0.7095,0.7095,0.7095,0.7095,0.6922,0.6408,0.5442,0.6117,0.6341,0.524,0.5935,0.6032,0.4831,0.0,0.0,0.1935,0.1771,0.1331,0.0236,0.008,0.0,0.0,0.0,0.0,0.0,0.0,0.0,0.0,0.0,0.0,-0.0037,-0.1082,-0.2421,0.0,0.0,0.0,0.0,0.0,0.0,0.0,0.0,0.0,0.0,0.0,0.0,0.0,0.0,0.0,1.5625,1.5464,1.5498,1.6025,1.61,1.6087,1.6099,1.6154,1.6239,1.6587,1.662,1.654,1.6343,1.655,1.66,1.6343,1.6343,0.0,1.6343,1.6085,1.5368,1.4185,1.2905,1.162,1.0439,0.0,0.0,0.8479,0.8455,0.8442,0.8438,0.8408,0.8333,0.8225,0.8225,0.815,0.7985,0.7958,0.7944,0.7941,0.7914,0.7904,0.7887,0.7814,0.777,0.775,0.7638,0.76,0.76,0.76,0.76,0.0,0.7563,0.7556,0.755,0.7519,0.7421,0.7326,0.7326,0.7231,0.7095,0.7095,0.7095,0.7095,0.7095,0.7095,0.7095,0.7095,0.7048,0.6904,0.6584,0.6748,0.672,0.6415,0.6461,0.6059,0.4987,0.476,0.4175,0.2936,0.2822,0.2373,0.1336,0.0473,0.0,0.0,0.0,0.0,0.0,0.0,0.0,0.0,0.0,0.0,0.0,-0.0222,-0.0875,0.0,0.0,0.0,0.0,0.0,0.0,0.0,0.0,0.0,0.0,0.0,1.5398,0.0,0.0,1.5611,1.5611,1.5738,1.5939,1.6281,1.64,1.6486,1.6486,1.6486,1.6607,1.6901,1.6927,1.6987,1.7134,1.7141,1.7141,1.7141,1.7141,1.7141,1.7141,1.7141,1.6774,1.6033,1.4665,1.3294,1.1827,1.0453,0.9398,0.871,0.8632,0.8598,0.8591,0.8516,0.8442,0.837,0.835,0.818,0.7988,0.7988,0.7988,0.7988,0.7988,0.7988,0.7978,0.7901,0.7877,0.7913,0.7841,0.7821,0.7821,0.7821,0.7821,0.7804,0.7726,0.7706,0.7689,0.7617,0.7543,0.7485,0.7485,0.7366,0.7255,0.7255,0.7149,0.7095,0.7095,0.7095,0.7095,0.7095,0.7095,0.7071,0.7001,0.6991,0.694,0.6834,0.6749,0.6446,0.577,0.5632,0.5119,0.4008,0.3397,0.2685,0.1649,0.1097,0.0549,0.0039,0.0,0.0,0.0,0.0,0.0,0.0,0.0,0.0,0.0,0.0,-0.0485,0.0,0.0,0.0,0.0,0.0,0.0,0.0,0.0,1.5384,1.5324,1.5545,1.5671,1.5438,1.5685,1.5838,1.5605,1.6012,1.638,1.6482,1.664,1.6814,1.6867,1.6827,1.6907,1.7259,1.7286,1.738,1.7562,1.7582,1.7582,1.7582,1.7582,1.7582,1.7582,1.7582,1.7477,1.7206,1.6009,1.4716,1.3264,1.2077,1.0891,0.975,0.9345,0.9179,0.9118,0.8697,0.8526,0.8565,0.8646,0.8447,0.8082,0.8297,0.8233,0.7988,0.7988,0.7988,0.7988,0.7988,0.7988,0.7988,0.7988,0.7988,0.7988,0.7988,0.7988,0.7965,0.7889,0.7855,0.7828,0.7712,0.7662,0.7641,0.7641,0.7526,0.7453,0.7426,0.7275,0.7132,0.7102,0.7095,0.7095,0.7095,0.7095,0.7095,0.7095,0.7095,0.7055,0.6943,0.6903,0.6834,0.6586,0.6549,0.6093,0.5087,0.4021,0.3047,0.227,0.1841,0.1215,0.0353,0.0118,0.0,0.0,0.0,0.0,0.0,0.0,0.0,0.0,0.0,-0.0384,1.5772,1.5732,1.5631,1.5404,1.5538,1.5598,0.0,0.0,1.5324,1.5109,1.5244,1.5438,1.5404,1.5852,1.6213,1.6179,1.6446,1.6754,1.7065,1.7132,1.7246,1.7455,1.7306,1.7266,1.7508,1.7535,1.7549,1.7582,1.7582,1.7582,1.7582,1.7582,1.7582,1.7582,1.7582,1.6982,1.5689,1.547,1.4716,1.3318,1.3107,1.2994,1.2778,1.1461,1.0803,1.074,0.9284,0.8682,0.8766,0.965,0.9306,0.8384,0.9375,0.9069,0.7988,0.7988,0.7988,0.7988,0.7988,0.7988,0.7988,0.7988,0.7988,0.7988,0.7988,0.7988,0.7985,0.7968,0.7965,0.7961,0.7944,0.7889,0.7787,0.7787,0.7678,0.7536,0.7446,0.7402,0.7305,0.7122,0.7095,0.7095,0.7095,0.7095,0.7095,0.7095,0.7095,0.7092,0.7075,0.6964,0.6873,0.6839,0.6634,0.6413,0.6155,0.5157,0.4491,0.4375,0.2621,0.1528,0.1411,0.051,0.0,0.0,0.0,0.0,0.0,0.0,0.0,0.0,0.0,-0.0039,1.5371,1.5451,0.0,0.0,1.5484,1.5558,1.5484,1.5565,1.5665,1.5765,1.5872,1.5959,1.6126,1.6359,1.6526,0.0,1.6774,1.7058,1.7186,1.7347,1.7442,1.7569,1.7475,1.7501,1.7569,1.7582,1.7582,1.7582,1.7582,1.7582,1.7582,1.7582,1.7582,1.7582,1.7582,1.7312,1.6717,1.6658,1.5956,1.4502,1.4502,1.4073,1.327,1.267,1.2403,1.229,1.0753,1.0074,0.9968,0.9512,0.9338,0.9458,0.9933,1.0186,1.0096,0.8577,0.7988,0.7988,0.7988,0.7988,0.7988,0.7988,0.7988,0.7988,0.7988,0.7988,0.7988,0.7988,0.7988,0.7988,0.7988,0.7941,0.7894,0.7894,0.7831,0.7706,0.7641,0.7563,0.7458,0.7305,0.7275,0.7248,0.7112,0.7095,0.7095,0.7095,0.7095,0.7095,0.7095,0.7045,0.6977,0.6896,0.6654,0.6487,0.6429,0.5947,0.5354,0.4727,0.3869,0.2856,0.1646,0.1176,0.0628,0.0,0.0,0.0,0.0,0.0,0.0,0.0,0.0,0.0,1.5257,0.0,0.0,1.5618,1.5638,1.5712,1.6005,1.6072,1.6132,1.6346,1.6393,1.646,1.6667,1.6774,1.6827,1.6827,1.7074,1.732,1.732,1.7501,1.7582,1.7582,1.7582,1.7582,1.7582,1.7582,1.7582,1.7582,1.7582,1.7582,1.7582,1.7582,1.7582,1.7582,1.7582,1.7582,1.7582,1.7582,1.7041,1.6009,1.6009,1.547,1.4449,1.4073,1.3642,1.3264,1.2186,1.1675,1.1478,1.0741,1.0427,1.0382,1.108,1.134,1.117,0.9653,0.8871,0.8482,0.8137,0.7988,0.7988,0.7988,0.7988,0.7988,0.7988,0.7988,0.7988,0.7988,0.7988,0.7988,0.7988,0.7988,0.7988,0.7988,0.7907,0.7862,0.7821,0.7729,0.7614,0.7461,0.7446,0.7336,0.7224,0.7125,0.7095,0.7095,0.7095,0.7095,0.7095,0.7095,0.7041,0.6903,0.6729,0.6563,0.6518,0.6419,0.6025,0.5198,0.4882,0.4025,0.2504,0.1919,0.1254,0.0471,0.0157,0.0,0.0,0.0,0.0,0.0,0.0,0.0,0.0,0.0,1.5885,1.6172,1.6246,1.6319,1.6613,1.668,1.668,1.6693,1.6693,1.6693,1.6707,1.6991,1.7186,1.7186,1.7434,1.7569,1.7569,1.7575,1.7582,1.7582,1.7582,1.7582,0.0,1.7582,1.7582,1.7582,1.7582,1.7582,1.7582,1.7582,1.7582,1.7582,1.7582,1.7582,1.7582,1.7582,1.7582,1.7529,1.7529,1.7523,1.7417,1.6009,1.4609,1.3318,1.3264,1.3205,1.3293,1.4348,1.3159,1.0922,1.3247,1.2472,1.0194,1.1361,1.1023,0.9752,0.8432,0.7988,0.7988,0.7988,0.7988,0.7988,0.7988,0.7988,0.7988,0.7988,0.7988,0.7988,0.7988,0.7988,0.7988,0.7988,0.7985,0.7941,0.7841,0.7807,0.7763,0.7621,0.7472,0.7415,0.7412,0.7241,0.7095,0.7095,0.7095,0.7095,0.7095,0.7095,0.7041,0.6903,0.6876,0.6797,0.6538,0.6508,0.6407,0.6268,0.5276,0.4686,0.4608,0.266,0.1568,0.1568,0.0549,0.0,0.0,0.0,0.0,0.0,0.0,0.0,0.0,0.0,1.6192,1.6486,1.656,1.6587,1.6687,1.6707,1.676,1.7012,1.684,1.6767,1.7018,1.7132,1.7199,1.7199,1.7447,1.7582,1.7582,1.7582,1.7582,1.7582,1.7582,0.0,0.0,0.0,0.0,1.7582,1.7582,1.7582,1.7582,1.7582,1.7582,1.7582,1.7582,1.7582,1.7582,1.7582,1.7582,1.7582,1.7582,1.7582,1.7582,1.7094,1.6605,1.6121,1.5097,1.4716,1.4657,1.4094,1.3762,1.3522,1.3287,1.3607,1.3972,1.244,1.2183,1.228,1.0092,0.9316,0.9167,0.8283,0.7988,0.7988,0.7988,0.7988,0.7988,0.7988,0.7988,0.7988,0.7988,0.7988,0.7988,0.7988,0.7988,0.7975,0.7924,0.7914,0.787,0.777,0.7699,0.76,0.745,0.7329,0.7258,0.7112,0.7095,0.7095,0.7095,0.7095,0.7078,0.7031,0.6943,0.6848,0.6641,0.6569,0.6453,0.631,0.5944,0.5431,0.4727,0.3359,0.2268,0.1607,0.0549,0.0,0.0,0.0,0.0,0.0,0.0,0.0,1.6219,1.6346,1.65,1.6794,1.6867,1.6887,1.6994,1.7021,1.7074,1.7313,1.7119,1.6921,1.7166,1.7199,1.7166,1.7058,1.7293,1.7481,1.7481,1.7481,1.7468,1.7569,1.7582,0.0,0.0,0.0,0.0,1.7582,1.7582,1.7582,1.7582,1.7582,1.7582,1.7582,1.7582,1.7582,1.7582,1.7582,1.7582,1.7582,1.7582,1.7582,1.7582,1.7582,1.7582,1.7529,1.6605,1.6174,1.6121,1.5204,1.4953,1.5018,1.4333,1.4695,1.5377,1.3881,1.3836,1.422,1.1604,1.0681,1.0534,0.9653,0.9069,0.8726,0.8726,0.8382,0.7988,0.7988,0.7988,0.7988,0.7988,0.7988,0.7988,0.7988,0.7988,0.7988,0.7988,0.7988,0.7961,0.7913,0.7848,0.775,0.756,0.7441,0.7319,0.7119,0.7095,0.7095,0.7095,0.7095,0.7095,0.7095,0.7014,0.6903,0.6797,0.6644,0.6532,0.6385,0.6327,0.5983,0.5315,0.4256,0.3203,0.2152,0.1097,0.0392,0.0,0.0,0.0,0.0,0.0,0.0,1.6362,1.652,1.68,1.7146,1.7226,1.7293,1.7522,1.7582,1.7582,1.7562,1.738,1.7172,0.0,0.0,1.7085,1.6747,1.6967,1.7226,1.7226,1.7226,1.7326,0.0,0.0,0.0,0.0,0.0,0.0,1.7582,0.0,1.7582,1.7582,1.7582,1.7582,1.7582,1.7582,1.7582,1.7582,1.7582,1.7582,1.7582,1.7582,1.7582,1.7582,1.7582,1.7582,1.7582,1.7582,1.7582,1.7582,1.7582,1.6676,1.5411,1.6258,1.5712,1.4544,1.5399,1.573,1.5439,1.2963,1.2042,1.1994,1.1896,1.1072,1.0096,1.0096,0.9167,0.8088,0.8088,0.8038,0.7988,0.7988,0.7988,0.7988,0.7988,0.7988,0.7988,0.7988,0.7988,0.7988,0.7988,0.7916,0.7811,0.7811,0.7567,0.7322,0.7129,0.7102,0.7095,0.7095,0.7095,0.7095,0.7095,0.7095,0.7038,0.69,0.6797,0.6644,0.6521,0.6385,0.6306,0.63,0.5276,0.4217,0.3202,0.2152,0.1097,0.0079,0.0039,0.0,0.0,0.0,0.0,1.6857,1.7032,1.7159,1.7454,1.7521,1.7548,1.7562,1.7582,1.7522,1.7353,1.7027,1.6754,1.6583,0.0,0.0,1.6714,1.7134,0.0,1.7521,1.7521,0.0,1.7575,0.0,1.7582,1.7582,1.7582,0.0,0.0,1.7582,1.7582,1.7582,1.7582,1.7582,1.7582,1.7582,1.7582,1.7582,1.7582,1.7582,1.7582,1.7582,1.7582,1.7582,1.7582,1.7582,1.7582,1.7582,1.7582,1.7582,1.7582,1.7377,1.6885,1.5706,1.5632,1.5968,1.483,1.4997,1.5683,1.5051,1.4172,1.3247,1.2237,1.1702,1.1414,1.1414,1.0534,0.9509,0.9509,0.8775,0.7988,0.7988,0.7988,0.7988,0.7988,0.7988,0.7988,0.7988,0.7988,0.7988,0.7988,0.7916,0.7811,0.7811,0.7567,0.7402,0.7319,0.7214,0.7095,0.7095,0.7095,0.7095,0.7095,0.7095,0.7038,0.69,0.6852,0.6756,0.6528,0.6477,0.6412,0.6303,0.5276,0.4569,0.4295,0.2504,0.145,0.1176,0.0392,0.0,0.0,0.0,0.0,1.7079,1.7293,1.7434,1.7542,1.7582,1.7549,1.7474,1.744,1.736,1.7014,1.672,0.0,1.6348,0.0,0.0,0.0,0.0,0.0,1.744,1.744,1.7494,0.0,1.7582,0.0,1.7582,1.7582,1.7582,0.0,1.7582,1.7582,1.7582,1.7582,1.7582,1.7582,1.7582,1.7582,1.7582,1.7582,1.7582,1.7582,1.7582,1.7582,1.7582,1.7582,1.7582,1.7582,0.0,1.7582,1.7582,1.7582,1.7582,1.7483,1.6285,1.6195,1.6547,1.5388,1.5297,1.5784,1.5784,1.5337,1.4609,1.3884,1.3253,1.277,1.277,1.1896,1.0828,1.0828,1.0288,0.9608,0.9019,0.8874,0.8726,0.8137,0.7988,0.7988,0.7988,0.7988,0.7988,0.7988,0.7921,0.7889,0.7824,0.7675,0.7522,0.7436,0.7295,0.7217,0.7105,0.7095,0.7095,0.7095,0.7095,0.7065,0.6987,0.692,0.6827,0.6586,0.6549,0.645,0.6306,0.5709,0.5196,0.4727,0.3556,0.2504,0.1607,0.098,0.0471,0.0,0.0,0.0,1.7179,1.744,1.7582,1.7582,1.7582,1.7508,1.7266,1.7199,1.7105,1.672,0.0,1.6308,1.6219,1.6453,1.658,1.6366,0.0,1.7213,1.7253,1.7259,1.7353,1.7555,1.7582,1.7582,1.7582,1.7582,1.7582,1.7582,1.7582,1.7582,1.7582,1.7582,1.7582,1.7582,1.7582,1.7582,1.7582,1.7582,1.7582,1.7582,1.7582,1.7582,1.7582,1.7582,1.7582,1.7582,0.0,0.0,1.7582,1.7582,1.7582,1.7555,1.7313,1.7038,1.6727,1.64,1.6112,1.5879,1.5798,1.5784,1.5784,1.5784,1.5045,1.4166,1.4166,1.3204,1.2188,1.2188,1.2042,1.1658,1.0534,1.0145,0.9706,0.8528,0.8137,0.7988,0.7988,0.7988,0.7988,0.7988,0.7988,0.7948,0.7865,0.7824,0.7719,0.7444,0.7429,0.7316,0.7115,0.7095,0.7095,0.7095,0.7095,0.7095,0.7095,0.6984,0.6849,0.6742,0.6586,0.6477,0.6334,0.631,0.5867,0.4924,0.4766,0.383,0.1997,0.1724,0.1137,0.0196,0.0079,0.0,1.7428,1.7542,1.7582,1.7582,1.7582,1.7508,1.7266,1.7199,0.0,0.0,0.0,1.6199,1.5952,1.6152,0.0,1.66,0.0,0.0,0.0,0.0,1.7522,0.0,0.0,0.0,0.0,0.0,0.0,0.0,0.0,1.7582,1.7582,1.7582,1.7582,1.7582,1.7582,1.7582,1.7582,1.7582,1.7582,1.7582,1.7582,1.7582,1.7582,1.7582,1.7582,1.7582,1.7582,0.0,1.7582,1.7582,1.7582,1.7555,1.7313,1.7166,1.7058,1.6522,1.6239,1.6159,1.5912,1.5784,1.5784,1.5784,1.5635,1.5486,1.5486,1.4561,1.3536,1.3536,1.2764,1.1848,1.1604,1.0779,0.9948,0.9706,0.8825,0.7988,0.7988,0.7988,0.7988,0.7988,0.7988,0.7982,0.7955,0.7896,0.7753,0.7587,0.7451,0.7316,0.7115,0.7095,0.7095,0.7095,0.7095,0.7095,0.7095,0.7071,0.6997,0.6856,0.6746,0.6593,0.648,0.6361,0.6222,0.6025,0.5157,0.453,0.4142,0.2426,0.1489,0.1293,0.0432,0.0,1.7462,1.7582,1.7582,1.7582,1.7582,1.7468,1.7021,0.0,0.0,0.0,0.0,1.5999,1.5804,0.0,0.0,0.0,0.0,0.0,0.0,0.0,0.0,0.0,0.0,0.0,0.0,0.0,0.0,0.0,0.0,1.7582,1.7582,1.7582,1.7582,1.7582,1.7582,1.7582,1.7582,1.7582,1.7582,1.7582,1.7582,1.7582,1.7582,1.7582,1.7582,1.7582,1.7582,0.0,1.7582,1.7582,1.7582,1.7569,1.7481,1.7333,1.7146,1.666,1.64,1.6226,1.5932,1.5784,1.5784,1.5784,1.5784,1.5784,1.5784,1.5384,1.4902,1.4902,1.4418,1.3788,1.3102,1.2474,1.1843,1.1165,0.9998,0.8874,0.8137,0.8528,0.8825,0.8137,0.8577,0.8825,0.8137,0.7928,0.7855,0.7634,0.7536,0.7407,0.7125,0.7095,0.7095,0.7095,0.7095,0.7095,0.7095,0.7095,0.7038,0.6896,0.6861,0.6715,0.6521,0.6446,0.6375,0.6303,0.5786,0.5276,0.4688,0.3713,0.266,0.1607,0.1058,0.0549,1.7442,1.7582,1.7582,1.7582,1.7535,1.7355,1.6827,1.666,0.0,0.0,1.5784,1.5784,1.5784,0.0,0.0,0.0,0.0,0.0,0.0,0.0,0.0,0.0,0.0,0.0,0.0,0.0,0.0,0.0,0.0,0.0,1.7582,1.7582,1.7582,1.7582,1.7582,1.7582,1.7582,1.7582,1.7582,1.7582,1.7582,1.7582,1.7582,1.7582,1.7582,1.7582,1.7582,0.0,0.0,1.7582,1.7582,1.7582,1.7582,1.7494,1.7253,1.684,1.656,1.6313,1.5952,1.5784,1.5784,1.5784,1.5784,1.5784,1.5784,1.5784,1.5784,1.5784,1.5784,1.5581,1.4555,1.4118,1.3536,1.2237,1.1121,1.0096,0.9069,0.9657,1.0096,0.9019,0.946,0.9657,0.8627,0.8187,0.7891,0.7645,0.76,0.7489,0.7136,0.7095,0.7095,0.7095,0.7095,0.7095,0.7095,0.7095,0.7048,0.694,0.6903,0.6807,0.6573,0.6528,0.6446,0.6303,0.63,0.5867,0.504,0.4805,0.3867,0.2271,0.1802,0.1137,1.7495,1.7582,1.7582,1.7582,1.7434,1.7152,1.678,0.0,0.0,1.5844,1.5784,1.5784,1.5784,1.5852,1.5959,0.0,0.0,0.0,0.0,0.0,0.0,0.0,0.0,0.0,0.0,0.0,0.0,0.0,0.0,0.0,1.7582,1.7582,1.7582,1.7582,1.7582,1.7582,1.7582,1.7582,1.7582,1.7582,1.7582,1.7582,1.7582,1.7582,1.7582,1.7582,1.7582,0.0,0.0,1.7582,1.7582,1.7582,1.7582,1.7562,1.7475,1.6914,1.6687,1.6587,1.6025,1.5784,1.5784,1.5784,1.5784,1.5784,1.5784,1.5784,1.5784,1.5784,1.5784,1.5784,1.5683,1.4752,1.3536,1.2237,1.1799,1.1702,1.156,1.1653,1.1707,1.156,1.073,0.9948,0.985,0.8825,0.7891,0.7645,0.76,0.7489,0.7136,0.7095,0.7095,0.7095,0.7095,0.7095,0.7095,0.7095,0.7092,0.7078,0.6957,0.6854,0.6685,0.6546,0.6446,0.6303,0.63,0.6261,0.6141,0.5157,0.4608,0.4375,0.2465,0.1528,1.7246,1.7373,1.7373,1.7373,1.7286,1.7079,1.6553,0.0,1.6186,1.5892,1.5784,1.5784,1.5784,1.5784,1.5818,0.0,0.0,0.0,0.0,0.0,0.0,0.0,0.0,0.0,0.0,0.0,0.0,0.0,0.0,0.0,1.7582,1.7582,1.7582,1.7582,1.7582,1.7582,1.7582,1.7582,1.7582,1.7582,1.7582,1.7582,1.7582,1.7582,1.7582,1.7582,1.7582,0.0,0.0,1.7582,1.7582,1.7582,1.7582,1.7475,1.7326,1.6854,1.6593,1.6386,1.5972,1.5784,1.5784,1.5784,1.5784,1.5784,1.5784,1.5784,1.5784,1.5784,1.5784,1.5784,1.5784,1.5439,1.4704,1.3392,1.3102,1.2866,1.2091,1.2528,1.2861,1.2042,1.2134,1.2081,1.1263,1.0047,0.91,0.8796,0.8103,0.7489,0.7136,0.7095,0.7095,0.7095,0.7095,0.7095,0.7095,0.7095,0.7095,0.7095,0.7045,0.6906,0.6712,0.6644,0.6502,0.6306,0.63,0.63,0.63,0.5867,0.5315,0.4686,0.3867,0.2778,1.6931,1.7072,1.7072,1.7072,1.7005,1.6831,0.0,0.0,1.6079,1.5872,1.5784,1.5784,1.5784,1.5784,1.5784,0.0,0.0,1.6172,0.0,0.0,0.0,0.0,0.0,0.0,0.0,0.0,0.0,0.0,0.0,0.0,0.0,1.7582,1.7582,1.7582,1.7582,1.7582,1.7582,1.7582,1.7582,1.7582,1.7582,1.7582,1.7582,1.7582,1.7582,1.7582,0.0,0.0,0.0,1.7582,1.7582,1.7582,1.7582,1.746,1.7166,1.6814,1.652,1.6226,1.5932,1.5784,1.5784,1.5784,1.5784,1.5784,1.5784,1.5784,1.5784,1.5784,1.5784,1.5784,1.5784,1.5784,1.5581,1.4657,1.4459,1.422,1.3253,1.3782,1.4172,1.3253,1.3494,1.3584,1.2668,1.1409,1.0321,0.9699,0.8777,0.8047,0.7726,0.734,0.7228,0.7577,0.7316,0.7095,0.7095,0.7095,0.7095,0.7095,0.7095,0.6964,0.6712,0.6702,0.6563,0.6306,0.63,0.63,0.63,0.63,0.5906,0.5157,0.4844,0.3597,1.6627,1.6707,1.6707,1.6707,1.6493,1.6328,0.0,0.0,1.5784,1.5784,1.5784,1.5784,1.5784,1.5784,1.5784,1.5784,1.5784,0.0,0.0,0.0,0.0,0.0,0.0,0.0,0.0,0.0,0.0,0.0,0.0,0.0,0.0,1.7582,1.7582,1.7582,1.7582,1.7582,1.7582,1.7582,1.7582,1.7582,1.7582,1.7582,1.7582,1.7582,1.7582,0.0,0.0,0.0,0.0,1.7582,1.7582,1.7582,1.7582,1.746,1.7166,1.6814,1.652,1.6226,1.5932,1.5784,1.5784,1.5784,1.5784,1.5784,1.5784,1.5784,1.5784,1.5784,1.5784,1.5784,1.5784,1.5784,1.5784,1.5778,1.5784,1.5784,1.5778,1.5784,1.5784,1.5778,1.4752,1.3926,1.3878,1.2764,1.1385,1.0027,0.9597,0.9405,0.9128,0.7934,0.7577,0.8759,0.7797,0.7095,0.7095,0.7095,0.7095,0.7095,0.7095,0.6964,0.6712,0.6702,0.6563,0.6306,0.63,0.63,0.63,0.63,0.63,0.6261,0.5198,0.3597,1.6326,1.6413,1.6413,1.6413,1.6339,1.6219,1.6019,0.0,1.5784,1.5784,1.5784,1.5784,1.5784,1.5784,1.5784,1.5784,1.5784,0.0,0.0,0.0,0.0,0.0,0.0,0.0,0.0,0.0,0.0,0.0,0.0,0.0,0.0,1.7582,1.7582,1.7582,1.7582,1.7582,1.7582,1.7582,1.7582,1.7582,1.7582,1.7582,1.7582,1.7582,0.0,0.0,0.0,0.0,0.0,1.7582,1.7582,1.7562,1.7414,1.7108,1.6807,1.652,1.6226,1.5952,1.5865,1.5784,1.5784,1.5784,1.5784,1.5784,1.5784,1.5784,1.5784,1.5784,1.5784,1.5784,1.5784,1.5784,1.5784,1.5784,1.5784,1.5784,1.5784,1.5784,1.5784,1.5784,1.5486,1.5194,1.5194,1.4124,1.3073,1.2545,1.1466,1.0649,1.0477,0.9914,0.9357,0.8934,0.854,0.8017,0.7183,0.7095,0.7095,0.7095,0.7095,0.6964,0.6712,0.6702,0.6563,0.6306,0.63,0.63,0.63,0.63,0.63,0.6261,0.5198,0.3945,0.0,1.6106,1.6106,1.6106,1.6106,0.0,0.0,0.0,1.5784,1.5784,1.5784,1.5784,1.5784,1.5784,1.5784,1.5784,1.5784,0.0,0.0,0.0,0.0,0.0,0.0,0.0,0.0,0.0,0.0,0.0,0.0,0.0,0.0,1.7582,1.7582,1.7582,1.7582,1.7582,1.7582,1.7582,1.7582,1.7582,1.7582,1.7582,1.7582,1.7582,0.0,0.0,0.0,0.0,0.0,1.7582,1.7582,1.7555,1.7313,1.7018,1.6667,1.638,1.6086,1.5784,1.5784,1.5784,1.5784,1.5784,1.5784,1.5784,1.5784,1.5784,1.5784,1.5784,1.5784,1.5784,1.5784,1.5784,1.5784,1.5784,1.5784,1.5784,1.5784,1.5784,1.5784,1.5784,1.5784,1.5784,1.5784,1.514,1.4374,1.3684,1.2681,1.193,1.1688,1.1058,1.0481,1.0221,0.9405,0.8584,0.7841,0.736,0.7095,0.7095,0.7095,0.6964,0.6712,0.6702,0.6563,0.6306,0.63,0.63,0.63,0.63,0.63,0.6261,0.5198,0.4334,0.0,1.5784,0.0,0.0,0.0,0.0,0.0,0.0,0.0,1.5784,1.5784,1.5784,1.5784,1.5784,1.5784,1.5784,1.5784,0.0,0.0,0.0,0.0,0.0,0.0,0.0,0.0,0.0,0.0,0.0,0.0,0.0,0.0,1.7582,1.7582,1.7582,1.7582,1.7582,1.7582,1.7582,1.7582,1.7582,1.7582,1.7582,1.7582,1.7582,0.0,0.0,0.0,0.0,0.0,1.7582,1.7569,1.7522,1.7286,1.6934,1.664,1.6346,1.6066,1.5784,1.5784,1.5784,1.5784,1.5784,1.5784,1.5784,1.5784,1.5784,1.5784,1.5784,1.5784,1.5784,1.5784,1.5784,1.5784,1.5784,1.5784,1.5784,1.5784,1.5784,1.5784,1.5784,1.5784,1.5784,1.5784,1.5784,1.5293,1.3766,1.3417,1.3162,1.2806,1.1625,1.1209,1.22,1.0394,0.9104,0.9021,0.7841,0.7095,0.7095,0.7095,0.6964,0.6712,0.6702,0.6563,0.6306,0.63,0.63,0.63,0.63,0.63,0.6261,0.5276,0.4766,1.5784,0.0,1.5784,1.5784,1.5784,1.5784,0.0,0.0,0.0,0.0,0.0,0.0,0.0,1.5784,1.5784,1.5784,1.5784,0.0,0.0,0.0,0.0,0.0,0.0,0.0,0.0,0.0,0.0,0.0,0.0,0.0,0.0,1.7582,1.7582,1.7582,1.7582,1.7582,1.7582,1.7582,1.7582,1.7582,1.7582,1.7582,1.7582,1.7582,0.0,0.0,0.0,0.0,1.7582,1.7582,1.7507,1.7273,1.6927,1.6633,1.6339,1.6046,1.5885,1.5784,1.5784,1.5784,1.5784,1.5784,1.5784,1.5784,1.5784,1.5784,1.5784,1.5784,1.5784,1.5784,1.5784,1.5784,1.5784,1.5784,1.5784,1.5784,1.5784,1.5784,1.5784,1.5784,1.5784,1.5784,1.5784,1.5784,1.5583,1.5007,1.4728,1.4442,1.4106,1.3606,1.3033,1.237,1.1809,1.1166,1.0269,0.8317,0.7095,0.7095,0.7095,0.6964,0.6712,0.6702,0.6563,0.6306,0.63,0.63,0.63,0.63,0.63,0.63,0.6025,0.5473,1.5784,1.5784,1.5784,1.5784,1.5784,1.5784,1.5784,0.0,0.0,0.0,0.0,0.0,0.0,0.0,0.0,0.0,0.0,0.0,0.0,0.0,0.0,0.0,0.0,0.0,0.0,0.0,0.0,0.0,0.0,0.0,0.0,1.7582,1.7582,1.7582,1.7582,1.7582,1.7582,1.7582,1.7582,1.7582,1.7582,1.7582,1.7582,1.7582,1.7582,0.0,0.0,0.0,1.7582,1.7582,1.7467,1.7172,1.682,1.6526,1.6239,1.5939,1.5784,1.5784,1.5784,1.5784,1.5784,1.5784,1.5784,1.5784,1.5784,1.5784,1.5784,1.5784,1.5784,1.5784,1.5784,1.5784,1.5784,1.5784,1.5784,1.5784,1.5784,1.5784,1.5784,1.5784,1.5784,1.5784,1.5784,1.5784,1.5685,1.5264,1.5109,1.481,1.4376,1.4182,1.3864,1.3203,1.2632,1.2066,1.1423,0.974,0.8488,0.7973,0.7401,0.6964,0.6712,0.6702,0.6563,0.6306,0.63,0.63,0.63,0.63,0.63,0.63,0.63,0.5983,1.5784,1.5784,1.5784,1.5784,1.5784,1.5784,1.5784,0.0,0.0,0.0,0.0,0.0,0.0,0.0,0.0,0.0,0.0,0.0,0.0,0.0,0.0,0.0,0.0,0.0,0.0,0.0,0.0,0.0,0.0,0.0,0.0,1.7582,1.7582,1.7582,1.7582,1.7582,1.7582,1.7582,1.7582,1.7582,1.7582,1.7582,1.7582,1.7582,1.7582,0.0,0.0,0.0,1.7582,1.7582,1.7434,1.7112,1.6807,1.65,1.6172,1.5919,1.5784,1.5784,1.5784,1.5784,1.5784,1.5784,1.5784,1.5784,1.5784,1.5784,1.5784,1.5784,1.5784,1.5784,1.5784,1.5784,1.5784,1.5784,1.5784,1.5784,1.5784,1.5784,1.5784,1.5784,1.5784,1.5784,1.5784,1.5784,1.5631,1.5095,1.5008,1.4794,1.4162,1.4088,1.4088,1.4088,1.3203,1.2589,1.2589,1.1515,1.0438,0.9492,0.8145,0.718,0.6712,0.6658,0.6515,0.6306,0.63,0.63,0.63,0.63,0.63,0.63,0.63,0.63,1.5784,1.5784,1.5784,1.5784,1.5784,1.5784,1.5784,0.0,0.0,0.0,0.0,0.0,0.0,0.0,0.0,0.0,0.0,0.0,0.0,0.0,0.0,0.0,0.0,0.0,0.0,0.0,0.0,0.0,0.0,0.0,0.0,0.0,1.7582,1.7582,1.7582,1.7582,1.7582,1.7582,1.7582,1.7582,1.7582,1.7582,1.7582,1.7582,1.7582,0.0,0.0,1.7582,1.7582,1.7582,1.7261,1.6767,1.6727,1.6373,1.5892,1.5798,1.5784,1.5784,1.5784,1.5784,1.5784,1.5784,1.5784,1.5784,1.5784,1.5784,1.5784,1.5784,1.5784,1.5784,1.5784,1.5784,1.5784,1.5784,1.5784,1.5784,1.5784,1.5784,1.5784,1.5784,1.5784,1.5784,1.5784,1.5784,1.5631,1.5095,1.5008,1.4794,1.4162,1.4088,1.4088,1.4088,1.3913,1.3822,1.3822,1.2723,1.1938,1.1809,0.9792,0.8037,0.6753,0.6501,0.6344,0.6303,0.63,0.63,0.63,0.63,0.63,0.63,0.63,0.63,1.5784,1.5784,1.5784,1.5784,1.5784,1.5784,0.0,0.0,0.0,0.0,0.0,0.0,0.0,0.0,0.0,0.0,0.0,0.0,0.0,0.0,0.0,0.0,0.0,0.0,0.0,0.0,0.0,0.0,0.0,0.0,0.0,0.0,1.7582,1.7582,1.7582,1.7582,1.7582,1.7582,1.7582,1.7582,1.7582,1.7582,1.7582,1.7582,1.7582,1.7582,0.0,1.7582,1.7569,1.7467,1.7094,1.6693,1.6533,1.6206,1.5784,1.5784,1.5784,1.5784,1.5784,1.5784,1.5784,1.5784,1.5784,1.5784,1.5784,1.5784,1.5784,1.5784,1.5784,1.5784,1.5784,1.5784,1.5784,1.5784,1.5784,1.5784,1.5784,1.5784,1.5784,1.5784,1.5784,1.5784,1.5784,1.5784,1.5631,1.5095,1.5008,1.4794,1.4162,1.4088,1.4088,1.4088,1.4088,1.4088,1.4088,1.3597,1.2467,1.0567,0.9327,0.8048,0.6747,0.6457,0.63,0.63,0.63,0.63,0.63,0.63,0.63,0.63,0.63,0.63,1.5784,1.5784,1.5784,1.5784,0.0,0.0,0.0,0.0,0.0,0.0,0.0,0.0,0.0,0.0,0.0,0.0,0.0,0.0,0.0,0.0,0.0,0.0,0.0,0.0,0.0,0.0,0.0,0.0,0.0,0.0,0.0,0.0,1.7582,1.7582,1.7582,1.7582,1.7582,1.7582,1.7582,1.7582,1.7582,1.7582,1.7582,1.7582,1.7582,1.7582,1.7582,1.7582,1.7562,1.732,1.6974,1.6673,1.6386,1.6092,1.5784,1.5784,1.5784,1.5784,1.5784,1.5784,1.5784,1.5784,1.5784,1.5784,1.5784,1.5784,1.5784,1.5784,1.5784,1.5784,1.5784,1.5784,1.5784,1.5784,1.5784,1.5784,1.5784,1.5784,1.5784,1.5784,1.5784,1.5784,1.5784,1.5784,1.5631,1.5095,1.5008,1.4794,1.4162,1.4088,1.4088,1.4088,1.4088,1.4088,1.4088,1.4088,1.2826,0.9884,0.9113,0.836,0.7473,0.7158,0.6907,0.6644,0.6644,0.6528,0.63,0.63,0.63,0.63,0.63,0.63,1.5784,1.5784,1.5784,1.5784,1.5784,0.0,1.5784,1.5784,0.0,1.5784,0.0,0.0,0.0,0.0,0.0,0.0,0.0,0.0,0.0,0.0,0.0,0.0,0.0,0.0,0.0,0.0,0.0,0.0,0.0,0.0,0.0,0.0,0.0,1.7582,1.7582,1.7582,1.7582,1.7582,1.7582,1.7582,1.7582,1.7582,1.7582,1.7582,1.7582,1.7582,1.7582,1.7582,1.7562,1.732,1.6974,1.6673,1.6386,1.6092,1.5784,1.5784,1.5784,1.5784,1.5784,1.5784,1.5784,1.5784,1.5784,1.5784,1.5784,1.5784,1.5784,1.5784,1.5784,1.5784,1.5784,1.5784,1.5784,1.5784,1.5784,1.5784,1.5784,1.5784,1.5784,1.5784,1.5784,1.5784,1.5784,1.5784,1.5631,1.5095,1.5008,1.4794,1.4162,1.4088,1.4088,1.4088,1.4088,1.4088,1.4088,1.4088,1.3519,1.2157,1.0641,0.9736,0.9655,0.9296,0.8651,0.7706,0.7706,0.7249,0.63,0.63,0.63,0.63,0.63,0.63,1.5784,1.5784,1.5784,1.5784,1.5784,0.0,0.0,1.5784,1.5784,1.5784,1.5784,0.0,0.0,0.0,0.0,0.0,0.0,0.0,0.0,0.0,0.0,0.0,0.0,0.0,0.0,0.0,0.0,0.0,0.0,0.0,0.0,0.0,0.0,1.7582,1.7582,1.7582,1.7582,1.7582,1.7582,1.7582,1.7582,1.7582,1.7582,1.7582,1.7582,1.7582,1.7582,1.7534,1.734,1.6994,1.67,1.6406,1.6112,1.5925,1.5784,1.5784,1.5784,1.5784,1.5784,1.5784,1.5784,1.5784,1.5784,1.5784,1.5784,1.5784,1.5784,1.5784,1.5784,1.5784,1.5784,1.5784,1.5784,1.5784,1.5784,1.5784,1.5784,1.5784,1.5784,1.5784,1.5784,1.5784,1.5784,1.5784,1.5631,1.5095,1.5008,1.4794,1.4162,1.4088,1.4088,1.4088,1.4088,1.4088,1.4088,1.4088,1.3906,1.3464,1.1899,1.0675,0.9938,0.9524,0.9107,0.8732,0.8127,0.7629,0.7211,0.6606,0.63,0.63,0.63,0.63,1.5784,1.5784,1.5784,1.5784,0.0,0.0,1.5784,1.5784,1.5784,1.5784,1.5905,0.0,0.0,0.0,0.0,0.0,0.0,0.0,0.0,0.0,0.0,0.0,0.0,0.0,0.0,0.0,0.0,0.0,0.0,0.0,0.0,0.0,0.0,0.0,1.7582,1.7582,1.7582,1.7582,1.7582,1.7582,1.7582,1.7582,1.7582,1.7582,1.7582,1.7582,1.7582,1.7467,1.7179,1.6827,1.648,1.6161,1.6327,1.6386,1.6433,1.6842,1.6749,1.6386,1.6386,1.6157,1.5784,1.5784,1.5784,1.5784,1.5784,1.5784,1.5784,1.5784,1.5784,1.5784,1.5784,1.5784,1.5784,1.5784,1.5784,1.5784,1.5784,1.5784,1.5784,1.5784,1.5784,1.5784,1.5784,1.5752,1.5524,1.5082,1.4928,1.4643,1.4148,1.4088,1.4088,1.4088,1.4088,1.4088,1.4088,1.4088,1.4088,1.4088,1.2904,1.1782,1.0997,1.0489,1.0088,0.9782,0.9102,0.8423,0.7783,0.7099,0.6606,0.63,0.63,0.63,1.5784,1.5784,1.5784,0.0,0.0,0.0,1.5784,1.5784,1.5784,1.5784,0.0,0.0,0.0,0.0,0.0,0.0,0.0,0.0,0.0,0.0,0.0,0.0,0.0,0.0,0.0,0.0,0.0,0.0,0.0,0.0,0.0,0.0,0.0,0.0,1.7582,1.7582,1.7582,1.7582,1.7635,1.7635,1.7635,1.7635,1.7582,1.7582,1.7582,1.7582,1.7582,1.7467,1.7172,1.682,1.6353,1.592,1.7225,1.7692,1.787,1.9039,1.8726,1.7738,1.7738,1.6897,1.5825,1.5825,1.5832,1.5784,1.5784,1.5784,1.5784,1.5784,1.5832,1.5825,1.5784,1.5832,1.5825,1.5784,1.5784,1.5784,1.5784,1.5784,1.5784,1.5784,1.5784,1.5784,1.5784,1.5585,1.5297,1.5055,1.471,1.4416,1.4122,1.4088,1.4088,1.4088,1.4088,1.4088,1.4088,1.4088,1.4088,1.4088,1.3534,1.3213,1.3213,1.2625,1.1842,1.082,1.0783,0.9809,0.7821,0.7821,0.7288,0.63,0.63,0.63,1.5784,1.5784,0.0,1.5784,0.0,0.0,0.0,1.5784,0.0,0.0,0.0,0.0,0.0,0.0,0.0,0.0,0.0,0.0,0.0,0.0,0.0,0.0,0.0,0.0,0.0,0.0,0.0,0.0,0.0,0.0,0.0,0.0,0.0,0.0,1.7582,1.7582,1.7582,1.7582,1.8094,1.902,1.902,1.8506,1.7582,1.7582,1.7582,1.7582,1.7582,1.7295,1.68,1.6299,1.6504,1.7178,1.7552,1.8234,1.9001,1.936,1.9268,1.8956,1.8956,1.818,1.7131,1.7131,1.6527,1.5784,1.5784,1.5784,1.5784,1.5784,1.6433,1.6943,1.6015,1.648,1.6897,1.6015,1.5784,1.5784,1.5784,1.5784,1.5784,1.5784,1.5784,1.5784,1.5784,1.5585,1.5297,1.5055,1.471,1.4416,1.4122,1.4088,1.4088,1.4088,1.4088,1.4088,1.4088,1.4088,1.4088,1.4088,1.3534,1.3213,1.3213,1.2625,1.215,1.1848,1.1162,1.0522,0.9922,0.8494,0.7629,0.7326,0.6641,0.63,1.5784,1.5784,0.0,1.5784,1.5784,1.5784,1.5784,0.0,0.0,0.0,0.0,0.0,0.0,0.0,0.0,0.0,0.0,0.0,0.0,0.0,0.0,0.0,0.0,0.0,0.0,0.0,0.0,0.0,0.0,0.0,0.0,0.0,0.0,0.0,1.7891,1.7582,1.7582,1.8146,1.8812,1.9627,2.0187,2.0025,1.9213,1.9213,1.9213,1.9199,1.8942,1.8196,1.7267,1.7279,1.7716,1.8457,1.8956,1.9579,2.026,2.0764,2.0629,2.0215,2.0215,1.9405,1.8411,1.8411,1.7584,1.6574,1.6574,1.6197,1.5927,1.6433,1.7131,1.7638,1.7343,1.7855,1.7948,1.6197,1.5784,1.5784,1.5784,1.5784,1.5784,1.5784,1.5784,1.5792,1.5678,1.5418,1.5124,1.483,1.4536,1.4282,1.4108,1.4088,1.4088,1.4088,1.4088,1.4088,1.4088,1.4088,1.4088,1.4088,1.3534,1.3213,1.3213,1.2625,1.2305,1.2305,1.1694,1.1199,1.0783,0.9588,0.8575,0.7783,0.7176,0.6679,1.5784,0.0,0.0,1.5784,1.5784,0.0,1.5967,0.0,0.0,0.0,0.0,0.0,0.0,0.0,0.0,0.0,0.0,0.0,0.0,0.0,0.0,0.0,0.0,0.0,0.0,0.0,0.0,0.0,0.0,0.0,0.0,0.0,0.0,0.0,1.8603,1.7989,1.7989,1.9169,1.9826,0.0,2.1245,2.1954,2.2055,2.1803,2.1677,2.1611,2.0916,1.9702,1.8331,1.9138,1.9534,1.9761,2.089,2.1382,2.1614,2.2677,2.2403,2.148,2.148,2.0666,1.967,1.967,1.8864,1.787,1.787,1.7084,1.6379,1.7544,1.7963,1.828,1.9222,1.9579,1.9077,1.6702,1.6062,1.592,1.5832,1.5784,1.5784,1.5784,1.5784,1.5684,1.5444,1.5202,1.4901,1.4529,1.4255,1.4088,1.4088,1.4088,1.4088,1.4088,1.4088,1.4088,1.4088,1.4088,1.4088,1.4088,1.3534,1.3213,1.3213,1.2625,1.2305,1.2305,1.2305,1.1848,1.0932,1.082,0.9847,0.8084,0.7893,0.7365,1.5784,1.5784,0.0,0.0,1.5784,1.6062,0.0,0.0,0.0,0.0,0.0,0.0,0.0,0.0,0.0,0.0,0.0,0.0,0.0,0.0,0.0,0.0,0.0,0.0,0.0,0.0,0.0,0.0,0.0,0.0,0.0,0.0,0.0,2.1245,2.099,2.0837,2.0837,2.1092,2.1752,0.0,2.3126,2.384,2.4766,2.2667,2.1486,2.1147,2.0759,2.0172,1.9531,1.9507,2.0079,2.0935,2.1203,2.1889,2.2721,2.3003,2.295,2.2721,2.2721,2.1943,2.0935,2.0935,2.0079,1.9131,1.9131,1.8902,1.8764,1.9039,1.9807,2.035,1.967,2.0215,2.0522,1.9077,1.7994,1.7037,1.6015,1.5784,1.5784,1.5784,1.5784,1.5684,1.5444,1.5202,1.4827,1.4255,1.4128,1.4088,1.4088,1.4088,1.4088,1.4088,1.4088,1.4088,1.4088,1.4088,1.4088,1.4088,1.3534,1.3213,1.3213,1.2625,1.2305,1.2305,1.2305,1.2187,1.1959,1.1162,1.0596,1.011,0.8537,0.8122,1.5784,0.0,0.0,1.5784,0.0,0.0,0.0,0.0,0.0,0.0,0.0,0.0,0.0,0.0,0.0,0.0,0.0,0.0,0.0,0.0,0.0,0.0,0.0,0.0,0.0,0.0,0.0,0.0,0.0,0.0,0.0,2.3026,2.2667,2.2667,2.2055,2.1702,2.1702,2.2357,2.3026,2.3692,2.4353,2.502,2.5635,2.4254,2.2965,2.1772,2.2242,2.1731,2.0617,2.1024,2.1578,2.2173,2.2173,2.2545,2.3091,2.3091,2.3091,2.3091,2.3091,2.2677,2.2173,2.2173,2.1346,2.035,2.035,1.9943,1.9625,2.0215,2.08,2.1293,2.1221,2.1676,2.1854,2.0666,1.9001,1.7505,1.685,1.6716,1.6527,1.592,1.6168,1.6199,1.5367,1.483,1.4442,1.4135,1.4088,1.4088,1.4088,1.4088,1.4088,1.4088,1.4088,1.4088,1.4088,1.4088,1.4088,1.4088,1.3534,1.3213,1.3213,1.2625,1.2305,1.2305,1.2305,1.2305,1.2305,1.1768,1.1273,1.0783,0.9734,0.9253,1.6197,0.0,1.6244,1.6655,1.6608,0.0,0.0,0.0,0.0,0.0,0.0,0.0,0.0,0.0,0.0,0.0,0.0,0.0,0.0,0.0,0.0,0.0,0.0,0.0,0.0,0.0,0.0,0.0,0.0,0.0,2.5693,2.4658,2.4048,2.4048,2.2976,2.2416,2.2416,2.3484,2.4048,2.4048,2.5177,2.5693,2.5693,2.5615,2.4593,2.2981,2.3911,2.3295,2.1712,2.2677,2.3091,2.3091,2.3091,2.3091,2.3091,2.3091,2.3091,2.3091,2.3091,2.3091,2.3091,2.3091,2.2403,2.1614,2.1614,2.089,2.0305,2.1346,2.1614,2.1845,2.2818,2.3091,2.2862,2.1845,1.9951,1.828,1.8048,1.8002,1.7662,1.6544,1.668,1.6691,1.5667,1.4861,1.4454,1.4615,1.4496,1.437,1.437,1.4208,1.4088,1.4088,1.4088,1.4088,1.4088,1.4088,1.4088,1.4088,1.3534,1.3213,1.3213,1.2625,1.2305,1.2305,1.2305,1.2305,1.2305,1.2305,1.1879,1.105,1.0901,1.0453,0.0,0.0,1.7956,0.0,1.9798,0.0,0.0,0.0,0.0,0.0,0.0,0.0,0.0,0.0,0.0,0.0,0.0,0.0,0.0,0.0,0.0,0.0,0.0,0.0,0.0,0.0,0.0,0.0,0.0,0.0,2.5693,2.5538,2.543,2.543,2.5274,2.5177,2.5177,2.5323,2.543,2.543,2.5586,2.5693,2.5674,2.5332,2.4789,2.4154,2.3942,2.3495,2.2862,2.3047,2.3091,2.3091,2.3091,2.3091,2.3091,2.3091,2.3091,2.3091,2.3091,2.3091,2.3091,2.3091,2.3003,2.2862,2.2862,2.2775,2.2633,2.2818,2.2862,2.2906,2.3047,2.3091,2.3047,2.2906,2.18,2.0522,1.9497,1.9268,1.9079,1.8502,1.7211,1.6516,1.7294,1.6369,1.5786,1.6731,1.6075,1.5504,1.5504,1.465,1.4088,1.4088,1.4088,1.4088,1.4088,1.4088,1.4088,1.4088,1.3534,1.3213,1.3213,1.2625,1.2305,1.2305,1.2305,1.2305,1.2305,1.2305,1.2224,1.2077,1.1199,1.1205,1.8864,1.8726,1.8956,0.0,0.0,0.0,0.0,0.0,0.0,0.0,0.0,0.0,0.0,0.0,0.0,0.0,0.0,0.0,0.0,0.0,0.0,0.0,0.0,0.0,0.0,0.0,0.0,0.0,0.0,2.5693,2.5693,2.5693,2.5693,2.5693,2.5693,2.5693,2.5693,2.5693,2.5693,2.5693,2.5693,2.5605,2.5352,2.4902,2.46,2.4394,2.3975,2.3545,2.3091,2.3091,2.3091,2.3091,2.3091,2.3091,2.3091,2.3091,2.3091,2.3091,2.3091,2.3091,2.3091,2.3091,2.3091,2.3091,2.3091,2.3091,2.3091,2.3091,2.3091,2.3091,2.3091,2.3091,2.3091,2.3091,2.2677,2.2173,2.1632,2.0989,2.0348,1.9705,1.8217,1.7143,1.7491,1.6991,1.6764,1.7212,1.6396,1.5696,1.5696,1.4776,1.4088,1.4088,1.4088,1.4088,1.4088,1.4088,1.4015,1.3848,1.344,1.3133,1.2998,1.2532,1.2305,1.2305,1.2305,1.2305,1.2305,1.2305,1.2305,1.2298,1.1848,1.1885,0.0,0.0,2.0034,2.0359,0.0,0.0,0.0,0.0,0.0,0.0,0.0,0.0,0.0,0.0,0.0,0.0,0.0,0.0,0.0,0.0,0.0,0.0,0.0,0.0,0.0,0.0,0.0,0.0,0.0,2.5693,2.5693,2.5693,2.5693,2.5693,2.5693,2.5693,2.5693,2.5693,2.5693,2.5693,2.5693,2.5508,2.5096,2.4619,2.4355,2.4228,2.3809,2.3437,2.3091,2.3091,2.3091,2.3091,2.3091,2.3091,2.3091,2.3091,2.3091,2.3091,2.3091,2.3091,2.3091,2.3091,2.3091,2.3091,2.3091,2.3091,2.3091,2.3091,2.3091,2.3091,2.3091,2.3091,2.3091,2.3091,2.3091,2.3062,2.2955,2.2167,2.124,2.0583,1.9164,1.8117,1.8112,1.7908,1.7819,1.8101,1.7245,1.6429,1.615,1.5179,1.4496,1.4496,1.425,1.4208,1.4489,1.425,1.3961,1.362,1.3367,1.3073,1.2797,1.2496,1.2305,1.2305,1.2305,1.2305,1.2305,1.2305,1.2305,1.2305,1.2305,1.2305,0.0,2.2076,0.0,0.0,0.0,0.0,0.0,0.0,0.0,0.0,0.0,0.0,0.0,0.0,0.0,0.0,0.0,0.0,0.0,0.0,0.0,0.0,0.0,0.0,0.0,0.0,0.0,0.0,0.0,2.5693,2.5693,2.5693,2.5693,2.5693,2.5693,2.5693,2.5693,2.5693,2.5693,2.5693,2.5693,2.5508,2.5096,2.4619,2.4199,2.3799,2.3315,2.312,2.3091,2.3091,2.3091,2.3091,2.3091,2.3091,2.3091,2.3091,2.3091,2.3091,2.3091,2.3091,2.3091,2.3091,2.3091,2.3091,2.3091,2.3091,2.3091,2.3091,2.3091,2.3091,2.3091,2.3091,2.3091,2.3091,2.3091,2.2984,2.2627,2.2185,2.1734,2.1226,1.9965,1.9262,2.0245,1.9599,1.9283,2.0284,1.952,1.843,1.7374,1.6273,1.5621,1.5621,1.4692,1.4489,1.5538,1.4692,1.3961,1.362,1.3367,1.3073,1.2797,1.2496,1.2305,1.2305,1.2305,1.2305,1.2305,1.2305,1.2305,1.2305,1.2305,1.2305,0.0,0.0,0.0,0.0,0.0,0.0,0.0,0.0,0.0,0.0,0.0,0.0,0.0,0.0,0.0,0.0,0.0,0.0,0.0,0.0,0.0,0.0,0.0,0.0,0.0,0.0,0.0,0.0,0.0,0.0,2.5693,2.5693,2.5693,2.5693,2.5693,2.5693,2.5693,2.5693,2.5693,2.5684,2.5449,2.5078,2.4639,2.4209,2.3779,2.3315,2.3159,2.3091,2.3091,2.3091,2.3091,2.3091,2.3091,2.3091,2.3091,2.3091,2.3091,2.3091,2.3091,2.3091,2.3091,2.3091,2.3091,2.3091,2.3091,2.3091,2.3091,2.3091,2.3091,2.3091,2.3091,2.3091,2.3091,2.3091,2.3091,2.2906,2.2266,2.1992,2.1758,2.1278,2.0543,2.0167,2.0518,2.0284,2.0157,2.0527,1.9687,1.8838,1.843,1.7415,1.6723,1.6723,1.6363,1.6034,1.5745,1.5338,1.464,1.3434,1.3267,1.2986,1.2485,1.2358,1.2305,1.2305,1.2305,1.2305,1.2305,1.2305,1.2305,1.2305,1.2305,1.2305,2.3091,0.0,0.0,0.0,0.0,0.0,0.0,0.0,0.0,0.0,0.0,0.0,0.0,0.0,0.0,0.0,0.0,0.0,0.0,0.0,0.0,0.0,0.0,0.0,0.0,0.0,0.0,0.0,0.0,0.0,2.5684,2.5693,2.5693,2.5693,2.5693,2.5693,2.5693,2.5693,2.5693,2.5684,2.5283,2.4834,2.4404,2.3984,2.3555,2.3091,2.3091,2.3091,2.3091,2.3091,2.3091,2.3091,2.3091,2.3091,2.3091,2.3091,2.3091,2.3091,2.3091,2.3091,2.3091,2.3091,2.3091,2.3091,2.3091,2.3091,2.3091,2.3091,2.3091,2.3091,2.3091,2.3091,2.3091,2.3091,2.3091,2.2867,2.207,2.1885,2.1709,2.1123,2.0771,2.0605,2.0605,2.0605,2.0605,2.0605,2.0001,1.9402,1.9045,1.835,1.7868,1.7868,1.7536,1.7172,1.6846,1.6478,1.5508,1.3852,1.4045,1.3645,1.2362,1.2592,1.2629,1.2305,1.2305,1.2305,1.2305,1.2305,1.2305,1.2305,1.2305,1.2305,0.0,0.0,0.0,0.0,0.0,0.0,0.0,0.0,0.0,0.0,0.0,0.0,0.0,0.0,0.0,0.0,0.0,0.0,0.0,0.0,0.0,0.0,0.0,0.0,0.0,0.0,0.0,0.0,0.0,2.5244,2.5625,2.5664,2.5664,2.5664,2.5684,2.5693,2.5693,2.5693,2.5684,2.5664,2.5264,2.4814,2.4385,2.3965,2.3545,2.3091,2.3091,2.3091,2.3091,2.3091,2.3091,2.3091,2.3091,2.3091,2.3091,2.3091,2.3091,2.3091,2.3091,2.3091,2.3091,2.3091,2.3091,2.3091,2.3091,2.3091,2.3091,2.3091,2.3091,2.3091,2.3091,2.3091,2.3091,2.3091,2.3081,2.2847,2.206,2.1875,2.1611,2.0781,2.0605,2.0605,2.0605,2.0605,2.0605,2.0605,2.0605,2.0206,1.9195,1.9045,1.9045,1.9045,1.8069,1.7827,1.8917,1.7989,1.6621,1.4956,1.5695,1.5045,1.2502,1.3237,1.3273,1.2372,1.2298,1.2305,1.2305,1.2305,1.2305,1.2305,1.2305,1.2305,2.3091,0.0,0.0,0.0,0.0,0.0,0.0,0.0,0.0,0.0,0.0,0.0,0.0,0.0,0.0,0.0,0.0,0.0,0.0,0.0,0.0,0.0,0.0,0.0,0.0,0.0,0.0,0.0,2.459,2.4648,2.4775,2.5078,2.5254,2.5254,2.5566,2.5693,2.5693,2.5693,2.5528,2.5244,2.4805,2.4375,2.3945,2.3516,2.3208,2.3091,2.3091,2.3091,2.3091,2.3091,2.3091,2.3091,2.3091,2.3091,2.3091,2.3091,2.3091,2.3091,2.3091,2.3091,2.3091,2.3091,2.3091,2.3091,2.3091,2.3091,2.3091,2.3091,2.3091,2.3091,2.3091,2.3091,2.3091,2.3091,2.2867,2.2539,2.2002,2.1641,2.125,2.0713,2.0605,2.0605,2.0605,2.0605,2.0605,2.0605,2.0605,2.0479,2.0206,2.0157,2.0157,2.0157,1.9874,1.952,1.9036,1.8718,1.7734,1.5934,1.6076,1.5645,1.4438,1.3954,1.3564,1.331,1.2666,1.2305,1.2305,1.2305,1.2305,1.2305,1.2305,1.2305,0.0,0.0,0.0,0.0,0.0,0.0,0.0,2.3091,0.0,0.0,0.0,0.0,0.0,0.0,0.0,0.0,0.0,0.0,0.0,0.0,0.0,0.0,0.0,0.0,0.0,0.0,0.0,2.4141,2.415,2.4228,2.4404,2.4658,2.4795,2.4795,2.5049,2.5138,2.5138,2.5138,2.5059,2.4785,2.4355,2.4033,2.3769,2.3296,2.3091,2.3091,2.3091,2.3091,2.3091,2.3091,2.3091,2.3091,2.3091,2.3091,2.3091,2.3091,2.3091,2.3091,2.3091,2.3091,2.3091,2.3091,2.3091,2.3091,2.3091,2.3091,2.3091,2.3091,2.3091,2.3091,2.3091,2.3091,2.3091,2.3091,2.2779,2.2402,2.1982,2.1543,2.1064,2.0693,2.0605,2.0605,2.0605,2.0605,2.0605,2.0605,2.0605,2.0605,2.0605,2.0605,2.0605,2.0605,2.0605,2.0362,1.9717,1.9479,1.8665,1.6997,1.7105,1.66,1.5259,1.5013,1.4522,1.3709,1.3557,1.3302,1.2879,1.2482,1.2305,1.2305,1.2305,1.2305,0.0,0.0,0.0,0.0,0.0,0.0,2.3091,2.3091,2.3091,0.0,0.0,0.0,0.0,0.0,0.0,0.0,0.0,0.0,0.0,0.0,0.0,0.0,0.0,0.0,0.0,2.3091,2.3257,2.3691,2.3721,2.3877,2.4258,2.4316,2.4346,2.4346,2.4394,2.4414,2.4414,2.4414,2.4394,2.4346,2.3965,2.3769,2.3711,2.3276,2.3091,2.3091,2.3091,2.3091,2.3091,2.3091,2.3091,2.3091,2.3091,2.3091,2.3091,2.3091,2.3091,2.3091,2.3091,2.3091,2.3091,2.3091,2.3091,2.3091,2.3091,2.3091,2.3091,2.3091,2.3091,2.3091,2.3091,2.3091,2.3081,2.3033,2.2744,2.2324,2.1904,2.1465,2.1045,2.0683,2.0605,2.0605,2.0605,2.0605,2.0605,2.0605,2.0605,2.0605,2.0605,2.0605,2.0605,2.0605,2.0605,2.0605,2.0605,2.0166,1.939,1.8147,1.8402,1.7682,1.5604,1.6219,1.579,1.4063,1.4807,1.4772,1.3846,1.2806,1.2305,1.2305,1.2305,1.2305,0.0,0.0,0.0,0.0,0.0,0.0,2.3091,2.3091,2.3091,0.0,0.0,0.0,0.0,0.0,0.0,0.0,0.0,0.0,0.0,0.0,0.0,0.0,0.0,0.0,0.0,2.3091,2.313,2.3218,2.3218,2.3257,2.3335,2.3721,2.3906,2.3906,2.4238,2.4414,2.4414,2.4414,2.4248,2.3906,2.3828,2.3603,2.3218,2.314,2.3091,2.3091,2.3091,2.3091,2.3091,2.3091,2.3091,2.3091,2.3091,2.3091,2.3091,2.3091,2.3091,2.3091,2.3091,2.3091,2.3091,2.3091,2.3091,2.3091,2.3091,2.3091,2.3091,2.3091,2.3091,2.3091,2.3091,2.3091,2.3013,2.2672,2.2314,2.1885,2.1455,2.1006,2.0713,2.0625,2.0605,2.0605,2.0605,2.0605,2.0605,2.0605,2.0605,2.0605,2.0605,2.0605,2.0605,2.0605,2.0605,2.0605,2.0605,2.0166,1.9652,1.9051,1.877,1.8273,1.7495,1.6888,1.6419,1.6035,1.5473,1.5092,1.4914,1.3164,1.2305,1.2305,1.2305,1.2305,0.0,0.0,0.0,2.3091,0.0,0.0,0.0,2.3091,2.3091,0.0,0.0,0.0,0.0,0.0,0.0,0.0,0.0,0.0,0.0,0.0,0.0,0.0,0.0,0.0,0.0,2.3091,2.3091,2.3091,2.3091,2.3091,2.3091,2.3305,2.3467,2.3467,2.3672,2.3734,2.3734,2.3734,2.3627,2.3467,2.3467,2.3305,2.3091,2.3091,2.3091,2.3091,2.3091,2.3091,2.3091,2.3091,2.3091,2.3091,2.3091,2.3091,2.3091,2.3091,2.3091,2.3091,2.3091,2.3091,2.3091,2.3091,2.3091,2.3091,2.3091,2.3091,2.3091,2.3091,2.3091,2.3091,2.3091,2.3091,2.2984,2.2617,2.2197,2.1768,2.1288,2.0879,2.0605,2.0605,2.0605,2.0605,2.0605,2.0605,2.0605,2.0605,2.0605,2.0605,2.0605,2.0605,2.0605,2.0605,2.0605,2.0605,2.0605,1.9971,1.9512,1.9297,1.8682,1.8198,1.8018,1.7535,1.7285,1.7285,1.5904,1.5438,1.5895,1.4442,1.3484,1.2989,1.2519,1.2305,0.0,0.0,0.0,0.0,0.0,2.3091,0.0,0.0,0.0,2.3091,0.0,0.0,0.0,0.0,0.0,0.0,0.0,0.0,0.0,0.0,0.0,0.0,0.0,0.0,0.0,2.3091,2.3091,2.3091,2.3091,2.3091,2.3091,2.3091,2.3091,2.3091,2.3091,2.3091,2.3091,2.3091,2.3091,2.3091,2.3091,2.3091,2.3091,2.3091,2.3091,2.3091,2.3091,2.3091,2.3091,2.3091,2.3091,2.3091,2.3091,2.3091,2.3091,2.3091,2.3091,2.3091,2.3091,2.3091,2.3091,2.3091,2.3091,2.3091,2.3091,2.3091,2.3091,2.3091,2.3091,2.3091,2.3091,2.3091,2.2974,2.251,2.2129,2.1748,2.1221,2.082,2.0605,2.0605,2.0605,2.0605,2.0605,2.0605,2.0605,2.0605,2.0605,2.0605,2.0605,2.0605,2.0605,2.0605,2.0605,2.0605,2.0605,1.9822,1.9287,1.9287,1.8486,1.8008,1.8008,1.8008,1.8008,1.8008,1.6515,1.6114,1.6853,1.5939,1.4879,1.3673,1.3127,1.2659,0.0,0.0,0.0,0.0,2.3091,0.0,0.0,0.0,2.3091,2.3091,0.0,0.0,0.0,0.0,0.0,0.0,0.0,0.0,0.0,0.0,0.0,0.0,0.0,0.0,0.0,0.0,2.3091,2.3091,2.3091,2.3091,2.3091,2.3091,2.3091,2.3091,2.3091,2.3091,2.3091,2.3091,2.3091,2.3091,2.3091,2.3091,2.3091,2.3091,2.3091,2.3091,2.3091,2.3091,2.3091,2.3091,2.3091,2.3091,2.3091,2.3091,2.3091,2.3091,2.3091,2.3091,2.3091,2.3091,2.3091,2.3091,2.3091,2.3091,2.3091,2.3091,2.3091,2.3091,2.3091,2.3091,2.3091,2.3091,2.2896,2.2148,2.1924,2.166,2.086,2.0635,2.0605,2.0605,2.0605,2.0605,2.0605,2.0605,2.0605,2.0605,2.0605,2.0605,2.0605,2.0605,2.0605,2.0605,2.0605,2.0605,2.0605,1.9822,1.9287,1.9287,1.8486,1.8008,1.8008,1.8008,1.8008,1.8008,1.7794,1.7725,1.7828,1.6888,1.5508,1.3709,1.4522,1.3947,0.0,0.0,0.0,0.0,0.0,0.0,0.0,0.0,2.3091,0.0,0.0,0.0,0.0,0.0,0.0,0.0,0.0,0.0,0.0,0.0,0.0,0.0,0.0,0.0,0.0,0.0,0.0,0.0,0.0,2.3091,2.3091,2.3091,2.3091,2.3091,2.3091,2.3091,2.3091,2.3091,2.3091,2.3091,2.3091,2.3091,2.3091,2.3091,2.3091,2.3091,2.3091,2.3091,2.3091,2.3091,2.3091,2.3091,2.3091,2.3091,2.3091,2.3091,2.3091,2.3091,2.3091,2.3091,2.3091,2.3091,2.3091,2.3091,2.3091,2.3091,2.3091,2.3091,2.3091,2.3091,2.3091,2.2916,2.2627,2.2031,2.1689,2.1338,2.0742,2.0605,2.0605,2.0605,2.0605,2.0605,2.0605,2.0605,2.0605,2.0605,2.0605,2.0605,2.0605,2.0605,2.0605,2.0605,2.0605,2.0605,2.0605,1.9822,1.9287,1.9287,1.8486,1.8008,1.8008,1.8008,1.8008,1.8008,1.8008,1.8008,1.8008,1.7613,1.6715,1.5367,1.5261,1.4772,2.3467,0.0,0.0,0.0,0.0,0.0,0.0,0.0,0.0,0.0,0.0,0.0,0.0,0.0,0.0,0.0,0.0,0.0,0.0,0.0,0.0,0.0,0.0,0.0,0.0,0.0,0.0,0.0,2.3091,2.3091,2.3091,2.3091,2.3091,2.3091,2.3091,2.3091,2.3091,2.3091,2.3091,2.3091,2.3091,2.3091,2.3091,2.3091,2.3091,2.3091,2.3091,2.3091,2.3091,2.3091,2.3091,2.3091,2.3091,2.3091,2.3091,2.3091,2.3091,2.3091,2.3091,2.3091,2.3091,2.3091,2.3091,2.3091,2.3091,2.3091,2.3091,2.3091,2.3091,2.3091,2.3091,2.2779,2.2402,2.1992,2.1553,2.1073,2.0703,2.0605,2.0605,2.0605,2.0605,2.0605,2.0605,2.0605,2.0605,2.0605,2.0605,2.0605,2.0605,2.0605,2.0605,2.0605,2.0605,2.0605,2.0605,1.9822,1.9189,1.8955,1.835,1.8008,1.8008,1.8008,1.8008,1.8008,1.8008,1.8008,1.8008,1.8008,1.7647,1.6957,1.6289,1.5693,0.0,0.0,0.0,2.3198,0.0,0.0,0.0,0.0,2.3091,0.0,0.0,0.0,0.0,0.0,0.0,0.0,0.0,0.0,0.0,0.0,0.0,0.0,0.0,0.0,0.0,0.0,0.0,2.3091,2.3091,2.3091,2.3091,2.3091,2.3091,2.3091,2.3091,2.3091,2.3091,2.3091,2.3091,2.3091,2.3091,2.3091,2.3091,2.3091,2.3091,2.3091,2.3091,2.3091,2.3091,2.3091,2.3091,2.3091,2.3091,2.3091,2.3091,2.3091,2.3091,2.3091,2.3091,2.3091,2.3091,2.3091,2.3091,2.3091,2.3091,2.3091,2.3091,2.3091,2.3091,2.3091,2.3091,2.2779,2.2402,2.1992,2.1553,2.1073,2.0703,2.0605,2.0605,2.0605,2.0605,2.0605,2.0605,2.0605,2.0605,2.0605,2.0605,2.0605,2.0605,2.0605,2.0605,2.0605,2.0605,2.0605,2.0605,1.9822,1.8936,1.8105,1.8027,1.8008,1.8008,1.8008,1.8008,1.8008,1.8008,1.8008,1.8008,1.8008,1.7974,1.794,1.794,1.6941,0.0,0.0,2.4102,2.3672,0.0,0.0,0.0,0.0,0.0,0.0,0.0,0.0,0.0,0.0,0.0,0.0,0.0,0.0,0.0,0.0,0.0,0.0,0.0,0.0,0.0,0.0,0.0,2.3091,2.3091,2.3091,0.0,2.3091,2.3091,2.3091,2.3091,2.3091,2.3091,2.3091,2.3091,2.3091,2.3091,2.3091,2.3091,2.3091,2.3091,2.3091,2.3091,2.3091,2.3091,2.3091,2.3091,2.3091,2.3091,2.3091,2.3091,2.3091,2.3091,2.3091,2.3091,2.3091,2.3091,2.3091,2.3091,2.3091,2.3091,2.3091,2.3091,2.3091,2.3091,2.3091,2.3091,2.2617,2.206,2.1924,2.1328,2.0752,2.0635,2.0605,2.0605,2.0605,2.0605,2.0605,2.0605,2.0605,2.0605,2.0605,2.0605,2.0605,2.0605,2.0605,2.0605,2.0605,2.0605,2.0488,2.0156,1.9346,1.8613,1.8047,1.8008,1.8008,1.8008,1.8008,1.8008,1.8008,1.8008,1.8008,1.8008,1.8008,1.8008,1.8008,1.8008,1.7657,2.4697,2.4648,0.0,2.4121,2.4014,0.0,2.3467,0.0,0.0,0.0,0.0,0.0,0.0,0.0,0.0,0.0,0.0,0.0,0.0,2.3091,0.0,0.0,0.0,0.0,0.0,0.0,2.3091,2.3091,2.3091,2.3091,0.0,0.0,2.3091,2.3091,2.3091,2.3091,2.3091,2.3091,2.3091,2.3091,2.3091,2.3091,2.3091,2.3091,2.3091,2.3091,2.3091,2.3091,2.3091,2.3091,2.3091,2.3091,2.3091,2.3091,2.3091,2.3091,2.3091,2.3091,2.3091,2.3091,2.3091,2.3091,2.3091,2.3091,2.3091,2.3091,2.3091,2.3091,2.3091,2.3091,2.3091,2.2519,2.1885,2.1885,2.1251,2.0605,2.0605,2.0605,2.0605,2.0605,2.0605,2.0605,2.0605,2.0605,2.0605,2.0605,2.0605,2.0605,2.0605,2.0605,2.0605,2.0605,2.0605,2.037,1.9736,1.9007,1.8422,1.8037,1.8008,1.8008,1.8008,1.8008,1.8008,1.8008,1.8008,1.8008,1.8008,1.8008,1.8008,1.8008,1.8008,1.8008]}]]